GFSGL_sfc_30mbdewp_000.txt.gz
Dewpoint
32 34 33 32 32 31 30 31 32 35 33 30 30 30 29 31 32 33 33 32 29 29 28 25 24 25 24 25 27 28 28 29 27 26 28 28 29 30 28 27 33 34 36
34 33 33 29 26 28 29 30 30 27 27 27 27 27 28 27 28 28 26 25 24 22 22 24 23 24 25 26 27 27 28 29 28 26 28 28 28 31 32 32 31 32 33
34 34 28 25 24 27 28 32 33 33 31 29 28 27 28 27 26 24 23 22 23 23 24 23 23 23 22 23 23 24 25 25 26 27 25 27 28 30 29 31 32 33 33
36 33 31 30 27 31 36 36 35 34 32 31 31 29 27 23 21 21 22 22 22 21 21 20 20 20 20 20 21 21 22 23 23 23 23 24 26 27 28 26 26 29 28
37 36 35 36 37 36 36 36 36 35 35 35 34 26 22 20 20 23 23 21 21 20 20 21 21 21 21 22 22 23 24 24 24 24 23 22 22 22 23 22 23 24 26
36 36 37 38 37 36 36 35 35 35 35 36 29 20 19 21 26 25 25 24 23 22 21 21 21 22 23 23 23 24 24 23 23 22 21 20 20 20 20 20 21 21 20
32 27 27 28 28 30 31 32 29 23 21 19 18 20 22 23 26 25 24 24 24 23 22 22 22 22 22 23 24 23 24 24 24 25 24 24 22 21 21 22 23 22 21
26 29 30 28 23 21 20 19 18 17 16 17 19 23 22 21 22 22 21 22 21 21 21 22 22 23 23 23 23 23 24 24 23 23 24 24 25 24 23 22 22 23 24
30 31 29 22 21 21 20 17 16 16 17 21 23 20 19 19 21 21 21 21 20 20 22 23 23 22 23 23 24 24 24 24 24 24 26 26 25 26 26 25 24 24 22
26 23 21 22 22 20 17 16 17 18 20 19 18 19 19 19 20 21 21 21 21 22 22 21 21 22 23 25 25 25 23 23 24 25 25 24 26 28 28 27 27 24 23
23 21 21 22 21 18 17 18 18 19 18 16 17 18 18 19 20 21 20 21 23 22 22 22 23 25 23 22 23 23 24 25 27 27 26 25 27 26 28 29 29 28 25
22 21 20 22 20 17 18 18 17 17 17 17 18 18 18 18 20 19 19 20 22 24 23 24 25 22 20 20 21 22 22 23 24 24 25 24 25 25 26 26 27 28 27
21 20 20 21 20 18 18 17 18 18 18 18 20 18 18 19 18 18 19 22 24 24 25 26 23 19 19 19 20 21 22 22 21 22 23 23 25 26 28 28 29 28 28
21 21 21 20 20 18 19 17 18 19 18 19 18 17 18 17 17 18 22 23 23 25 24 23 22 20 17 17 19 19 20 20 20 21 22 24 26 26 26 28 27 27 27
21 22 22 21 21 21 20 17 20 20 20 19 17 18 18 16 18 22 22 22 24 23 23 20 17 16 15 16 16 16 17 18 18 19 21 22 24 25 25 26 27 27 25
21 22 22 21 20 21 18 18 19 18 19 17 17 17 17 18 20 21 21 22 22 21 19 16 15 14 13 15 15 14 14 15 16 17 19 22 23 23 23 24 25 25 24
22 22 20 19 19 19 19 17 16 14 17 15 17 16 15 17 20 19 19 19 19 17 15 14 13 13 13 13 14 14 13 14 15 16 17 18 19 23 23 23 24 25 25
22 20 18 19 18 18 16 17 14 14 13 12 14 15 15 16 18 17 16 15 13 13 13 12 11 12 12 12 12 12 13 13 13 13 14 15 16 19 19 20 22 22 21
25 23 17 19 17 17 16 15 14 14 13 12 13 12 14 14 14 15 14 11 10 10 10 11 11 11 11 11 11 11 11 13 13 12 12 13 14 17 19 18 18 19 19
22 21 19 19 18 19 16 15 15 15 14 13 12 12 13 12 11 10 11 10 9 9 9 9 9 9 10 10 11 11 11 12 13 12 11 12 12 13 14 15 15 16 16
21 21 22 19 18 18 15 15 14 14 14 13 12 12 13 11 11 11 10 9 8 8 8 8 8 8 9 9 10 9 10 11 12 12 11 12 11 13 13 13 14 15 15
22 22 20 19 19 17 15 14 14 14 14 12 12 11 12 11 10 10 10 10 9 9 9 8 7 7 8 8 8 8 9 10 10 11 11 12 12 12 12 12 13 13 13
22 22 19 19 18 16 15 13 13 13 13 12 11 11 11 10 10 10 10 9 9 8 8 7 7 6 7 7 8 8 8 8 9 8 10 10 11 12 12 12 12 12 11
22 21 21 20 16 16 14 12 12 12 14 12 11 10 11 10 10 10 10 10 9 7 7 7 7 6 6 6 6 7 7 8 7 8 6 8 9 9 10 12 12 12 12
22 23 22 20 18 18 16 13 12 11 12 12 11 11 11 11 11 11 10 9 8 7 7 7 6 7 7 6 5 4 4 5 5 5 6 5 4 5 6 7 8 9 10
24 24 23 20 19 17 16 15 13 10 11 12 11 11 11 10 11 10 11 10 9 8 8 8 7 6 7 7 6 5 2 2 3 2 3 4 3 3 3 4 4 5 6

GFSGL_sfc_30mbdewp_003.txt.gz
Dewpoint
36 36 35 34 31 29 31 33 34 34 32 30 30 31 32 33 32 31 31 30 27 27 28 28 27 26 23 23 23 22 21 20 19 18 19 22 23 22 21 22 24 23 24
36 35 35 30 27 30 31 33 35 34 32 31 30 33 33 31 31 28 26 24 21 19 20 21 20 20 23 24 24 24 24 23 22 20 20 22 24 23 25 26 25 26 28
36 36 33 31 29 31 36 36 36 35 34 35 35 34 31 26 25 22 22 22 22 22 23 23 22 22 21 21 21 20 20 20 20 19 19 19 21 22 21 22 23 24 25
37 36 36 35 34 36 36 36 36 35 33 33 33 34 31 24 20 19 20 22 22 20 21 20 19 19 18 18 17 17 17 17 17 18 17 17 17 18 20 20 21 23 23
37 36 35 37 37 35 31 30 30 31 33 34 34 31 23 20 17 22 22 21 21 21 21 20 20 20 21 21 20 19 20 20 19 19 19 19 19 20 21 21 21 22 23
33 28 28 28 28 27 28 29 28 25 21 21 20 19 20 20 27 25 26 23 23 21 20 19 19 19 20 21 23 23 23 21 20 20 19 18 17 17 17 18 18 18 18
27 27 29 30 26 21 21 20 19 19 18 17 18 19 21 23 24 24 23 20 20 19 18 17 17 17 19 20 21 22 22 23 24 23 22 21 20 20 19 19 19 19 18
26 30 31 26 20 20 20 19 18 17 17 17 20 21 19 17 20 21 21 20 20 20 19 18 18 19 20 21 21 21 21 22 22 23 22 21 20 20 21 21 19 19 20
27 29 24 21 20 20 19 17 17 17 17 19 17 17 17 17 19 19 20 20 20 20 19 20 20 20 21 22 23 23 22 20 21 24 25 26 26 25 25 22 23 21 21
26 24 21 21 20 19 18 17 17 17 17 18 17 17 19 19 19 20 19 19 19 19 19 20 21 22 23 25 26 24 22 21 22 28 27 25 26 27 28 27 26 23 20
25 23 21 20 20 19 17 17 16 16 19 20 21 21 20 18 19 19 18 19 20 20 20 20 22 26 26 23 23 22 21 21 22 23 23 22 24 27 25 25 28 27 23
25 23 20 19 20 18 16 17 16 17 19 20 19 19 17 19 18 17 18 20 20 23 21 23 27 23 21 19 19 20 22 22 21 22 22 21 23 25 25 24 23 25 28
24 22 20 20 20 18 16 17 17 18 19 18 16 16 15 15 17 17 19 21 20 22 25 24 22 21 19 18 18 20 20 20 21 21 21 22 25 26 28 30 30 27 29
22 21 21 21 21 21 20 20 17 19 18 17 16 15 14 14 15 17 19 19 20 24 25 23 21 21 18 17 17 18 19 19 19 20 21 23 26 28 27 27 27 27 27
21 21 22 22 22 20 21 18 19 20 18 17 15 15 16 15 17 20 20 20 22 22 22 20 18 17 14 14 15 16 17 18 18 19 20 22 24 25 25 27 26 27 25
21 22 23 22 21 20 18 18 19 18 19 16 16 16 16 16 19 19 19 20 20 20 18 15 15 15 14 14 14 14 15 16 17 18 19 21 22 24 24 25 25 25 25
24 24 23 20 21 19 19 19 17 17 17 16 16 15 14 15 18 18 17 18 17 17 14 14 13 13 13 13 13 13 14 16 16 17 18 19 21 23 24 24 25 24 24
24 23 23 20 20 20 20 18 17 16 16 15 15 14 14 13 15 15 15 14 12 13 12 12 12 12 12 12 12 13 14 15 15 16 17 17 19 22 22 22 23 24 24
25 23 22 21 20 19 19 18 17 17 16 15 13 12 13 12 12 13 13 11 10 10 10 11 11 11 11 12 13 13 14 15 15 16 16 16 17 19 20 21 21 20 22
24 22 20 21 21 20 19 18 17 17 16 15 13 12 12 11 10 10 11 10 9 9 9 9 10 10 11 12 12 13 13 14 14 15 16 17 17 18 18 19 19 20 20
24 23 22 21 20 20 18 17 17 17 16 15 13 13 13 11 10 10 10 8 6 5 7 8 9 10 10 11 11 12 12 13 14 14 15 16 17 17 17 18 18 18 18
24 23 22 21 21 20 18 17 16 16 16 15 14 13 12 11 10 10 9 7 8 7 7 7 8 9 9 10 10 12 12 12 12 13 15 16 16 17 17 17 17 17 17
24 24 22 21 20 18 19 17 16 16 16 15 14 13 12 11 11 11 9 9 8 7 7 8 7 7 8 9 10 10 11 11 12 11 13 15 16 16 16 16 15 15 15
24 24 23 22 20 20 20 19 17 14 15 16 15 13 13 12 11 11 10 10 9 8 8 7 7 7 7 7 7 7 8 9 10 11 11 12 13 14 15 15 15 15 14
24 24 24 23 21 20 19 19 18 16 16 16 15 14 13 13 11 12 12 12 10 9 8 8 7 7 7 7 7 6 5 5 6 7 11 10 10 10 11 12 13 14 13
25 25 24 24 22 20 19 19 19 17 16 16 16 15 14 13 11 12 12 12 11 10 8 8 8 7 7 6 5 6 5 4 4 4 10 10 9 8 9 9 10 11 11

GFSGL_sfc_30mbdewp_006.txt.gz
Dewpoint
38 36 35 35 33 32 32 33 34 34 32 31 30 32 33 35 37 37 34 32 26 25 23 22 20 19 19 18 18 19 19 18 16 16 16 17 18 21 22 23 22 22 23
34 33 34 33 32 32 33 34 34 34 34 34 35 36 36 36 32 30 29 26 22 20 20 20 18 15 17 18 18 19 19 19 18 17 17 17 18 19 21 22 22 21 21
33 32 32 34 33 33 34 34 36 36 36 36 34 33 34 32 31 27 22 21 21 21 20 18 18 19 19 18 19 19 18 17 17 17 16 17 17 18 18 20 21 22 22
33 32 32 33 36 36 36 34 32 30 29 28 26 25 25 23 21 19 18 19 19 18 19 20 20 20 19 18 17 16 15 15 15 14 14 14 15 16 17 17 18 19 20
33 31 30 30 29 28 26 25 23 21 18 18 17 17 18 18 16 22 18 19 20 20 20 20 19 20 21 22 20 17 16 16 16 15 15 16 16 16 17 18 19 20 21
31 29 28 28 26 23 21 20 17 16 17 17 17 17 17 17 25 25 24 20 19 18 17 17 17 18 18 20 20 21 23 21 19 18 18 19 18 18 19 20 22 22 20
29 27 27 27 23 20 17 15 15 16 17 17 17 19 19 19 21 21 22 19 17 17 18 17 16 14 16 17 19 22 23 23 23 22 21 21 21 22 22 23 22 22 20
27 27 28 24 20 17 15 15 16 16 16 17 18 18 18 17 19 21 20 18 19 19 18 17 16 16 17 20 20 20 20 21 22 24 23 20 20 20 21 21 22 24 25
26 27 26 22 20 15 15 16 17 17 17 17 18 18 18 18 20 20 19 19 18 18 18 17 19 21 21 22 23 24 22 21 22 24 24 24 24 26 26 24 27 23 24
26 28 24 22 18 16 17 17 18 17 17 19 21 21 20 20 20 19 19 18 19 21 21 21 22 22 23 24 26 25 22 19 20 23 23 28 28 24 26 26 25 23 22
25 25 24 21 17 17 17 18 19 18 20 23 25 22 22 20 18 18 18 19 21 20 19 20 21 27 26 24 22 22 21 23 19 20 21 22 22 24 27 28 27 28 25
26 25 23 20 18 17 18 19 19 19 20 23 23 21 17 20 16 17 17 20 22 22 21 22 28 23 22 21 19 20 19 21 21 23 23 22 22 22 24 26 26 26 27
24 23 22 20 19 19 19 20 19 18 21 20 17 15 14 14 15 18 20 20 20 21 25 25 22 21 21 20 21 20 21 23 23 22 23 24 25 26 28 29 28 27 26
23 22 21 20 20 21 21 20 18 19 20 16 14 13 14 13 14 18 19 19 21 23 22 26 22 22 22 23 22 21 22 22 21 21 22 23 25 27 29 29 28 29 28
20 20 21 22 22 22 20 18 18 20 19 16 14 14 15 14 16 19 20 19 20 20 21 21 19 19 20 18 17 18 19 19 21 21 22 23 24 25 27 27 27 28 27
21 21 23 24 24 23 19 18 20 19 19 17 16 16 15 14 17 18 18 19 19 19 19 17 16 16 17 17 15 16 18 19 19 20 22 23 23 24 25 28 25 25 26
26 26 25 24 23 21 20 20 18 17 18 17 16 15 14 14 15 16 17 17 17 17 16 15 15 15 16 14 15 16 16 17 19 20 22 22 22 22 25 26 28 27 24
27 26 25 23 23 22 22 20 19 17 16 15 16 13 13 13 13 14 14 16 14 14 14 14 13 14 13 12 13 15 17 18 18 18 19 20 20 21 22 23 25 25 27
24 24 26 25 25 22 22 20 19 17 15 15 12 10 13 13 14 14 13 14 12 12 12 12 12 12 12 12 14 14 18 17 17 19 18 19 20 21 20 20 22 24 24
22 24 23 24 23 21 20 19 17 16 15 15 11 12 12 13 12 12 12 11 8 6 8 8 10 11 13 13 14 14 13 16 16 17 18 19 19 21 20 19 19 20 21
22 22 23 22 21 20 20 19 18 16 15 14 12 14 12 13 12 12 10 8 7 7 8 8 9 11 12 12 12 13 13 14 15 16 17 18 20 20 20 19 19 19 18
24 24 23 22 21 21 20 19 18 18 15 15 14 13 14 14 12 12 10 9 9 8 8 8 9 9 10 11 12 12 12 13 13 14 16 19 19 20 20 18 18 19 17
24 25 23 21 22 21 21 20 19 18 17 16 15 13 13 14 13 12 11 10 9 9 8 8 8 8 8 10 10 11 11 12 13 14 13 14 16 17 19 18 17 18 16
22 25 23 23 23 21 21 20 20 19 18 17 16 14 13 12 13 13 13 13 11 10 9 9 8 7 8 8 8 8 8 10 11 12 13 12 12 14 15 14 16 15 16
24 25 24 24 23 21 21 21 21 21 20 18 17 16 13 13 11 11 13 14 13 11 8 9 8 7 7 7 7 7 7 7 7 8 12 11 11 11 12 12 13 13 13
24 24 24 24 24 23 21 21 20 21 20 19 17 17 15 13 12 12 11 11 11 10 8 8 8 8 7 6 5 6 6 6 7 8 10 9 9 9 10 10 10 11 11

GFSGL_sfc_30mbdewp_009.txt.gz
Dewpoint
36 35 35 34 33 32 31 31 34 35 34 35 36 36 36 35 36 37 34 33 33 33 30 27 24 24 22 20 21 21 20 20 20 20 18 19 21 23 22 24 24 26 26
34 32 31 31 31 30 31 33 34 33 35 35 35 35 34 36 36 34 33 31 27 26 25 25 25 23 21 20 19 18 18 18 18 18 18 19 20 22 23 25 22 21 23
33 31 29 29 30 31 31 30 31 30 28 28 28 27 25 24 22 20 19 20 22 22 21 20 19 19 18 19 19 19 18 17 18 17 16 17 18 19 19 21 22 24 22
31 29 28 29 29 28 29 27 24 22 20 18 17 17 17 17 17 16 18 19 18 17 17 18 18 19 19 19 19 19 18 17 16 16 16 16 16 16 18 18 19 21 21
30 28 28 27 27 26 25 23 21 18 17 16 16 17 17 17 17 21 21 20 19 18 19 18 18 19 22 21 18 18 18 18 17 16 16 17 17 17 16 18 19 21 23
29 27 26 26 28 26 22 19 16 15 16 17 17 17 17 16 23 23 22 19 17 16 16 16 17 19 19 22 24 25 22 17 17 18 18 18 18 19 20 20 22 22 21
27 26 24 27 28 23 20 15 15 15 16 16 16 16 17 18 21 22 22 20 18 17 17 18 18 16 17 16 18 22 24 25 24 22 20 20 20 20 22 23 24 24 24
25 24 25 27 27 22 18 15 15 15 16 16 16 18 19 18 23 23 21 19 18 18 18 18 18 17 17 19 21 20 20 21 21 23 24 22 22 22 22 22 23 24 26
27 23 23 26 26 21 16 15 16 16 16 16 18 20 21 21 22 23 21 18 19 18 17 18 20 19 18 21 21 22 21 21 22 24 26 26 26 26 26 25 26 27 26
25 21 24 23 23 20 17 16 16 15 16 20 22 22 23 21 24 20 21 18 19 19 19 18 20 21 23 24 25 26 24 21 20 22 23 23 30 30 28 26 23 22 23
24 22 25 26 23 19 16 16 16 16 20 25 27 25 22 23 20 19 20 18 19 22 20 21 23 26 25 25 24 22 22 24 21 19 20 21 21 21 23 28 26 26 24
24 26 27 26 22 17 17 16 17 17 20 23 24 24 22 22 19 20 20 19 21 21 21 22 27 23 22 21 21 21 21 19 21 22 24 24 25 23 22 24 27 32 30
31 30 31 25 21 17 16 16 17 18 20 22 18 18 16 18 18 16 18 20 19 22 24 22 25 24 23 23 25 21 21 23 25 23 23 24 27 29 29 29 30 31 31
28 27 24 20 19 18 17 17 16 19 21 18 15 14 15 17 14 16 19 20 19 20 21 22 25 24 24 25 25 24 25 25 23 24 24 25 27 29 30 31 31 29 30
26 22 20 19 19 19 18 18 18 21 19 16 15 14 16 14 14 17 19 19 20 19 21 22 20 19 19 21 21 22 23 22 23 23 24 24 26 27 28 30 26 28 28
24 22 23 24 22 21 19 18 21 20 18 17 16 17 15 13 15 16 16 18 19 19 20 18 17 18 18 19 19 19 19 20 20 22 23 24 24 24 26 30 27 26 24
26 24 23 22 22 21 21 22 20 21 21 19 17 16 14 13 14 14 15 16 19 17 16 16 16 17 16 14 17 17 18 20 20 21 22 23 23 24 26 26 26 29 27
26 24 26 24 24 23 23 23 21 20 19 18 22 15 14 15 14 13 13 16 15 15 15 15 15 12 12 11 13 15 18 19 19 21 21 22 22 23 24 23 24 23 23
21 23 26 26 26 24 24 23 22 20 18 17 17 13 13 14 20 18 15 14 13 11 11 10 10 11 12 13 15 17 19 19 19 20 20 21 21 23 22 22 23 23 22
19 23 23 24 24 23 23 22 21 20 18 17 17 15 13 13 15 15 15 12 9 8 8 8 9 11 13 13 14 15 16 16 17 18 19 22 23 21 22 22 21 22 21
21 23 23 23 24 22 22 22 21 20 19 17 17 18 13 13 14 15 14 12 9 9 9 9 10 11 11 11 11 13 14 15 15 15 17 20 22 21 21 22 21 21 20
22 25 25 25 23 24 23 21 22 21 20 18 17 17 16 18 15 15 15 14 11 10 9 10 10 9 9 10 11 11 11 12 13 15 15 17 18 19 21 21 19 20 19
24 25 25 25 24 23 24 24 23 23 21 20 19 17 16 14 15 15 15 16 14 11 11 10 10 9 9 10 10 10 9 9 11 13 14 15 14 15 18 17 18 16 18
24 25 25 25 25 23 23 24 24 23 22 21 21 20 18 14 14 14 16 17 16 15 11 11 10 8 8 9 9 9 8 9 9 9 13 14 12 13 13 13 14 14 14
26 25 25 25 25 24 23 24 24 24 24 22 22 21 19 16 14 13 14 14 14 13 12 10 10 9 8 8 7 7 7 7 8 9 13 12 11 11 12 11 11 13 12
25 25 25 26 25 26 25 23 23 23 23 23 22 21 20 17 15 14 13 13 12 11 11 9 9 9 9 8 7 7 6 6 6 9 11 9 9 9 9 10 10 10 10

GFSGL_sfc_30mbdewp_012.txt.gz
Dewpoint
37 36 35 35 34 34 34 35 35 35 35 34 34 33 33 34 37 37 37 37 34 32 32 31 32 30 29 29 27 25 24 24 26 22 24 24 24 29 28 33 31 28 30
35 34 32 33 32 32 33 32 32 32 33 31 30 29 28 29 28 29 30 29 29 29 28 27 27 25 25 24 23 23 24 24 22 21 22 22 21 23 23 24 25 24 25
33 31 31 30 30 30 30 31 31 30 29 25 23 22 21 21 21 20 20 23 23 22 22 22 22 22 22 22 23 22 23 22 22 21 20 20 20 21 20 22 22 23 26
31 30 30 30 29 28 29 29 27 26 23 21 21 21 22 20 19 21 21 22 22 21 21 21 21 21 22 22 23 23 21 20 19 19 19 18 19 19 20 19 19 22 22
32 31 30 29 28 29 30 28 25 23 20 20 20 21 21 20 19 22 22 21 21 20 20 20 20 21 23 23 19 20 20 19 19 19 19 19 19 20 21 23 24 24 25
34 33 31 32 29 29 30 27 23 21 20 20 20 20 21 19 23 23 24 22 21 21 20 19 20 21 21 22 21 22 22 19 18 18 18 18 19 20 22 23 24 24 23
33 30 33 34 33 31 29 24 20 19 20 21 21 21 21 23 24 25 24 22 21 19 19 19 19 19 21 21 24 25 24 28 27 23 21 22 21 20 21 21 22 23 24
26 30 36 34 32 27 26 23 20 19 20 20 22 22 23 22 23 24 25 22 20 19 20 18 18 20 21 22 21 22 22 23 24 25 25 26 25 24 25 26 28 27 26
19 31 34 31 27 28 24 21 20 19 20 22 23 24 24 24 24 26 27 23 22 20 19 20 21 20 20 21 23 22 23 24 23 24 29 31 29 28 28 27 25 23 22
28 30 32 32 30 29 27 21 19 20 21 26 27 26 26 24 25 25 25 23 21 20 21 21 20 22 27 25 25 25 24 25 22 22 23 22 21 21 26 30 29 25 21
31 31 34 35 33 31 24 19 20 21 23 26 26 27 25 24 23 21 24 23 21 20 20 20 21 26 27 25 23 23 22 23 23 21 20 20 21 22 23 23 25 29 25
31 30 30 31 30 25 21 21 20 20 24 24 23 23 22 22 20 19 23 18 18 21 20 23 24 21 23 22 22 24 24 22 21 21 22 22 25 26 26 26 25 28 30
27 28 29 28 25 22 19 19 19 21 22 22 20 19 18 19 18 18 17 16 17 20 22 22 23 25 23 24 24 25 25 23 23 24 23 24 27 27 27 28 29 31 31
26 26 26 23 21 20 20 19 20 23 23 21 19 18 17 18 16 17 19 20 18 19 20 21 24 22 23 23 25 24 25 25 24 24 24 26 28 28 29 30 30 30 30
26 25 25 26 25 23 20 20 22 23 19 18 19 18 18 16 15 15 17 19 20 20 20 21 19 18 19 21 20 21 23 23 22 23 24 25 26 27 26 27 30 26 27
27 26 26 25 25 23 22 22 22 21 20 19 17 17 18 16 15 14 15 15 19 19 19 18 17 18 17 19 19 19 21 22 22 23 23 24 24 25 26 26 29 29 26
26 26 25 25 26 24 24 24 23 23 23 22 20 19 18 16 15 14 15 15 20 17 16 17 17 15 15 15 17 19 19 21 21 22 23 23 23 24 26 25 25 25 24
26 23 27 27 27 26 24 23 24 24 22 22 24 22 16 15 15 18 17 14 15 15 15 16 14 14 14 14 15 16 18 20 19 20 22 22 23 24 24 23 24 25 24
25 22 24 25 25 25 25 25 25 24 22 21 20 20 16 14 16 18 16 15 12 11 11 11 12 14 14 15 15 16 17 19 18 18 19 21 23 23 23 23 23 23 23
23 22 23 22 25 26 25 25 23 24 22 22 20 21 16 13 17 17 17 16 12 11 12 12 13 13 14 14 14 15 15 15 15 16 16 18 21 23 23 22 22 22 22
23 24 25 24 23 27 24 24 25 24 23 22 21 21 13 14 18 17 17 17 14 12 12 12 13 13 12 12 13 13 13 13 13 14 15 16 19 19 21 22 22 22 19
23 22 26 27 27 26 26 24 23 24 24 24 22 21 17 17 18 16 17 17 16 14 13 12 13 12 12 12 13 12 11 10 10 11 12 13 17 16 18 19 19 18 20
23 25 26 26 27 27 25 25 25 25 25 23 22 22 22 20 17 16 17 18 17 17 14 12 12 11 11 11 12 12 10 10 10 11 10 12 16 14 15 16 16 17 14
23 25 26 25 26 26 25 25 26 24 24 25 24 23 22 21 17 16 15 17 17 16 17 12 12 11 10 10 10 10 10 9 9 10 10 13 14 13 13 14 12 14 13
26 27 27 26 26 26 26 25 25 25 25 25 25 24 23 22 19 18 16 15 15 14 14 11 12 11 10 10 10 9 8 8 8 8 10 13 11 11 10 13 10 13 11
28 25 25 26 27 26 26 27 26 25 25 25 25 25 24 23 20 19 17 15 14 13 12 12 10 10 9 10 9 9 7 7 7 7 9 12 10 10 8 9 10 10 10

GFSGL_sfc_30mbdewp_018.txt.gz
Dewpoint
35 35 34 33 35 36 35 34 33 33 33 31 32 26 24 23 23 23 24 26 24 23 23 23 22 23 22 22 24 25 28 29 24 23 26 23 20 21 22 23 31 39 39
35 35 33 33 33 33 33 33 33 32 32 31 27 22 23 22 22 22 23 24 22 22 22 22 21 20 21 21 21 23 25 24 24 22 22 21 20 20 21 21 21 19 25
35 33 33 34 32 32 33 32 32 31 32 29 23 22 21 22 22 23 22 22 22 22 22 22 21 21 20 20 21 23 22 24 24 22 21 21 21 21 21 22 23 25 26
31 30 31 34 36 35 31 34 35 35 33 32 23 21 22 23 23 22 22 22 22 22 22 22 21 19 20 21 22 23 24 24 24 22 21 20 20 21 21 22 22 24 22
25 30 35 35 35 34 35 36 36 34 35 27 21 22 23 23 22 23 23 22 22 22 21 21 19 19 17 17 20 22 27 27 26 23 21 20 19 18 18 21 21 21 20
27 33 34 35 35 35 36 36 37 36 26 21 22 24 23 22 25 25 26 24 23 23 21 20 20 20 18 19 21 22 22 26 24 25 23 21 19 19 20 20 20 20 19
31 32 34 34 34 35 36 37 35 32 26 22 23 23 23 24 25 27 28 26 25 24 22 21 20 18 20 21 22 22 22 22 23 24 23 24 23 22 21 21 21 21 21
30 31 32 33 33 34 35 35 33 27 26 23 25 25 23 24 28 27 26 25 24 23 22 21 20 19 20 20 23 26 24 25 25 23 23 24 25 24 24 24 24 24 26
30 31 32 33 32 34 33 33 33 30 23 26 25 24 25 24 22 21 25 22 21 20 20 20 19 20 21 24 22 23 23 22 21 21 24 28 26 28 29 28 25 24 23
30 31 30 33 34 33 33 31 32 23 26 25 24 23 22 19 19 18 19 22 18 18 19 18 18 20 22 24 25 24 21 20 21 22 23 22 21 21 21 22 22 20 20
28 29 29 29 29 29 30 28 23 26 24 22 19 21 20 20 18 16 16 18 18 19 18 18 19 22 23 21 22 23 22 24 24 24 23 22 21 21 22 22 23 22 21
27 27 27 26 26 24 21 23 24 23 21 20 17 17 19 19 16 17 17 16 16 19 19 20 22 20 22 23 24 23 23 24 24 23 22 21 22 23 25 27 27 28 27
27 27 26 26 26 24 21 22 22 22 20 19 19 17 18 18 16 18 19 18 19 21 20 21 18 19 20 22 22 23 23 22 22 21 21 22 24 26 28 28 29 30 30
27 26 26 25 25 25 22 23 21 20 20 20 19 18 16 15 15 18 20 18 20 19 19 20 19 18 18 21 20 21 21 22 21 20 21 23 25 26 26 27 26 28 27
27 26 25 25 25 24 22 22 22 21 20 20 19 18 16 14 15 20 17 16 18 15 15 16 16 15 15 15 16 17 19 20 19 20 21 22 23 24 24 26 26 26 25
26 25 25 25 25 24 23 22 23 23 23 22 21 18 17 18 19 18 17 14 12 13 13 14 14 14 14 14 14 15 15 18 18 18 19 19 20 21 23 23 23 23 23
28 26 26 25 26 24 22 21 19 23 25 24 24 22 22 18 17 17 17 14 12 12 11 13 13 13 13 13 13 14 14 15 16 16 16 17 18 20 21 21 22 22 23
27 26 25 25 24 24 21 21 22 23 21 21 22 24 22 18 16 16 16 14 10 11 11 12 13 14 12 13 13 12 13 12 12 13 14 14 16 18 18 19 20 20 20
28 25 24 23 22 23 22 24 24 21 22 23 20 22 20 18 16 17 18 13 11 10 10 10 12 13 12 12 12 12 11 9 8 9 11 12 13 15 16 19 19 17 16
27 25 23 21 21 22 22 25 24 23 23 21 20 20 18 13 12 14 14 13 11 10 10 10 10 12 10 10 12 11 10 7 6 7 8 9 11 13 15 16 17 17 17
27 24 23 24 24 24 22 23 24 24 21 21 22 22 20 16 14 14 15 14 13 12 10 10 9 9 9 9 11 9 9 6 5 6 7 8 9 11 13 14 14 14 14
25 23 22 22 21 21 23 23 24 22 21 21 22 23 20 16 15 16 17 14 13 13 12 10 10 10 9 9 10 8 7 5 5 5 6 8 9 12 11 12 11 12 10
27 22 21 21 22 20 20 24 25 24 21 23 22 22 21 20 19 18 17 14 13 14 13 11 9 9 8 8 9 8 7 6 7 7 6 7 9 10 8 10 10 11 9
26 21 21 20 21 21 20 22 25 24 24 22 20 22 22 22 21 19 16 13 12 13 12 12 10 9 9 8 8 8 8 7 7 7 7 7 9 9 7 8 8 8 7
26 21 20 19 20 20 21 22 24 25 24 23 22 20 22 22 21 19 18 15 13 13 13 12 10 9 9 8 8 7 6 5 5 6 7 9 9 6 6 6 6 6 5
27 26 24 22 21 21 22 21 22 23 24 24 22 20 21 21 20 20 19 16 14 12 10 10 9 9 8 8 7 7 5 4 4 6 8 8 6 4 6 5 4 5 5

GFSGL_sfc_30mbdewp_021.txt.gz
Dewpoint
36 36 36 34 34 35 36 35 34 33 34 33 33 33 25 24 23 23 23 26 24 23 23 22 22 23 22 21 22 22 23 24 24 24 26 26 21 20 20 21 22 21 30
34 34 32 33 34 33 34 34 34 33 33 32 30 28 25 23 23 22 22 24 22 21 22 22 21 21 20 21 21 21 22 23 23 21 24 23 21 20 20 20 20 22 26
29 27 29 33 35 35 35 34 32 32 33 33 34 30 24 23 23 23 23 22 21 22 22 21 22 21 19 19 20 21 22 23 23 24 23 22 21 21 20 20 22 24 23
24 28 31 33 33 32 32 32 32 35 35 34 34 27 25 24 24 22 21 22 22 22 22 23 22 21 18 19 18 18 23 23 24 25 24 23 22 21 22 19 20 22 20
24 30 32 33 34 35 34 35 36 37 36 34 30 23 24 24 22 22 23 23 23 23 23 23 22 21 21 19 17 19 20 21 23 25 24 24 23 20 19 19 20 20 20
28 31 34 34 35 34 35 36 36 36 29 31 25 24 23 22 24 26 29 27 25 24 24 23 22 21 20 18 19 20 20 21 21 22 22 22 24 22 20 19 20 19 18
29 31 32 32 32 32 34 35 35 34 34 26 24 24 24 23 27 28 26 26 24 24 22 21 19 17 19 20 20 20 22 23 25 25 23 22 22 23 22 21 21 20 21
30 31 32 32 32 32 34 33 31 29 28 24 25 24 24 25 23 21 25 22 20 21 18 19 19 19 20 20 23 24 21 23 23 24 26 25 24 24 24 23 22 23 23
29 30 30 31 32 32 33 32 32 32 26 25 24 24 21 19 20 18 19 21 19 18 19 18 18 19 21 24 25 23 22 22 22 21 21 22 24 27 28 27 24 23 21
29 28 29 29 29 29 30 31 31 24 26 24 22 22 21 18 18 17 17 18 17 18 18 18 18 20 22 21 23 22 21 20 20 21 22 23 23 21 21 22 22 22 21
28 28 28 27 26 26 26 26 24 25 23 21 19 21 20 19 17 18 17 17 18 19 18 18 20 20 21 22 22 23 23 23 24 23 23 23 22 22 22 22 22 21 19
28 27 27 26 26 23 21 24 24 22 21 19 16 17 19 19 17 19 19 18 18 20 19 19 21 18 19 21 21 23 22 23 22 22 22 22 22 23 24 25 26 24 24
28 27 26 26 25 24 21 22 22 21 20 19 19 18 17 19 16 18 21 19 19 17 17 17 16 16 16 18 19 20 21 20 20 19 20 21 23 25 27 28 28 29 29
27 27 26 25 25 25 22 23 21 20 19 20 19 19 17 16 15 17 21 16 19 15 15 16 16 16 15 16 16 17 19 20 19 19 19 22 24 25 25 27 26 27 28
27 27 26 25 25 23 22 22 22 21 20 20 20 18 17 16 16 21 18 16 13 14 12 13 13 13 13 14 14 15 15 16 16 17 18 18 20 22 24 25 25 25 23
29 29 29 27 25 24 23 23 23 24 24 25 24 18 17 19 20 18 17 15 13 12 12 11 11 11 12 13 12 13 13 13 14 15 16 16 17 19 21 22 23 23 23
28 29 29 28 26 24 23 22 20 20 24 24 24 24 23 22 19 17 16 15 12 10 9 10 10 11 11 12 12 12 11 10 11 12 13 13 15 17 19 19 20 21 21
28 29 29 26 26 26 24 22 21 22 21 21 22 23 25 21 18 16 16 15 11 10 10 9 10 11 10 11 11 11 10 7 7 9 10 11 12 14 16 17 18 16 16
29 29 27 25 23 24 22 21 22 22 20 22 21 21 23 20 19 18 18 14 12 10 10 10 10 11 9 9 10 9 9 5 5 5 7 9 10 12 14 15 16 16 15
30 30 27 24 22 22 23 22 23 24 22 21 20 19 19 17 16 14 13 13 12 11 10 10 9 10 9 8 8 8 7 5 4 4 6 7 8 10 12 13 14 13 13
31 30 27 24 23 24 24 24 24 23 23 20 19 20 21 20 19 15 15 14 13 13 12 10 9 8 8 8 9 7 6 4 4 4 5 7 7 8 10 11 11 11 10
30 28 27 26 24 22 21 22 23 23 23 21 19 20 20 19 18 17 16 15 14 12 12 11 10 9 9 9 8 7 6 4 4 4 4 6 7 9 8 8 9 9 8
29 28 26 24 22 20 19 19 20 22 23 22 21 21 19 20 19 18 18 17 15 12 12 11 10 10 8 7 6 8 7 4 5 6 5 6 7 8 7 7 8 8 7
29 27 24 23 20 19 19 19 19 22 23 22 22 20 19 20 20 19 18 17 14 11 10 11 11 11 9 8 6 7 7 6 5 5 6 6 8 7 6 6 6 6 5
29 26 23 22 21 20 19 18 18 20 23 23 21 21 22 19 20 20 19 17 15 13 12 11 11 11 9 8 7 7 6 4 3 3 6 7 8 5 6 5 4 6 5
30 27 25 25 24 22 22 21 21 21 21 23 23 23 21 19 21 19 18 17 16 14 12 10 10 10 9 8 7 7 5 3 1 4 7 7 6 4 4 5 4 4 5

GFSGL_sfc_30mbdewp_024.txt.gz
Dewpoint
36 36 33 31 32 33 34 35 35 35 34 34 34 33 32 28 27 25 24 24 26 24 23 22 22 23 22 22 20 20 20 21 19 20 22 24 25 26 23 22 23 22 23
32 27 28 31 34 34 33 33 34 33 34 34 31 32 33 33 26 23 23 24 24 22 22 22 21 21 21 21 20 19 20 20 21 20 22 23 24 24 22 21 20 19 26
25 24 28 32 32 31 31 31 31 32 32 33 35 34 31 27 25 24 24 22 21 22 22 22 22 22 22 20 19 19 20 19 21 24 22 24 24 24 23 22 20 22 24
22 27 30 31 32 32 32 32 33 34 34 36 35 34 27 24 24 23 22 23 23 23 23 23 24 23 22 21 20 21 18 19 20 19 19 21 25 23 23 21 19 22 21
21 28 31 34 34 33 33 33 35 36 36 33 27 24 25 23 22 23 25 27 26 25 25 25 24 23 21 20 18 19 19 20 21 21 20 20 20 23 23 23 23 20 21
22 30 33 32 31 31 32 33 35 35 32 34 28 25 24 23 27 29 28 26 25 23 21 20 20 18 18 18 18 18 20 21 21 22 20 19 19 20 24 24 23 20 19
23 30 31 31 31 31 32 33 33 33 33 29 24 24 23 27 26 23 25 23 20 19 18 18 17 16 18 19 20 20 21 22 24 22 23 21 22 22 22 21 22 22 20
28 29 30 30 31 31 31 32 32 29 29 25 25 24 24 22 21 20 20 21 20 19 18 18 18 18 20 20 24 23 21 22 22 23 23 23 24 25 26 23 23 23 23
27 29 30 30 29 28 28 29 31 30 29 25 24 22 19 18 20 19 19 18 18 18 18 18 18 18 19 22 23 22 21 21 22 23 23 22 22 22 23 26 24 23 21
27 28 28 29 27 26 26 26 30 26 25 24 21 21 21 18 18 18 18 18 17 18 19 18 18 18 19 20 22 21 20 20 21 23 23 23 23 23 23 22 22 21 23
27 28 28 27 26 26 23 24 24 25 23 21 20 21 19 18 17 18 19 19 19 20 18 17 18 19 18 17 20 22 21 22 21 21 22 22 24 24 23 22 22 21 20
27 27 27 26 26 25 23 24 25 23 21 19 17 17 18 19 19 19 20 19 17 18 15 17 19 16 15 16 18 19 19 20 20 20 20 20 22 23 25 26 25 23 22
28 27 27 27 26 25 23 22 22 21 20 19 19 18 18 19 18 18 21 20 16 17 15 15 15 14 14 16 15 16 18 18 18 17 17 19 21 24 26 27 29 27 27
27 27 27 26 26 25 24 22 22 21 20 20 20 19 18 17 16 16 20 18 15 16 14 13 13 14 13 14 14 15 15 16 16 16 16 18 21 22 24 26 25 27 26
27 27 27 27 29 25 22 22 22 22 21 20 20 20 17 17 16 20 18 16 13 13 11 11 11 10 10 12 12 12 13 11 12 14 15 15 17 18 21 24 24 24 23
29 29 29 29 29 27 24 23 24 24 24 25 25 21 18 19 21 21 17 16 14 12 9 10 9 8 8 11 11 11 10 8 9 12 13 13 14 16 18 20 21 22 22
29 29 29 29 28 27 25 24 22 21 24 25 25 25 24 21 22 19 17 16 13 12 8 8 8 8 8 9 11 10 9 7 8 9 11 11 12 14 16 18 18 17 17
30 30 29 29 28 27 27 25 24 21 20 20 21 23 24 25 23 19 17 16 12 11 10 9 8 9 9 8 9 9 8 6 4 5 8 8 10 12 14 15 15 15 15
30 30 30 29 27 25 24 24 23 21 21 21 20 21 21 24 22 20 19 15 13 12 10 10 9 9 10 8 7 7 5 5 3 3 5 7 7 9 12 13 14 12 12
31 31 30 28 26 24 24 23 23 22 23 22 20 19 18 18 19 17 12 12 13 13 12 11 10 10 9 8 7 7 6 5 3 3 4 6 6 7 9 10 11 11 11
30 30 29 28 26 25 23 22 23 23 23 23 20 17 17 20 20 18 17 14 14 14 13 12 11 9 8 7 7 7 7 5 3 4 4 6 6 7 8 8 9 10 10
28 29 28 27 26 25 25 22 21 22 22 22 21 20 18 18 19 19 18 16 14 13 13 12 12 11 10 9 9 7 7 6 2 3 3 5 6 7 7 7 7 7 7
29 29 28 27 25 25 22 20 18 18 19 20 21 21 19 18 18 18 18 17 15 14 12 10 11 11 10 7 6 7 7 7 4 4 3 5 6 7 7 6 7 7 6
29 29 28 26 23 22 21 20 18 18 18 19 21 21 20 19 18 18 18 17 16 14 11 10 11 12 11 9 6 5 7 6 5 4 3 5 6 7 5 6 5 6 5
29 29 28 25 23 22 21 20 19 18 18 19 21 22 21 21 20 19 18 18 17 15 14 10 10 11 11 11 8 7 7 6 3 1 3 5 6 5 4 6 4 5 5
28 28 29 27 24 23 24 23 22 22 22 22 22 22 21 21 21 20 19 18 17 16 16 13 10 10 11 10 8 7 6 5 2 0 4 5 5 5 4 6 5 4 5

GFSGL_sfc_30mbdewp_027.txt.gz
Dewpoint
37 36 32 31 33 34 34 35 35 35 32 34 35 35 34 31 31 33 29 26 26 25 26 25 23 24 23 22 21 19 18 16 15 14 14 15 16 19 20 21 21 25 24
29 27 29 32 33 31 31 31 32 31 33 34 34 33 33 34 32 32 26 26 25 25 23 23 23 22 22 22 20 19 18 17 16 15 14 14 18 18 20 22 23 23 22
24 24 27 31 31 31 31 31 31 32 34 35 34 35 35 34 27 26 26 24 23 23 24 24 23 23 21 19 18 17 17 18 19 17 14 14 14 15 18 20 20 22 22
22 24 29 32 33 32 32 31 32 34 36 36 36 32 31 26 25 24 23 24 26 25 24 23 21 20 18 17 18 18 18 20 18 16 14 14 15 15 24 20 18 19 19
24 24 30 34 34 32 31 32 33 35 35 33 30 27 26 25 23 26 27 25 23 20 19 17 16 17 19 18 17 17 17 16 17 18 16 14 13 12 13 15 18 21 26
23 24 32 34 32 31 32 33 33 34 33 32 30 28 25 25 29 25 24 22 19 16 14 14 14 15 15 17 18 19 20 20 21 17 15 19 13 22 15 16 18 21 19
23 27 31 32 30 31 31 30 29 33 32 30 27 25 25 25 23 21 21 20 17 15 14 14 14 14 16 16 16 19 23 20 20 22 20 18 17 15 16 20 20 20 20
24 29 30 30 30 30 29 27 28 32 30 30 27 25 24 20 21 20 20 17 16 15 15 15 15 15 15 17 22 18 18 15 17 22 24 22 20 20 19 19 25 24 19
27 28 29 30 29 28 27 26 27 29 31 27 25 23 20 18 19 19 19 19 18 17 17 16 16 15 17 20 19 18 16 14 17 17 20 22 23 24 23 22 21 22 19
26 27 29 29 29 27 27 26 25 29 27 25 23 21 20 19 18 18 19 20 19 17 17 14 14 17 19 18 16 17 17 17 16 17 17 19 21 23 24 23 19 17 16
27 28 28 29 28 27 26 24 24 25 26 25 23 22 20 20 19 18 20 20 18 17 15 12 12 16 15 14 15 17 19 18 18 18 18 17 18 20 23 25 24 21 17
28 28 28 28 27 26 26 24 24 25 24 23 22 22 21 23 20 19 19 21 19 17 16 14 14 14 14 14 15 16 16 17 18 18 18 18 19 20 22 25 28 28 24
27 28 27 28 27 26 25 24 23 23 23 23 22 22 21 22 21 19 19 22 19 16 17 13 13 13 12 12 13 14 14 14 16 16 16 17 20 23 25 28 29 30 28
28 28 27 27 27 28 27 24 22 23 23 22 23 22 21 21 21 19 20 21 18 16 15 12 13 12 10 12 12 11 10 11 14 15 16 18 20 21 22 26 26 27 28
28 28 29 28 28 28 28 24 23 24 24 24 23 23 23 23 22 20 21 20 18 16 12 12 10 9 6 7 9 8 7 7 11 14 15 15 17 18 20 22 23 25 24
27 28 28 29 29 29 28 26 24 24 24 24 25 25 26 23 21 21 21 18 16 14 12 12 10 10 8 6 8 7 7 4 8 12 14 14 15 17 17 19 19 20 21
27 28 29 29 29 28 28 27 26 26 24 24 26 26 26 26 23 23 21 18 16 14 13 12 13 12 9 7 6 5 4 5 5 9 12 12 14 15 17 17 17 17 17
28 29 30 30 30 29 29 28 27 26 25 24 24 23 24 24 26 24 22 18 17 15 14 13 13 13 11 8 6 6 6 6 5 4 10 11 12 13 15 15 15 15 14
27 29 29 30 30 29 29 28 27 26 26 23 23 22 23 24 25 25 23 20 19 17 16 14 14 13 12 11 10 10 10 8 6 5 7 10 11 10 12 13 14 14 13
28 29 29 28 29 28 28 27 26 26 25 24 23 23 23 19 22 23 23 22 20 19 18 16 15 14 14 13 12 11 10 9 6 4 6 9 10 10 10 12 12 13 12
27 27 27 29 29 27 27 27 26 25 24 24 23 25 22 20 21 22 23 22 20 20 20 19 17 17 16 15 13 11 10 10 8 5 5 8 9 9 8 10 11 11 11
28 27 27 27 28 28 27 26 27 25 23 23 23 24 21 20 22 22 23 23 23 21 21 21 19 17 16 15 14 13 11 10 10 6 5 7 9 8 8 8 9 9 9
29 29 28 27 28 28 27 26 26 25 24 23 22 23 23 23 23 23 22 23 23 22 21 20 20 18 18 16 16 14 12 11 11 8 5 7 8 8 8 8 7 7 7
29 29 28 27 27 27 26 25 25 24 24 23 23 23 23 24 24 23 23 24 23 23 22 19 18 17 17 17 16 14 12 12 11 8 6 7 8 8 7 7 8 8 7
27 27 27 28 28 27 26 25 24 25 25 24 23 23 23 24 25 24 24 24 22 22 21 18 17 17 16 15 15 14 12 11 10 6 5 7 8 8 7 6 8 7 7
26 27 28 28 28 27 26 26 26 26 25 25 25 26 26 26 26 25 25 24 23 21 21 21 19 16 16 16 15 13 10 9 8 3 4 7 7 7 7 7 8 8 6

GFSGL_sfc_30mbdewp_030.txt.gz
Dewpoint
33 34 31 26 26 26 25 25 26 27 26 25 27 28 28 29 31 31 31 30 27 26 24 24 24 23 21 20 19 18 17 16 14 15 14 15 15 16 16 19 19 20 19
30 27 25 24 24 24 25 25 27 27 27 28 30 30 29 30 31 33 30 26 26 24 23 23 22 20 20 19 17 16 15 16 17 16 15 16 15 15 15 16 16 16 18
23 22 21 23 25 24 26 27 28 28 28 30 30 31 31 31 32 27 26 27 25 24 25 24 22 21 18 16 16 15 15 17 18 18 17 16 15 15 15 17 22 23 19
21 19 21 24 26 28 28 29 28 28 29 29 29 29 29 27 27 25 25 24 25 23 23 21 19 16 15 16 16 15 15 16 16 16 15 15 15 15 16 14 14 18 21
20 21 22 26 30 29 29 28 28 29 30 29 29 31 30 28 24 27 26 24 22 20 18 15 14 16 17 17 16 16 16 16 17 16 16 15 14 13 17 14 15 14 13
21 22 22 27 29 28 28 27 27 27 28 29 29 27 27 25 26 24 22 20 20 17 14 13 14 14 15 16 18 18 18 18 21 20 19 17 16 13 15 20 15 18 17
21 21 24 28 27 26 25 25 25 26 28 28 28 29 27 27 23 22 21 18 17 15 15 14 14 13 15 15 16 18 22 20 24 20 17 18 20 19 18 18 14 15 18
20 22 25 26 25 24 25 26 26 26 26 27 27 27 26 24 21 20 20 18 18 17 16 16 15 14 13 17 17 18 17 15 14 15 17 18 17 19 21 23 19 18 18
20 22 23 25 25 24 25 26 27 25 25 26 27 26 25 23 20 19 19 19 20 19 17 16 15 12 15 18 17 14 13 12 14 15 17 18 19 21 23 21 19 18 18
21 22 24 25 25 24 26 27 26 25 24 25 25 26 23 23 20 19 19 21 21 19 17 16 13 13 15 16 15 15 16 16 13 15 16 16 17 17 21 23 21 19 16
24 25 25 24 24 25 27 26 25 24 24 26 26 25 24 23 22 19 19 21 21 19 17 16 14 14 14 14 14 15 16 15 15 16 17 17 18 18 20 21 26 26 21
26 25 23 24 25 25 26 26 25 24 25 26 29 27 25 25 23 21 20 20 20 19 18 17 17 13 14 12 13 14 14 16 16 18 19 18 18 20 23 26 29 28 28
24 24 24 26 26 26 25 25 25 24 23 24 23 23 22 24 24 22 20 20 21 20 18 17 14 13 11 10 11 13 11 13 15 16 17 17 19 21 24 27 28 31 29
25 25 25 26 25 25 24 25 25 24 24 23 22 21 22 23 22 22 22 22 22 20 18 16 15 14 12 9 11 10 11 9 13 17 17 18 19 21 22 24 25 27 30
25 25 26 26 26 24 24 25 25 25 24 24 23 23 23 24 25 23 22 21 21 19 17 17 15 14 11 8 9 9 10 7 8 14 16 16 17 17 19 22 22 23 25
26 26 26 26 25 25 25 25 27 25 25 24 25 24 25 26 26 23 21 22 19 17 16 16 16 17 15 12 10 9 9 8 6 7 12 13 15 17 17 19 20 20 22
26 26 26 26 26 25 25 26 26 27 26 26 27 26 27 27 27 25 24 23 20 17 17 17 17 17 16 13 10 9 8 8 9 7 8 11 12 13 17 17 17 17 17
27 26 26 26 28 29 30 29 28 28 26 27 28 25 25 26 25 26 24 23 20 20 18 17 17 17 15 12 10 9 9 11 10 8 9 11 12 11 12 12 15 16 15
26 26 27 30 30 28 29 29 29 29 27 26 26 26 25 24 25 25 25 25 20 19 18 17 17 17 16 14 14 14 13 12 11 10 10 10 11 11 10 10 12 12 12
26 27 27 25 26 26 28 29 28 28 28 27 25 23 22 25 25 24 25 25 23 21 20 19 18 17 18 17 16 16 15 13 12 9 9 10 11 11 10 9 11 10 10
27 26 26 26 26 25 26 27 26 27 28 27 25 27 25 24 24 22 23 26 24 22 22 21 20 19 19 19 17 16 15 15 13 10 9 9 10 11 9 9 9 9 9
30 30 30 30 30 27 26 27 29 28 28 28 26 25 25 26 25 24 24 25 26 26 25 24 22 20 19 18 17 17 16 15 14 13 10 8 10 11 10 9 9 9 8
32 31 29 29 28 27 27 28 28 29 28 28 28 25 25 26 26 24 25 26 27 26 26 25 24 23 21 20 20 18 17 15 15 14 10 9 10 10 10 9 9 8 8
30 29 28 29 29 29 29 29 28 28 28 28 29 29 28 27 28 28 27 28 28 28 28 26 25 24 22 21 21 19 18 16 15 14 11 8 9 9 9 7 8 9 8
28 28 27 27 28 29 29 28 27 28 28 28 28 28 28 29 28 28 29 29 28 28 27 27 26 24 23 21 20 19 18 15 14 13 11 8 9 9 9 7 8 8 8
28 26 26 27 28 28 28 28 27 28 27 28 28 29 29 29 29 30 30 30 29 28 28 27 25 24 23 21 20 19 17 14 13 10 11 8 9 9 8 8 7 8 7

GFSGL_sfc_30mbdewp_033.txt.gz
Dewpoint
33 35 34 30 27 27 26 26 25 26 26 25 25 26 27 26 26 30 30 32 30 29 27 28 28 27 26 24 20 19 18 16 15 16 16 17 18 19 19 19 19 20 20
33 31 32 28 25 25 25 24 26 27 26 25 26 27 27 28 30 31 30 27 28 27 27 27 25 23 19 18 17 15 16 15 15 14 16 18 18 18 19 18 17 16 19
32 29 25 24 25 25 23 25 27 27 25 25 27 27 27 27 28 28 27 27 27 27 26 25 20 18 18 16 16 16 15 14 15 18 18 18 17 17 16 17 17 17 17
27 26 21 23 26 24 25 27 27 26 26 27 27 27 27 27 26 26 26 25 26 24 20 19 18 17 16 17 16 16 15 15 15 16 17 15 17 19 19 17 18 19 17
31 22 21 24 25 25 27 28 27 26 27 27 26 27 28 28 26 27 25 24 20 18 18 17 15 16 17 17 16 15 16 16 17 16 16 20 20 17 17 16 16 17 20
26 22 23 22 23 25 26 27 25 24 25 26 26 27 26 25 26 23 22 22 20 17 16 15 15 16 15 16 17 19 19 17 19 22 17 19 16 15 20 22 21 19 16
21 22 22 21 24 24 24 23 23 24 26 26 26 27 29 28 24 22 21 20 19 18 18 17 16 13 15 16 16 16 17 18 20 19 19 21 21 18 18 18 17 21 20
22 21 19 22 23 23 22 22 24 25 25 25 26 28 29 26 23 21 21 20 19 19 19 18 16 15 16 17 16 16 14 12 12 13 15 16 16 16 16 17 18 19 19
21 19 19 20 21 22 22 22 24 25 25 25 25 28 26 26 23 21 19 20 21 20 20 17 17 15 16 16 14 14 13 12 12 14 14 17 19 21 21 21 22 19 20
18 19 20 20 22 22 22 23 25 25 24 23 23 24 25 25 23 21 20 21 22 21 19 17 16 15 16 15 15 14 14 14 11 12 15 17 17 20 21 24 24 24 21
18 21 21 22 22 22 23 24 25 24 24 26 28 27 26 26 25 22 20 20 22 21 19 17 17 18 15 14 14 14 16 15 14 17 18 18 19 19 20 21 23 26 25
24 23 22 20 20 22 24 25 25 24 25 26 29 29 28 27 25 23 22 21 20 20 20 19 20 18 15 14 13 13 14 14 16 18 19 18 19 19 21 23 27 30 32
22 22 22 23 24 25 24 24 23 24 24 26 26 30 29 26 27 25 23 21 21 22 21 20 19 17 15 14 11 12 15 13 12 14 18 17 19 20 22 24 26 28 30
23 23 23 24 24 25 25 24 22 25 27 26 27 27 25 24 24 27 26 24 23 24 23 22 19 18 17 17 15 13 13 13 10 11 14 16 19 19 20 22 24 24 26
22 24 25 26 26 25 24 23 24 26 28 28 29 28 28 27 24 25 27 26 25 24 20 19 18 18 17 16 14 14 13 12 11 9 11 13 12 15 18 20 22 22 23
25 25 27 27 26 26 25 24 26 26 27 26 25 26 30 27 26 26 24 22 22 21 19 18 18 20 19 18 16 14 14 13 12 11 11 11 12 12 13 18 19 20 20
26 26 26 26 26 25 26 27 27 27 28 27 26 26 26 27 27 27 26 24 24 22 19 18 19 20 19 16 15 13 12 12 13 12 11 12 12 12 13 13 15 16 16
27 27 27 26 26 27 27 27 28 29 29 29 30 28 28 27 27 27 27 26 23 24 20 18 18 19 19 16 14 14 15 15 15 13 13 13 14 13 12 11 11 13 12
27 27 28 29 30 28 28 28 28 28 28 28 29 29 30 28 27 27 26 24 22 22 22 23 21 19 18 18 17 19 19 17 16 16 14 13 14 13 12 10 12 12 12
26 27 27 28 28 28 29 27 28 28 28 28 28 28 29 29 28 26 27 26 25 24 23 23 21 19 19 19 20 20 19 19 18 16 14 14 14 14 13 11 11 10 10
28 29 29 29 30 30 30 30 28 28 28 27 28 30 31 26 27 27 27 27 27 25 25 24 25 24 23 22 21 19 19 18 17 16 15 14 13 14 14 12 11 10 9
30 30 31 32 31 32 30 30 29 27 27 27 28 29 30 28 26 26 27 27 27 28 28 26 26 25 24 22 21 21 19 19 18 17 17 14 12 14 15 13 12 10 10
30 32 32 32 31 30 29 30 29 29 29 29 28 28 31 30 28 27 26 28 28 28 28 28 28 26 26 26 25 22 20 18 18 18 16 13 12 13 13 13 11 11 10
29 31 31 30 29 27 27 28 30 30 30 28 29 29 30 31 30 30 30 30 29 29 30 29 27 26 26 26 26 23 21 20 19 17 15 13 12 12 12 10 10 10 10
32 31 30 28 28 27 28 28 29 29 30 29 29 29 29 30 30 31 31 31 31 31 30 30 30 28 26 26 25 23 21 20 18 16 16 13 12 11 10 10 10 9 10
29 30 30 30 27 27 28 27 27 28 28 28 29 29 29 29 29 30 31 31 31 31 31 31 30 29 28 28 25 24 22 20 17 16 15 13 12 12 12 11 9 9 9

GFSGL_sfc_30mbdewp_036.txt.gz
Dewpoint
37 37 37 36 33 30 30 29 27 28 28 28 27 28 29 29 32 31 33 32 31 31 30 30 30 29 29 28 26 24 21 20 18 17 17 19 20 21 21 22 21 20 20
36 38 36 33 33 31 29 28 28 28 29 28 27 27 29 29 29 29 31 31 29 28 28 28 27 25 24 22 21 20 20 18 17 16 17 18 19 20 20 20 19 18 19
35 34 33 34 28 27 29 27 28 28 28 27 27 29 29 28 27 28 28 29 29 28 28 27 25 21 20 20 20 17 18 17 18 17 17 18 19 19 19 22 21 22 21
33 33 30 28 28 28 27 27 29 29 28 28 29 29 29 29 28 28 27 28 27 25 24 22 20 20 18 17 16 16 16 17 17 18 18 17 18 20 21 18 19 21 20
34 30 30 28 26 27 27 29 30 29 28 28 28 29 28 28 28 28 26 25 24 22 21 20 18 18 17 18 16 17 18 19 18 17 17 19 18 16 16 21 23 24 21
33 31 28 26 24 25 27 29 29 28 27 28 28 28 28 27 26 25 23 22 23 22 20 20 19 18 18 20 21 20 18 18 18 19 20 19 19 21 23 19 18 18 17
30 29 25 24 23 25 25 25 25 25 28 28 29 29 29 30 26 24 21 21 22 22 21 21 19 16 20 18 17 17 16 17 19 19 18 21 23 18 17 17 17 18 18
26 26 25 21 23 24 25 25 25 26 28 28 28 28 29 30 27 24 21 20 22 22 22 21 20 19 19 18 17 15 16 15 15 15 16 15 16 18 20 20 20 21 22
25 24 21 21 24 27 25 24 26 26 27 28 27 27 29 29 26 24 20 21 23 23 22 22 20 18 19 18 16 16 16 15 15 14 13 15 18 21 22 23 24 22 21
26 25 23 24 25 24 24 25 26 27 27 27 27 28 27 28 26 24 21 22 23 24 24 21 19 17 17 17 16 16 16 16 15 13 16 19 20 21 22 22 24 22 23
26 26 28 30 26 24 24 25 25 26 27 28 28 28 28 28 26 25 23 22 22 23 22 21 22 20 20 18 16 16 16 17 15 17 18 19 21 21 20 21 23 24 25
28 28 26 26 24 22 25 26 27 27 27 28 29 29 30 29 28 26 25 23 22 21 21 22 23 21 19 18 16 16 14 17 17 16 17 18 19 20 21 22 24 25 26
27 28 26 26 25 25 26 26 27 26 26 27 28 29 30 30 29 28 26 24 23 21 23 24 23 21 20 19 18 15 15 16 17 13 14 15 17 20 21 22 23 24 25
28 27 25 25 26 27 27 26 26 27 26 27 28 29 28 28 28 31 28 26 24 23 23 24 25 22 19 19 19 20 18 17 14 13 13 14 16 17 17 20 21 22 23
25 25 26 27 28 28 27 26 26 26 27 27 28 29 30 30 28 27 30 30 28 27 25 22 20 21 20 19 19 18 17 17 15 14 13 14 15 15 15 17 20 20 20
26 27 28 29 29 28 28 27 27 27 26 26 27 27 30 32 29 27 26 26 24 23 20 20 20 20 21 20 19 19 16 16 15 14 15 14 15 15 15 16 17 18 18
28 28 28 28 28 28 27 28 26 27 29 29 28 28 27 26 29 27 27 26 25 24 21 20 20 21 22 21 19 17 15 15 15 16 14 15 16 16 16 15 15 16 15
28 28 28 28 29 30 28 28 28 28 27 27 29 29 29 28 28 27 28 29 26 25 24 22 21 21 21 21 19 17 18 18 18 18 15 16 15 16 16 15 13 15 14
28 29 29 30 31 31 30 30 29 28 28 28 28 28 30 31 30 29 28 27 25 24 24 24 21 21 23 21 19 19 19 19 18 16 16 17 15 17 15 16 13 13 13
28 28 28 30 31 32 30 29 29 29 28 28 28 28 28 30 29 27 27 26 25 24 23 25 25 23 24 22 21 21 21 20 19 20 19 15 15 15 15 17 14 12 12
29 29 29 30 31 31 31 31 30 31 29 29 27 29 29 29 30 29 27 26 26 25 25 24 24 24 24 24 22 21 21 20 19 18 18 16 15 13 16 16 15 14 12
29 29 29 29 30 31 30 30 29 28 28 29 27 28 28 30 30 30 29 28 30 29 28 27 26 25 25 25 24 23 21 21 20 19 17 17 13 14 15 15 15 13 13
27 28 29 30 30 29 29 29 27 27 27 28 30 30 29 29 30 30 29 28 29 30 29 28 28 27 26 26 26 24 23 22 21 19 18 17 14 14 14 13 13 12 11
24 25 27 28 30 29 29 28 28 27 27 29 30 30 29 28 30 30 31 31 30 30 30 31 30 29 28 28 27 26 24 23 22 19 17 15 14 13 13 12 10 11 11
24 24 25 27 27 28 29 28 28 27 27 28 28 29 30 30 29 30 30 31 31 31 31 31 31 30 30 29 29 27 24 22 22 19 17 15 13 12 11 11 10 10 10
23 24 27 28 28 28 27 25 25 24 23 23 23 24 24 25 26 29 30 30 30 30 30 31 31 31 30 30 29 28 25 23 21 18 18 16 14 12 12 13 12 9 10

GFSGL_sfc_30mbdewp_039.txt.gz
Dewpoint
39 37 38 36 35 31 31 32 30 30 29 28 28 27 27 29 31 30 31 31 31 30 30 29 29 28 28 27 24 22 20 18 16 18 19 20 19 20 20 21 22 21 21
38 38 36 34 33 31 32 31 29 29 30 28 28 27 29 31 28 28 30 30 28 28 28 27 27 26 20 22 21 18 17 18 17 16 18 18 19 20 20 20 21 22 21
38 36 34 34 32 32 32 33 30 30 29 28 28 28 30 30 27 28 27 29 29 28 28 26 24 20 20 19 17 16 16 16 17 17 17 18 19 19 20 22 21 20 22
34 33 33 33 31 31 31 30 30 30 28 28 28 29 31 30 28 29 28 28 26 23 23 22 21 19 16 15 16 15 16 17 18 18 17 17 18 19 20 18 21 22 22
34 33 32 33 33 33 33 31 31 29 28 28 28 30 30 29 29 29 27 25 23 23 22 21 20 22 22 19 16 17 19 18 18 18 17 18 18 18 19 24 19 18 18
32 32 34 35 35 29 29 29 29 29 28 28 29 29 29 28 27 27 24 23 22 21 20 22 21 19 21 22 20 20 19 17 17 19 18 18 17 21 23 18 17 17 16
32 32 32 30 28 28 27 26 26 25 27 28 28 30 29 29 28 26 23 21 21 21 22 22 20 21 19 17 17 17 16 15 17 18 16 17 15 16 17 18 18 19 19
30 31 32 31 27 27 26 27 27 28 27 29 28 28 28 31 29 27 23 21 21 22 23 22 21 20 19 18 17 16 16 16 16 16 17 15 16 18 20 21 21 23 23
28 26 27 28 28 28 27 28 28 26 27 28 29 27 28 30 29 27 22 20 22 23 23 23 23 19 20 19 17 16 16 16 15 16 15 18 20 21 22 25 23 21 19
29 29 30 29 28 28 31 29 28 28 27 28 28 28 27 28 29 26 23 22 22 23 23 23 20 18 18 19 18 15 14 14 17 16 16 18 20 21 22 22 21 21 21
30 30 28 30 30 31 29 28 26 26 26 26 28 28 28 28 27 28 26 22 22 22 23 22 21 20 21 20 19 17 16 17 18 17 17 18 19 20 20 21 22 23 22
28 29 29 30 29 28 26 26 27 27 26 27 28 29 29 29 28 28 27 25 23 22 21 21 22 24 22 21 20 20 19 19 16 15 16 14 16 16 18 20 22 23 23
28 29 29 28 27 27 26 26 27 26 26 26 27 27 28 29 30 29 28 27 25 22 21 21 23 24 23 23 22 21 20 16 14 15 13 14 14 16 19 19 20 20 23
28 28 28 27 26 27 28 28 27 26 26 27 26 26 27 29 29 29 28 28 27 25 22 22 24 24 23 21 20 20 20 19 16 15 13 13 15 16 16 17 18 19 21
28 28 26 27 27 28 29 28 27 27 26 25 26 26 26 27 30 32 30 27 26 25 23 23 24 21 19 20 21 20 19 17 16 14 12 14 15 16 15 17 17 18 18
26 26 26 27 28 28 28 28 29 28 28 27 28 28 27 29 30 31 32 31 30 28 25 23 21 18 18 19 20 19 18 18 16 14 14 14 15 15 16 17 17 16 16
26 26 27 28 27 27 28 28 27 27 27 28 29 29 29 29 28 32 31 30 31 28 22 20 18 18 18 19 22 20 18 16 15 16 16 14 15 15 15 16 15 14 14
28 28 28 28 28 28 28 28 28 27 27 26 28 28 29 29 30 29 30 31 27 27 23 21 20 19 19 21 22 20 18 17 17 17 16 13 14 14 15 14 16 13 13
30 29 29 29 29 29 30 30 31 31 29 27 27 27 28 29 29 30 31 29 25 24 23 23 22 21 21 21 21 20 17 17 17 16 15 14 17 14 13 13 16 14 12
28 28 27 28 28 29 30 32 31 30 29 29 28 28 27 27 28 29 29 29 26 25 24 23 24 23 22 22 23 22 18 18 17 16 16 18 15 14 12 12 15 14 13
24 25 26 25 26 28 28 28 30 30 29 30 27 27 27 28 29 29 28 27 27 26 25 24 23 25 25 24 24 24 22 20 19 18 19 16 14 13 11 13 14 15 13
24 22 22 22 23 24 26 27 29 27 28 27 26 27 27 28 29 29 29 28 27 28 27 26 25 25 24 24 24 22 21 20 19 18 17 16 15 13 12 14 13 12 11
18 19 22 23 23 24 25 27 28 27 27 26 26 27 28 29 29 28 29 30 30 30 29 28 27 27 26 25 25 24 22 21 19 19 18 16 15 13 12 13 12 10 10
21 21 21 21 21 25 25 26 26 27 27 26 27 26 26 28 28 29 29 30 31 30 31 30 30 29 28 27 27 26 25 24 22 20 19 16 15 13 12 11 10 10 9
16 17 15 15 17 18 21 21 22 22 21 21 20 20 20 21 22 24 25 27 30 31 30 30 31 30 30 29 29 28 27 25 24 20 18 16 14 12 11 10 9 10 9
12 13 10 11 12 14 15 16 17 16 16 16 16 16 18 18 19 19 20 19 19 21 29 30 31 31 31 30 30 29 27 26 24 21 18 16 13 11 11 10 10 10 9

GFSGL_sfc_30mbdewp_042.txt.gz
Dewpoint
40 39 39 40 39 37 36 33 32 32 32 33 32 27 27 29 32 30 30 31 30 30 29 29 28 28 27 23 23 21 18 18 15 17 18 19 19 19 20 21 22 21 22
39 37 38 38 35 34 33 32 33 32 33 33 29 27 29 30 29 28 29 30 29 28 28 28 27 26 21 22 20 18 17 17 17 14 17 17 18 19 20 20 21 21 21
38 37 36 34 32 33 34 34 33 31 31 29 28 28 29 30 29 29 28 29 29 28 26 21 22 22 19 21 18 17 17 16 17 17 17 18 18 18 19 21 21 20 23
38 36 35 34 33 33 33 32 31 31 29 28 28 29 30 31 30 29 28 29 29 24 23 22 21 20 18 16 16 16 16 17 18 18 18 18 18 19 20 19 20 21 18
37 36 37 35 34 34 34 32 32 30 29 28 29 29 30 31 30 29 29 27 25 24 23 22 21 21 24 21 17 17 19 18 17 17 17 18 18 17 18 21 22 17 17
37 36 37 36 32 30 30 31 31 30 29 28 26 29 29 30 29 29 29 26 24 22 21 21 22 22 21 22 22 21 20 17 15 16 17 16 15 17 17 17 17 17 17
35 36 33 31 30 31 30 29 28 27 27 26 29 29 29 31 29 29 28 24 22 22 21 22 21 21 22 19 19 19 17 17 15 17 16 16 15 14 16 17 19 20 20
34 33 30 30 30 31 32 30 32 29 28 28 28 29 30 29 30 30 28 23 22 21 23 23 22 21 20 18 17 16 17 16 15 16 17 17 16 19 21 23 24 24 24
29 30 32 31 32 33 35 35 33 31 28 28 29 29 29 28 30 31 27 22 21 22 23 24 23 22 21 21 18 17 17 15 14 16 17 18 18 19 21 22 21 20 18
33 34 34 35 36 35 33 31 30 30 28 28 27 28 29 28 30 31 27 24 22 23 23 24 23 20 21 20 19 18 16 14 14 17 17 17 18 19 20 21 21 20 19
33 35 37 34 32 31 30 29 27 27 27 26 27 28 28 29 28 31 30 24 23 23 23 23 22 22 21 21 22 20 17 16 18 19 17 17 17 18 17 18 20 21 20
34 31 30 29 29 28 28 27 27 27 27 27 26 26 27 29 29 29 30 29 24 22 23 23 23 23 23 24 23 22 22 21 20 18 16 15 15 14 16 18 19 21 22
28 28 28 28 28 28 27 26 26 27 27 26 26 26 26 27 29 30 29 30 28 24 24 24 22 23 24 24 24 24 22 21 19 16 15 15 14 15 17 18 18 19 20
27 27 28 28 26 27 27 27 28 27 26 26 26 25 26 26 27 28 29 29 30 29 24 25 24 23 24 23 22 21 21 21 19 17 15 14 14 15 15 17 17 18 18
27 27 27 26 26 26 27 28 28 28 27 27 26 26 25 25 26 28 29 29 29 29 27 24 23 22 22 23 21 20 21 20 19 17 15 12 14 16 15 17 17 17 16
27 27 27 27 26 26 27 27 28 28 29 29 29 27 26 28 28 29 31 32 31 29 25 23 22 21 21 21 19 18 19 19 18 16 13 14 14 15 15 16 17 15 14
29 29 28 28 28 27 27 27 27 28 29 29 29 28 31 30 29 30 30 32 32 31 25 22 22 20 20 20 19 20 19 20 18 16 15 15 13 15 15 15 15 15 14
28 28 28 27 27 28 28 28 29 29 28 29 30 31 32 30 29 29 30 31 29 29 26 23 21 20 19 19 19 20 20 20 16 15 16 15 12 15 15 13 14 15 14
24 25 25 25 26 25 26 27 26 28 29 28 30 29 29 28 29 29 30 30 28 26 26 23 22 21 20 20 20 19 19 18 16 15 15 14 13 16 14 12 12 15 14
24 24 24 23 22 21 22 22 23 23 26 28 28 27 27 26 25 25 27 29 29 28 25 25 24 23 22 21 21 20 19 18 17 16 15 14 14 15 14 11 12 14 14
16 17 18 20 21 22 20 22 23 23 24 25 28 29 28 26 26 26 27 28 29 28 27 26 25 24 23 22 22 22 21 21 20 18 16 16 15 15 13 11 13 13 12
18 19 19 20 19 20 19 22 24 24 26 26 26 26 25 25 25 26 26 29 28 28 28 28 26 25 24 24 24 23 23 22 20 19 17 16 15 14 12 12 13 11 11
16 16 15 13 15 15 16 19 19 18 21 24 25 24 24 22 23 24 27 28 29 30 30 29 28 27 26 26 26 25 22 22 21 19 18 16 15 14 12 11 12 10 10
12 13 10 10 11 11 13 13 14 14 15 15 16 16 17 18 18 20 21 20 20 21 28 30 28 28 28 27 27 27 26 24 23 20 19 17 16 14 12 11 11 9 9
9 10 7 7 8 8 9 10 10 10 10 11 12 13 13 15 14 13 15 15 16 17 18 21 30 30 29 29 28 28 27 27 26 24 22 19 17 15 12 11 10 9 8
8 7 6 5 6 5 6 6 6 7 7 8 9 10 10 12 10 10 11 11 13 14 16 17 20 28 30 30 30 29 28 27 26 24 22 20 17 15 12 11 9 9 9

GFSGL_sfc_30mbdewp_045.txt.gz
Dewpoint
46 43 43 42 40 40 38 37 37 37 34 34 38 35 33 30 32 31 30 31 31 30 30 30 29 29 28 26 24 22 20 19 16 16 18 18 18 18 18 20 21 21 22
43 42 42 41 40 39 37 36 35 34 37 39 36 32 29 30 31 30 29 30 29 28 28 28 27 28 23 22 22 20 18 18 16 14 16 17 18 18 18 19 20 21 21
43 42 42 41 38 38 36 35 37 38 35 33 31 29 29 30 31 30 29 30 29 29 29 28 24 24 21 21 21 19 17 17 17 17 17 18 18 18 18 20 20 21 22
41 40 40 38 38 38 37 36 34 33 30 29 29 29 29 30 30 30 29 28 29 29 28 23 22 21 20 19 18 17 16 16 17 18 18 16 17 18 19 19 18 19 18
40 40 39 37 36 35 34 33 33 31 30 30 29 30 30 31 31 31 30 29 29 28 25 24 22 22 21 19 18 17 16 18 18 16 15 15 16 15 17 17 17 16 18
41 39 37 36 34 34 34 32 30 30 29 31 34 30 29 31 30 30 30 29 28 26 24 23 22 24 25 24 25 21 20 17 16 15 14 13 14 16 16 16 17 18 16
38 37 34 33 33 33 33 34 34 36 37 36 32 30 29 29 30 31 31 29 27 25 23 22 21 21 22 23 25 23 20 19 19 16 13 14 16 16 16 18 19 20 20
32 32 33 33 33 33 34 37 37 37 35 30 29 28 29 29 30 30 30 29 25 24 23 22 22 22 22 21 18 17 17 17 17 14 15 17 17 18 19 21 23 22 21
32 32 33 35 35 37 37 38 37 33 30 28 28 29 28 28 29 30 31 28 24 23 23 24 23 24 23 24 20 18 18 18 16 15 17 18 19 18 18 18 18 19 16
32 33 34 36 39 38 37 32 31 30 29 28 27 27 27 27 28 29 32 28 25 24 23 23 25 25 23 24 22 19 18 18 15 14 16 17 17 18 18 18 19 18 17
38 40 39 36 33 32 30 29 28 27 27 27 27 27 27 28 28 29 31 28 26 26 25 24 24 24 24 24 23 20 20 19 16 17 19 18 17 18 17 17 18 18 18
32 30 29 29 28 28 27 27 27 27 26 26 26 26 26 27 28 29 30 32 28 26 25 25 25 25 25 24 23 24 24 22 21 20 19 18 16 16 15 16 18 19 20
28 27 27 28 28 28 27 26 26 26 26 26 26 26 26 26 26 29 30 30 31 28 26 26 25 25 26 25 25 25 25 23 21 19 17 17 16 15 16 18 17 18 19
26 27 27 27 27 27 27 26 26 26 26 26 26 26 26 26 26 26 27 27 30 30 29 27 27 28 26 25 24 25 24 22 20 19 18 16 15 14 14 16 16 17 17
28 28 28 28 27 27 27 27 27 28 28 27 27 27 26 26 26 26 26 26 27 28 30 27 25 24 23 23 23 23 22 20 19 19 17 16 14 14 15 16 17 17 15
27 27 27 27 27 26 26 26 27 28 29 29 29 29 29 30 29 29 32 30 30 30 27 25 23 23 23 22 22 21 20 20 19 19 17 15 14 14 14 15 16 15 14
23 26 25 24 25 25 25 24 22 22 24 27 29 30 30 30 31 32 31 32 31 30 27 25 23 23 23 23 22 21 20 19 19 19 18 15 14 14 14 15 14 14 14
24 24 23 23 23 23 22 21 22 21 21 21 23 27 30 30 31 32 32 31 29 29 28 27 24 24 23 22 21 21 20 20 19 19 16 15 14 13 14 14 13 13 14
18 17 18 19 20 20 21 21 19 20 21 22 22 23 26 28 29 30 30 29 27 27 26 26 26 25 23 22 22 21 20 19 17 17 16 14 13 13 14 14 12 13 13
17 18 18 19 19 20 18 17 18 19 18 22 22 22 25 26 26 25 24 24 26 26 27 26 26 25 24 23 22 20 19 18 17 16 15 15 14 12 15 14 11 13 14
17 17 16 16 15 15 15 15 17 19 16 15 16 21 23 25 24 24 25 24 25 25 28 27 26 26 25 23 22 21 20 19 18 18 17 15 14 13 15 13 10 13 12
13 14 12 11 12 12 12 13 14 13 13 13 14 14 16 17 18 20 21 20 21 27 29 28 27 27 26 24 23 22 21 20 19 19 18 17 16 14 14 12 11 13 11
11 11 7 8 9 9 9 8 10 9 9 10 11 12 13 14 14 12 14 14 15 17 18 20 25 28 27 26 26 25 24 22 22 21 20 18 16 15 12 12 11 11 10
9 9 6 5 6 6 5 6 6 6 6 6 8 9 10 10 11 10 11 11 11 12 14 16 18 19 26 27 27 26 26 25 25 22 21 18 17 15 13 11 11 10 9
6 5 5 4 3 3 2 3 3 3 3 4 5 6 7 8 8 8 9 9 9 9 10 12 15 16 19 23 27 27 27 26 25 24 22 20 18 16 14 13 11 9 8
5 3 2 3 2 1 -0 1 0 1 1 2 3 4 4 6 5 6 7 6 6 7 8 9 12 14 15 22 28 28 28 27 27 25 24 21 19 17 15 14 11 10 9

GFSGL_sfc_30mbdewp_048.txt.gz
Dewpoint
54 53 52 50 48 47 46 45 42 39 41 40 35 36 38 34 32 32 32 31 31 30 31 31 30 30 30 29 29 27 28 29 23 18 19 19 18 18 19 19 20 21 22
51 49 48 46 46 46 44 41 40 40 37 36 40 38 33 30 30 32 31 30 31 30 29 29 29 29 27 26 23 22 20 20 17 15 16 17 17 18 18 18 18 19 21
48 46 46 45 44 41 39 39 37 37 38 37 36 33 30 30 31 32 32 30 30 30 29 29 28 28 27 23 22 21 20 18 17 17 16 18 18 18 17 19 19 20 20
46 46 44 43 41 39 38 37 37 36 35 34 34 31 32 34 33 32 31 30 30 30 29 29 28 25 22 21 21 20 19 17 17 16 17 17 16 16 19 17 17 16 16
44 42 42 41 39 37 35 35 36 35 32 31 33 37 36 34 31 31 31 30 29 28 29 28 26 23 24 23 19 18 17 16 16 18 17 15 14 13 12 17 16 17 18
42 40 38 37 36 35 33 32 32 32 34 38 39 38 37 34 31 31 31 30 30 29 28 27 25 25 26 27 27 24 19 17 17 16 15 15 13 12 17 16 17 17 14
38 36 35 34 33 33 33 34 36 38 40 39 38 37 33 30 29 30 31 31 30 29 28 26 24 22 24 23 23 26 25 23 19 17 16 15 13 15 16 17 18 18 18
34 33 33 34 35 36 37 38 39 39 38 37 34 31 29 29 30 30 30 30 30 28 27 25 24 23 24 22 22 23 22 19 19 19 17 15 16 18 18 19 20 19 19
32 34 36 36 37 37 38 38 39 38 35 31 29 29 28 28 28 28 29 29 29 27 26 24 23 24 25 26 23 20 19 18 19 21 19 18 20 20 19 19 16 16 15
34 35 37 39 40 39 38 36 32 30 29 29 27 27 27 27 28 28 29 29 28 27 25 24 25 25 25 27 26 22 19 18 18 16 14 16 18 18 19 19 18 16 16
39 38 34 33 32 31 30 29 28 27 27 26 26 27 27 27 27 28 29 30 29 28 26 26 25 26 27 28 27 23 20 19 19 16 15 17 18 18 18 17 17 17 16
30 28 28 28 28 28 27 27 27 26 26 25 25 26 27 27 27 27 28 30 30 28 27 27 26 27 27 30 27 25 23 22 21 20 19 19 19 18 17 17 17 19 19
27 27 28 28 28 27 27 27 27 26 26 25 26 26 27 27 27 27 28 29 30 31 29 28 27 27 28 30 29 26 25 24 23 21 20 20 19 18 17 17 18 18 19
28 27 27 25 25 25 26 26 26 26 26 26 26 26 27 27 27 27 27 27 27 30 30 30 29 28 28 29 28 28 27 25 23 21 20 19 18 16 15 16 16 16 17
24 25 25 24 24 24 24 24 24 25 26 25 25 26 25 25 27 29 29 29 28 29 29 29 28 26 26 25 25 25 25 24 22 21 19 18 17 16 15 16 16 16 15
23 24 24 23 23 22 22 21 21 21 22 22 23 23 23 24 26 28 30 32 32 32 27 27 26 25 24 24 23 23 23 23 22 21 19 18 18 16 14 15 16 15 14
21 21 20 20 20 21 20 20 19 18 18 18 19 20 22 23 24 26 28 32 32 31 28 27 26 25 23 23 23 23 22 22 22 21 20 18 17 16 14 14 15 14 13
17 18 18 19 19 20 20 20 17 16 16 17 17 18 20 20 24 26 27 30 28 28 29 28 27 26 25 24 24 23 23 22 20 20 18 18 16 15 14 13 14 13 12
16 17 18 18 19 18 16 15 16 16 17 16 15 14 16 16 18 23 26 27 27 26 26 26 27 27 27 26 25 24 23 21 20 18 18 17 15 14 14 13 14 13 12
15 16 14 14 14 14 13 13 13 13 12 12 12 12 13 14 14 14 17 18 20 23 25 25 25 25 27 25 24 23 22 20 19 17 16 16 14 13 14 13 13 12 13
13 13 10 11 11 11 10 11 10 11 9 9 9 10 11 12 13 12 12 13 12 13 15 16 23 28 26 25 25 23 21 20 19 18 17 16 14 14 14 14 14 12 13
11 9 8 8 8 8 7 7 8 7 6 6 6 7 8 9 10 10 9 11 11 12 13 14 16 18 23 26 25 23 21 20 19 19 18 17 15 15 15 14 13 11 13
9 6 5 5 4 4 3 3 5 4 4 3 3 4 5 6 7 7 7 8 9 9 10 11 12 14 16 17 22 25 23 22 22 21 19 18 17 16 15 14 13 11 12
5 4 4 2 2 1 -1 -1 1 0 1 1 1 2 3 3 5 4 5 6 7 7 9 9 9 11 12 14 15 21 26 26 25 22 21 19 18 17 16 14 13 12 11
2 0 2 1 -1 -3 -4 -4 -2 -3 -3 -2 -1 -0 1 1 2 2 3 3 5 4 6 7 8 8 10 11 14 16 21 27 26 25 23 21 19 17 16 15 13 11 10
2 -1 -1 -0 -3 -5 -6 -7 -6 -5 -5 -4 -3 -3 -1 -1 0 0 0 1 1 2 3 5 6 6 8 10 13 14 15 26 26 25 24 22 20 18 16 16 14 12 10

GFSGL_sfc_30mbdewp_051.txt.gz
Dewpoint
56 57 57 55 55 54 51 49 46 43 40 41 42 37 36 41 39 34 33 33 34 33 33 32 31 32 31 31 32 31 28 27 25 21 20 19 19 18 18 18 16 13 13
56 56 55 53 52 51 49 47 44 41 41 42 38 37 41 36 33 33 35 32 33 32 32 32 31 30 31 31 30 28 26 24 22 17 16 17 18 18 19 17 13 12 15
54 52 51 50 49 49 46 44 43 42 40 39 39 39 36 36 35 35 34 34 34 33 32 32 31 31 30 29 28 26 24 22 20 18 16 17 18 18 16 15 11 14 13
49 49 48 47 46 44 42 41 40 40 39 39 38 38 38 34 34 34 35 34 33 32 32 32 31 31 30 29 28 25 23 21 19 17 17 16 17 16 16 11 9 11 11
47 45 45 44 41 40 38 38 39 38 38 36 35 35 37 37 36 36 35 34 32 32 32 32 31 31 31 29 25 25 23 21 18 19 17 17 16 14 12 8 11 11 13
44 41 39 38 36 35 35 34 33 37 36 37 38 39 39 39 38 37 34 32 31 31 30 30 31 30 30 29 28 25 25 21 20 22 18 17 15 16 13 11 12 13 12
38 36 35 34 33 34 36 38 38 38 39 39 40 40 40 39 35 31 30 31 32 31 31 30 30 28 27 27 27 29 30 26 24 22 21 19 18 17 10 12 13 13 13
34 34 35 36 37 39 39 39 40 40 39 39 38 38 35 32 30 30 30 30 29 29 30 30 30 29 28 26 26 27 23 26 25 22 20 19 19 16 13 16 17 17 15
36 37 38 38 39 39 39 39 39 38 37 35 33 31 30 30 30 29 29 29 29 29 29 29 29 28 28 26 27 28 24 25 22 22 21 21 21 19 21 18 17 15 14
37 39 40 39 37 35 35 33 32 31 29 29 28 29 29 28 29 29 29 30 30 29 29 29 28 28 27 27 28 29 28 25 21 19 20 20 19 18 20 18 16 16 14
34 32 30 29 29 29 29 29 28 27 28 28 28 28 28 28 29 29 29 29 30 30 29 28 29 28 27 27 28 30 29 28 23 20 19 16 13 15 16 17 16 16 15
28 28 28 29 28 28 28 28 27 27 27 26 27 26 26 27 28 29 29 29 29 30 30 30 30 29 28 28 29 29 29 28 24 22 21 19 17 18 18 17 17 17 16
28 27 26 25 23 22 20 20 18 18 19 20 20 21 20 22 22 27 29 29 29 29 31 33 31 30 29 29 29 29 30 27 26 24 22 20 19 20 20 20 18 18 17
24 23 20 18 17 17 16 17 16 18 18 18 18 18 20 20 21 23 25 25 27 30 30 31 32 31 31 30 30 30 30 29 27 25 24 21 22 21 21 20 18 18 17
20 18 16 16 16 15 16 17 17 18 20 19 18 18 21 22 23 24 24 25 27 27 30 31 29 29 28 28 28 28 28 28 26 26 25 23 22 20 20 20 19 17 15
14 14 16 16 16 16 15 14 18 17 17 18 18 18 20 19 18 19 22 25 27 28 29 28 28 28 28 28 26 24 25 27 26 25 25 24 22 20 20 19 18 18 15
13 13 14 15 15 15 14 14 12 14 15 17 16 15 15 15 16 18 18 21 26 28 28 28 28 29 28 27 25 24 24 25 26 26 25 24 23 21 21 19 19 18 15
14 16 14 15 15 14 13 13 13 13 13 12 12 12 12 13 14 15 16 16 16 17 23 27 28 29 28 26 26 25 25 26 26 25 24 24 24 21 20 19 18 17 15
12 12 13 14 13 13 12 12 11 11 11 9 9 9 10 10 11 13 13 13 13 13 15 16 18 23 26 27 28 27 27 27 26 24 24 24 23 20 21 19 18 16 15
11 13 10 10 10 10 9 10 8 9 8 8 7 7 8 8 9 10 10 11 11 11 12 12 14 15 18 26 28 29 28 26 25 24 23 24 22 21 21 19 19 18 15
10 9 9 8 8 7 7 7 7 7 6 6 6 6 5 6 7 8 8 8 9 9 9 10 12 13 15 18 19 27 26 25 24 24 23 23 21 21 20 20 19 17 16
9 7 7 7 6 6 4 4 5 4 3 4 4 3 3 5 5 5 6 6 7 8 9 10 10 11 12 14 15 17 22 24 24 23 23 23 20 20 20 20 19 18 16
7 5 5 4 4 3 2 1 2 2 1 2 2 2 2 3 3 3 4 4 4 6 7 7 8 9 11 11 13 15 17 19 25 25 23 23 21 20 20 20 19 18 17
4 4 3 3 2 1 0 -0 0 -1 -2 -1 0 0 0 1 1 1 2 2 2 3 4 5 6 7 9 9 10 12 16 17 16 26 25 23 22 20 20 20 20 18 17
4 2 2 2 1 -0 -1 -2 -2 -2 -2 -2 -1 -1 -1 -1 -1 -0 1 1 1 1 2 3 5 6 6 7 8 10 12 12 15 21 25 24 23 21 20 20 20 18 16
4 1 1 1 0 -1 -2 -3 -4 -4 -4 -3 -3 -3 -2 -2 -2 -1 -1 -0 -0 -0 0 2 3 3 5 7 8 9 9 11 14 15 26 25 23 22 21 21 19 18 15

GFSGL_sfc_30mbdewp_054.txt.gz
Dewpoint
56 57 57 57 57 57 57 56 52 48 45 45 44 44 40 40 42 41 39 37 37 39 35 32 31 30 29 28 28 27 26 24 22 21 20 20 20 21 21 19 19 17 14
56 57 57 57 56 56 54 52 49 45 45 44 43 41 39 42 41 38 37 38 39 34 32 31 30 29 29 30 28 27 26 25 23 21 20 20 18 19 20 19 18 14 12
56 56 55 53 52 51 49 47 45 43 43 43 41 39 40 40 37 38 40 40 36 34 33 30 30 30 29 29 28 26 25 23 23 22 21 20 19 19 18 18 16 13 11
53 52 50 50 49 48 46 45 44 43 43 40 40 41 38 38 41 40 39 37 37 34 32 32 30 29 29 28 27 26 26 26 24 22 22 20 18 18 18 16 13 8 9
49 48 47 46 44 44 44 44 42 41 40 40 40 40 40 39 38 37 38 38 37 34 32 31 31 31 31 31 27 25 25 26 24 23 24 20 19 18 17 13 13 9 11
45 43 41 41 40 40 40 39 38 37 37 36 37 38 39 38 39 39 39 36 33 31 30 29 29 30 31 32 33 31 29 26 28 28 23 22 21 19 15 15 13 9 10
40 39 38 37 36 37 37 37 38 37 39 40 40 40 39 40 40 39 35 30 29 29 29 28 27 25 26 28 31 31 29 26 29 31 25 24 23 18 17 15 11 10 12
36 36 36 37 37 39 40 40 41 41 40 40 39 38 36 33 31 30 30 29 28 27 27 26 26 26 25 26 28 28 28 28 31 29 25 24 21 20 18 16 14 16 16
36 37 38 39 39 39 39 39 39 37 35 33 31 30 29 28 29 29 29 26 25 25 25 25 25 25 25 28 28 28 28 28 28 26 27 25 22 21 20 18 16 15 16
38 38 38 38 37 35 34 33 31 29 26 26 25 25 26 26 28 30 30 29 29 29 28 27 27 26 27 29 29 29 29 29 29 28 24 24 24 22 23 20 17 15 15
35 33 31 30 29 29 28 27 26 26 27 29 29 28 27 25 25 25 28 25 23 25 26 27 29 30 30 29 29 29 31 31 29 29 29 25 20 19 17 18 17 16 15
30 29 27 27 25 26 26 25 22 20 19 18 21 20 20 21 21 21 24 26 26 24 24 27 27 29 31 33 31 30 30 30 32 31 29 29 21 18 15 15 16 16 16
26 25 24 22 19 17 15 14 12 14 15 17 16 18 17 19 19 21 22 22 23 25 25 25 26 29 30 31 32 31 31 31 31 29 27 26 26 22 20 20 19 18 18
23 20 17 13 12 11 11 10 11 16 15 15 16 16 17 17 17 18 18 20 22 24 25 27 27 28 29 30 31 32 31 32 31 28 28 27 28 27 22 21 20 19 18
15 12 12 13 11 10 11 13 14 16 17 17 17 16 17 17 16 17 18 19 21 22 25 28 26 26 25 26 29 30 31 32 30 29 29 29 28 27 25 23 22 19 17
9 11 14 14 14 11 9 10 17 17 17 18 17 16 16 16 15 16 16 16 18 19 22 25 27 27 28 26 28 30 30 29 28 28 27 27 27 25 25 24 22 19 17
9 10 12 13 12 11 11 10 10 14 15 16 14 13 13 13 14 14 15 14 15 16 17 19 21 22 23 29 25 29 29 28 27 27 28 28 28 27 26 24 23 19 18
12 14 11 12 11 12 12 12 12 12 13 13 12 11 11 11 12 12 13 13 12 13 14 14 16 18 18 21 24 28 29 28 28 27 27 28 28 26 26 24 23 20 18
10 10 13 14 13 12 12 12 11 12 12 11 10 9 9 9 10 11 12 12 12 11 11 12 13 14 16 17 21 23 29 29 29 30 28 28 28 27 26 24 21 20 18
11 11 11 10 11 10 10 11 9 10 10 10 9 10 9 7 10 10 11 11 11 10 10 11 11 12 15 16 18 19 21 27 30 28 28 28 28 27 26 24 22 21 17
8 8 10 8 9 8 9 9 8 9 9 8 8 9 5 6 9 8 8 9 9 9 9 10 11 12 13 15 14 15 16 20 27 27 28 27 28 26 26 24 21 19 17
8 7 8 8 8 9 6 6 8 8 7 6 7 6 4 6 6 6 6 7 8 8 8 9 9 10 11 13 12 13 15 16 21 22 26 26 27 26 25 23 22 22 18
8 8 7 6 7 6 7 6 6 7 5 5 5 5 5 5 5 5 6 6 7 6 7 7 7 7 9 11 12 12 13 14 18 17 18 24 26 25 25 23 22 22 19
7 8 5 6 7 5 6 6 6 3 3 4 5 5 5 4 5 5 5 5 5 5 5 6 5 6 7 8 10 11 13 15 14 14 17 17 26 26 25 23 22 20 19
8 7 6 6 6 5 5 5 4 4 4 4 4 4 3 3 3 3 4 4 3 4 4 4 5 6 6 7 8 10 13 12 11 12 15 17 25 26 25 23 22 21 21
6 5 5 5 5 4 4 3 3 3 2 2 2 3 3 2 2 2 2 2 2 2 3 4 5 5 6 7 8 11 10 10 11 12 13 16 25 25 25 25 23 22 20

GFSGL_sfc_30mbdewp_057.txt.gz
Dewpoint
56 58 58 59 59 58 58 58 57 54 51 49 47 47 45 45 43 43 41 39 39 40 37 38 40 35 34 33 31 29 27 26 24 23 22 23 24 23 22 22 23 22 22
55 57 58 58 58 58 57 56 54 51 48 47 46 46 43 43 43 41 38 38 39 37 38 40 37 33 34 33 32 31 29 27 26 25 24 23 24 23 23 22 21 18 19
54 57 56 55 54 53 51 49 48 46 46 46 44 42 41 42 41 39 38 39 40 41 41 37 36 34 33 33 31 30 29 25 26 26 24 24 23 22 21 22 21 22 18
55 53 52 52 50 49 48 46 45 45 44 43 42 41 41 40 39 39 40 41 41 39 39 38 36 33 32 31 30 30 28 28 27 26 26 25 25 22 22 20 21 20 17
51 50 49 48 47 47 46 45 44 43 42 41 41 40 39 39 40 41 41 39 40 39 40 38 34 33 32 32 29 31 30 28 26 25 26 26 24 23 23 22 22 21 16
47 45 45 45 45 45 44 43 42 41 41 40 40 40 40 40 39 38 38 39 38 34 31 29 29 29 30 30 30 31 32 31 31 30 27 26 26 27 25 24 24 18 16
44 43 43 42 41 41 40 40 39 39 39 39 40 40 40 40 39 39 39 36 30 29 28 28 27 25 26 26 28 30 32 32 32 32 30 29 28 28 26 23 22 18 17
41 40 40 40 39 40 40 40 40 41 41 40 40 40 39 36 36 33 30 28 26 25 24 24 26 26 27 27 27 28 28 28 30 31 29 29 30 32 26 25 21 18 17
39 39 40 40 40 40 39 39 40 39 38 35 31 30 28 27 28 30 29 28 28 28 27 26 26 27 28 29 28 28 28 28 28 30 31 32 27 23 22 23 22 19 19
39 39 39 39 39 38 37 36 33 30 27 25 24 25 27 27 27 25 24 23 23 23 22 22 23 23 23 26 30 31 30 29 29 28 31 31 29 26 23 21 21 20 18
38 37 36 34 33 33 30 27 25 25 26 29 27 26 22 23 23 23 25 22 23 24 23 23 24 24 25 28 28 27 30 32 31 30 29 32 32 25 26 26 22 21 20
33 32 31 28 25 26 25 24 21 19 19 19 21 20 21 22 21 24 20 20 20 20 20 23 24 25 26 26 27 28 29 31 32 32 32 32 31 30 26 24 23 21 20
30 27 24 22 18 16 15 15 12 14 16 18 16 19 18 19 18 20 18 18 19 20 20 22 23 25 26 27 26 28 30 29 30 30 30 31 30 30 30 28 23 20 20
24 22 18 15 12 11 10 9 12 17 16 15 16 17 17 18 17 18 16 17 17 18 19 22 22 24 26 27 28 29 31 31 30 30 31 32 29 32 32 30 27 24 22
18 14 13 12 11 10 11 13 15 19 17 17 18 16 18 18 17 16 16 16 17 18 20 21 22 23 24 25 26 28 29 30 31 31 31 30 28 30 31 28 29 26 24
12 13 17 16 14 9 8 16 16 15 16 18 17 16 16 16 15 15 15 15 16 16 16 16 18 21 20 21 24 25 30 31 31 31 31 28 27 28 28 28 27 26 22
13 14 14 15 13 12 11 11 11 18 17 17 15 14 12 13 13 13 14 14 15 13 13 13 15 17 18 18 19 21 25 29 31 28 28 28 28 27 29 28 27 25 23
13 13 13 13 13 13 12 13 13 14 15 16 15 12 11 12 12 13 13 13 13 12 11 11 12 14 16 16 17 19 20 23 25 30 28 28 28 29 28 27 27 26 22
11 12 15 17 15 14 14 13 13 13 14 13 12 12 12 11 10 13 13 13 12 11 10 9 11 12 14 16 17 18 19 20 23 24 30 29 30 29 29 28 28 27 25
10 14 14 13 13 12 12 12 11 12 12 12 12 12 12 9 9 11 11 11 10 10 9 9 9 12 13 14 16 17 17 17 19 22 24 30 30 28 27 28 28 26 23
10 9 12 9 10 10 10 11 10 11 11 11 11 12 8 7 9 9 8 8 8 8 9 9 10 12 13 13 14 15 15 15 16 19 21 22 29 28 28 29 28 26 24
9 9 10 11 10 11 10 9 10 11 10 9 9 8 7 8 9 8 7 8 9 9 10 9 10 10 11 11 12 13 13 13 15 17 18 17 20 25 28 27 27 26 21
11 10 8 8 9 9 11 10 10 10 9 8 8 8 8 8 8 7 7 8 8 8 9 9 9 9 8 10 12 12 13 13 14 16 15 14 16 19 26 26 26 25 21
10 11 8 8 10 8 10 10 10 8 6 7 8 8 7 7 7 6 7 7 7 7 8 9 8 6 8 10 10 11 11 12 14 14 14 13 14 16 20 27 26 25 22
11 11 10 9 9 9 9 9 8 8 7 7 7 6 6 6 5 5 6 6 5 6 6 5 7 8 7 8 9 9 11 14 12 12 12 13 14 14 17 25 26 26 22
9 8 8 9 8 9 8 7 7 6 5 6 5 5 5 4 4 4 4 3 5 4 4 6 5 5 6 8 9 10 10 10 11 12 13 13 13 15 18 26 26 25 23

GFSGL_sfc_30mbdewp_063.txt.gz
Dewpoint
53 53 54 56 57 58 59 59 56 57 56 54 52 50 49 48 47 46 44 42 41 41 41 40 40 41 40 41 41 40 36 34 32 32 31 30 28 27 28 34 31 32 32
54 54 57 59 59 58 58 58 56 54 53 51 50 48 48 46 45 43 42 41 40 40 39 40 39 39 41 42 41 38 36 35 33 32 31 30 29 29 29 28 29 27 27
60 59 59 58 56 53 53 51 51 50 49 48 47 46 45 44 43 42 41 41 40 40 39 39 40 42 40 39 38 37 36 35 34 33 32 32 31 31 30 29 28 29 26
57 55 53 52 50 49 49 48 48 47 47 46 45 44 44 43 42 41 40 40 39 40 41 41 40 39 38 38 38 36 35 34 34 33 33 32 31 30 30 28 27 28 27
52 51 49 48 48 47 46 46 45 44 44 44 43 43 43 42 41 40 39 39 41 41 40 40 40 40 40 38 38 36 34 33 32 31 30 30 30 29 28 28 28 29 28
50 49 48 47 46 45 44 44 43 43 42 42 42 42 41 40 40 40 41 41 39 38 38 32 31 30 30 30 28 27 27 27 27 29 29 29 30 30 29 29 31 30 30
49 48 47 46 45 44 43 42 42 42 41 40 40 40 39 39 40 40 39 38 38 31 30 29 26 25 25 26 26 26 25 27 28 28 28 28 29 30 31 31 31 31 31
47 47 46 45 44 43 42 42 41 40 39 39 38 39 39 39 39 38 35 31 29 26 26 26 25 23 23 26 25 25 24 25 25 26 27 28 29 32 32 32 32 31 33
44 44 44 43 41 41 41 40 41 40 40 40 40 34 29 26 25 26 25 24 24 24 22 22 21 23 25 24 23 22 21 22 22 23 24 25 26 27 28 29 30 31 29
42 42 41 41 41 41 41 40 40 40 39 34 32 29 26 26 25 25 24 22 19 18 20 21 22 22 23 22 22 23 23 24 25 25 26 27 27 28 29 31 30 30 29
41 41 41 41 40 40 39 38 37 32 29 26 27 27 27 25 25 24 22 19 19 20 20 20 20 20 20 22 24 25 25 26 28 27 27 27 25 25 26 31 30 32 29
41 41 40 39 38 36 31 30 30 28 25 24 24 25 25 23 23 22 20 19 20 19 19 20 20 19 21 23 23 22 21 24 24 24 24 25 27 27 26 28 31 31 32
38 37 35 32 30 28 24 24 24 25 23 22 23 23 23 23 21 19 18 18 18 19 19 18 19 20 21 22 20 18 20 21 20 20 22 22 27 30 29 30 33 29 31
33 29 27 25 24 20 21 23 22 22 19 20 21 21 21 20 18 17 17 17 18 18 18 18 19 20 20 19 18 18 18 18 17 19 19 22 28 29 29 31 30 29 27
27 22 18 18 17 19 22 20 19 21 21 21 20 21 19 18 18 16 16 17 17 18 18 18 17 17 16 16 15 16 15 16 16 16 18 19 21 26 30 31 30 29 26
20 18 19 19 17 17 20 16 17 18 21 20 20 18 19 18 15 15 15 16 16 17 17 16 13 13 13 14 14 14 13 14 15 15 15 17 19 21 26 30 30 28 26
21 21 19 19 19 18 16 15 16 20 20 19 17 16 17 15 14 15 14 16 15 15 13 12 11 10 11 13 12 12 12 13 14 15 13 15 17 20 18 25 28 27 26
20 21 20 19 18 19 20 21 19 18 18 20 20 17 16 14 15 13 14 15 14 13 12 13 10 10 12 11 11 11 11 12 12 12 12 13 15 17 16 16 25 26 26
22 22 21 20 20 19 19 18 19 20 19 19 20 19 16 14 12 10 15 13 12 12 13 12 11 11 11 11 11 10 11 11 10 11 10 12 12 14 13 15 16 26 26
21 22 21 21 22 22 22 22 19 17 16 16 16 17 14 10 7 6 11 11 11 12 10 11 12 12 9 9 9 10 9 6 8 8 8 12 11 12 12 13 14 16 24
21 22 23 23 22 21 20 19 17 16 16 14 14 12 9 8 7 9 14 11 11 10 10 11 9 8 8 8 9 7 6 6 8 8 9 8 9 10 11 12 13 14 16
22 22 21 20 20 19 17 15 15 15 14 14 13 11 10 9 11 13 10 10 9 10 10 8 7 8 8 8 5 5 7 8 7 7 6 7 8 10 9 9 9 12 15
20 19 19 18 17 15 14 15 14 13 12 10 10 10 12 12 12 10 9 8 9 8 6 6 7 5 4 4 6 9 7 6 7 8 7 8 9 7 8 8 9 11 12
18 17 16 16 15 11 10 13 10 11 12 11 12 12 12 11 9 8 8 8 6 4 5 3 2 3 6 6 5 5 7 8 9 10 10 8 7 7 8 8 9 10 11
17 15 13 13 13 13 13 13 13 11 12 11 10 10 8 9 9 6 5 4 4 4 1 1 3 4 2 3 4 5 7 9 10 10 10 9 8 8 8 9 9 10 12
16 15 14 13 11 11 10 10 10 10 10 10 7 6 7 5 5 3 1 3 2 -0 -0 1 1 1 3 4 5 8 8 6 7 8 9 9 8 9 9 9 9 10 11

GFSGL_sfc_30mbdewp_066.txt.gz
Dewpoint
50 50 50 52 55 56 57 58 58 59 59 58 56 53 52 50 49 49 47 45 44 43 42 42 41 41 41 41 41 41 40 39 36 35 33 32 31 30 29 31 34 35 35
52 53 54 57 58 58 58 58 58 57 56 55 53 51 50 49 47 46 44 43 42 41 41 41 41 41 39 41 42 41 40 38 36 35 34 32 31 31 31 31 30 31 32
57 57 56 57 58 58 58 57 56 55 52 51 50 49 48 46 45 44 43 42 42 42 41 40 39 41 42 40 38 38 38 38 37 34 34 34 33 32 32 32 31 30 30
55 57 58 58 57 56 55 53 52 51 50 49 48 47 45 44 44 43 42 42 41 40 40 40 41 40 38 37 38 37 35 32 32 32 32 32 32 32 31 30 30 30 29
54 56 54 53 54 52 50 49 48 48 47 46 45 44 44 43 43 42 41 40 39 40 41 40 39 36 32 31 28 25 24 24 25 25 25 27 27 28 29 30 29 30 31
52 50 50 49 49 48 47 47 46 45 44 44 43 43 43 42 41 40 40 40 41 39 38 30 29 26 27 27 27 27 26 23 23 24 24 23 24 27 29 29 30 30 29
50 49 48 48 47 46 45 45 43 43 43 42 42 41 40 40 40 40 40 39 36 30 26 25 24 23 24 25 25 24 23 22 24 23 23 24 24 25 27 25 25 25 27
49 48 47 46 45 44 43 42 42 42 41 41 40 39 39 39 39 38 35 30 26 26 24 22 21 21 25 23 23 21 21 22 22 23 23 24 25 25 24 25 25 26 26
48 47 46 45 43 42 42 41 40 39 39 38 38 36 35 36 35 30 26 25 23 20 20 21 22 21 22 22 22 23 23 24 25 25 27 28 28 28 28 27 24 24 23
47 46 44 43 42 41 41 40 39 39 39 38 33 29 27 27 27 26 23 20 17 16 20 20 20 21 21 23 24 24 23 21 21 24 23 23 24 25 28 26 26 25 26
44 42 42 42 41 41 41 41 39 35 34 31 28 26 26 26 25 23 21 18 16 17 18 18 19 20 22 24 23 22 19 20 22 20 21 22 24 23 25 27 26 28 26
42 41 41 41 41 40 38 35 32 30 29 27 26 24 24 24 24 23 21 21 20 19 18 19 19 20 22 22 19 18 17 20 18 18 17 18 19 21 24 29 30 29 30
41 40 39 38 37 34 34 31 28 26 26 26 24 23 22 22 22 20 19 19 19 18 19 18 19 20 22 20 16 16 18 18 17 16 16 15 17 19 22 24 30 29 29
37 35 33 32 27 26 26 27 26 25 25 25 24 23 22 20 18 18 17 18 18 18 18 18 18 20 18 17 16 17 16 16 16 15 15 15 16 18 19 21 26 29 29
30 27 25 23 23 22 21 22 23 23 24 24 23 23 21 19 18 17 17 18 17 18 18 17 17 15 14 13 15 14 14 13 13 13 15 13 13 15 16 19 20 28 26
23 23 21 21 22 17 16 17 23 24 23 23 22 21 21 19 16 17 16 16 16 18 17 14 12 10 11 13 13 12 11 12 12 12 12 12 12 13 15 16 17 21 26
21 21 21 20 20 18 16 16 16 21 20 19 20 21 20 20 18 15 14 16 16 14 12 12 10 9 11 12 12 11 10 11 12 11 11 10 11 12 13 14 14 16 20
22 22 22 22 22 21 21 22 21 20 20 20 21 21 19 16 17 13 15 16 14 13 14 12 10 11 11 10 10 10 9 10 9 7 9 8 9 11 10 11 12 13 14
21 22 24 24 24 24 24 24 23 23 23 22 22 22 19 19 16 14 16 13 12 13 12 11 11 12 10 9 8 7 8 7 5 5 8 7 9 8 8 10 11 12 13
24 25 25 24 24 23 23 23 22 22 21 20 20 18 16 14 10 9 13 11 12 11 10 11 11 10 8 7 7 7 6 3 5 6 6 7 7 6 7 9 10 9 10
24 24 23 23 22 22 21 21 20 20 19 18 18 17 16 10 9 10 14 11 10 10 10 10 8 7 7 7 7 4 4 3 4 7 6 6 5 6 7 9 9 9 10
22 22 21 20 20 19 18 18 18 17 17 16 15 13 11 11 12 14 12 11 10 10 9 7 6 6 5 3 3 4 4 5 4 4 5 5 6 6 7 7 7 8 9
20 19 19 18 17 17 16 17 16 15 14 14 13 14 14 13 12 11 10 9 9 7 5 6 2 1 3 3 4 5 5 4 5 6 6 5 6 6 6 6 7 7 8
18 17 17 16 15 14 14 14 14 14 13 13 12 12 10 10 9 8 8 7 5 4 1 -0 -0 1 3 2 1 2 4 6 7 7 8 7 6 6 6 6 7 7 8
15 15 14 14 13 13 12 12 11 11 11 10 9 8 8 8 7 5 3 2 2 -1 -2 -1 -1 -0 0 1 1 2 3 6 6 5 6 6 6 5 6 6 7 8 9
14 13 12 12 11 11 10 9 9 8 9 9 8 7 6 5 2 -1 1 -0 -2 -2 -2 -1 -1 -1 0 1 2 4 3 2 3 4 5 4 4 5 6 6 7 8 9

GFSGL_sfc_30mbdewp_069.txt.gz
Dewpoint
48 48 49 49 51 53 53 54 55 57 57 57 57 57 56 54 53 51 50 48 47 46 45 45 43 42 42 42 42 41 41 40 38 38 36 35 33 32 32 32 32 33 36
47 48 49 50 51 52 53 56 57 57 58 58 57 56 53 52 51 50 48 46 46 45 44 42 41 42 41 41 42 41 41 40 38 36 36 34 32 33 33 32 33 32 32
50 49 49 50 51 52 55 57 57 57 56 56 55 53 51 50 48 47 46 45 44 43 42 42 42 41 40 42 40 38 37 37 36 34 32 34 33 33 32 32 32 33 32
52 52 52 52 54 55 57 58 58 56 54 52 52 51 50 47 46 45 45 43 43 42 42 41 41 41 41 38 37 35 30 27 27 25 25 26 29 29 29 28 26 28 30
53 53 53 54 55 57 57 56 54 53 51 50 48 47 46 45 44 44 43 42 41 41 41 41 38 35 32 31 27 25 23 22 22 19 18 21 19 21 20 24 27 26 26
54 55 56 56 56 55 54 51 51 49 48 47 46 45 44 44 43 42 41 41 40 41 39 31 30 29 28 27 26 26 24 20 16 18 18 17 19 21 24 25 24 23 21
54 53 52 53 52 51 50 48 47 46 45 45 44 43 42 42 41 40 41 41 39 35 29 27 23 25 25 24 23 21 20 22 23 22 21 22 22 23 24 24 24 24 23
51 51 50 49 48 47 47 46 44 44 43 42 42 42 41 40 40 39 37 31 28 26 24 22 21 23 23 22 21 21 22 23 23 24 24 24 25 26 26 25 27 27 26
50 49 48 47 46 45 44 43 43 43 42 41 41 40 39 38 37 33 29 26 23 20 21 21 21 20 22 23 23 22 22 22 22 21 23 23 22 24 24 24 25 25 22
49 48 47 46 45 44 43 42 41 41 40 37 35 36 36 34 31 29 26 22 19 18 20 19 20 21 22 24 23 21 21 20 20 21 19 21 22 24 24 24 25 25 24
48 47 45 45 44 43 42 40 40 39 34 32 29 28 28 28 27 25 22 19 17 16 16 16 18 21 22 24 21 19 18 19 18 18 18 18 19 20 20 22 23 26 26
45 43 43 42 42 41 39 38 36 34 31 28 26 25 25 25 24 23 20 19 20 17 17 18 19 21 23 20 18 17 17 18 18 17 16 15 16 16 17 18 20 23 23
42 42 41 41 40 38 36 33 33 31 30 27 25 23 23 22 22 22 21 20 19 18 19 19 19 21 20 18 15 16 16 17 16 15 14 14 15 15 16 18 19 21 23
40 39 37 34 32 33 31 30 29 29 28 25 24 22 21 19 18 18 19 19 18 18 18 19 19 20 17 16 16 15 15 14 13 13 12 14 14 14 14 15 17 17 19
35 32 29 28 26 25 25 25 25 26 27 25 24 22 20 19 18 18 18 18 18 19 19 19 16 15 13 13 14 12 12 11 11 11 12 11 11 11 12 13 15 15 16
29 28 27 25 23 23 22 22 26 26 26 25 25 23 22 21 18 17 18 20 19 20 17 15 12 10 11 12 12 11 11 10 9 10 9 9 9 8 10 11 13 13 14
27 25 24 21 20 19 19 19 19 21 22 22 22 22 20 19 20 20 19 17 17 14 13 12 10 9 11 11 11 10 9 9 9 8 7 8 8 7 9 9 10 11 11
23 23 22 21 21 21 21 21 21 19 19 21 22 22 22 21 18 15 16 17 15 14 14 12 10 11 11 9 8 7 7 8 7 5 5 7 6 6 7 6 8 9 10
23 24 25 25 25 25 25 24 23 23 22 22 22 22 22 22 20 20 20 17 15 14 13 12 12 11 9 8 7 7 6 6 4 3 4 5 4 6 5 5 6 7 8
26 26 26 25 24 24 24 23 23 23 22 22 21 20 18 17 15 14 15 14 14 13 12 11 11 10 8 8 7 6 5 3 3 3 4 4 4 4 4 4 5 6 7
23 23 23 22 22 21 21 20 20 20 19 19 17 18 17 15 14 14 14 13 12 12 11 11 9 7 7 7 6 4 3 2 1 3 4 3 4 3 4 5 5 7 6
21 21 20 19 18 18 18 18 17 17 17 15 15 15 16 14 14 14 13 12 11 11 10 8 7 6 4 3 3 2 1 1 2 2 2 4 4 4 4 5 5 4 5
19 18 17 17 16 16 16 16 15 15 14 14 14 14 14 12 11 10 9 8 9 7 6 5 1 1 1 2 2 1 0 2 3 4 4 3 4 4 4 4 4 4 5
16 16 15 14 14 14 13 13 13 12 12 11 11 10 9 8 7 7 6 6 5 3 1 -1 -1 -0 -0 -1 -1 -0 1 3 4 5 5 3 2 3 4 4 4 4 5
14 13 13 12 11 11 10 10 9 9 9 9 8 8 8 7 6 3 1 1 0 -2 -2 -2 -2 -2 -2 -1 -1 -1 1 3 2 1 2 3 2 2 3 3 4 4 5
11 10 9 8 7 6 5 4 4 4 5 5 6 5 4 3 -0 -2 -1 -2 -3 -3 -3 -3 -2 -2 -3 -2 -1 2 -0 -2 -1 1 2 1 1 1 2 3 4 5 6

GFSGL_sfc_30mbdewp_075.txt.gz
Dewpoint
51 51 51 51 50 50 50 50 51 52 52 52 52 53 53 54 55 56 56 56 55 55 52 52 50 48 47 47 45 44 43 42 42 41 39 40 39 39 37 35 33 31 30
51 51 51 51 51 50 50 50 51 51 51 52 52 52 54 55 56 56 55 55 54 52 50 49 49 47 46 45 44 43 43 42 40 39 39 39 36 36 33 31 26 20 19
51 51 51 51 51 50 50 50 50 51 52 53 53 54 54 55 56 56 55 53 52 51 50 49 48 46 44 44 43 42 41 40 39 38 36 36 32 31 27 20 18 19 20
51 51 50 51 51 51 51 51 51 52 52 52 53 53 54 55 55 54 52 51 51 50 49 48 47 46 44 43 42 40 37 35 32 30 28 28 27 24 17 15 14 19 20
51 50 50 51 51 51 51 51 51 52 52 52 53 54 55 55 53 52 52 50 48 46 45 45 44 44 43 42 39 35 32 29 27 25 24 22 17 10 13 17 20 18 18
51 50 50 50 50 50 50 51 51 52 52 53 54 54 53 53 51 51 50 48 46 44 41 39 39 38 36 34 31 28 27 25 22 20 17 12 10 17 19 20 19 18 14
50 50 50 50 50 50 50 50 52 53 54 54 54 54 52 50 48 48 46 45 44 40 37 34 31 31 29 27 24 23 22 20 20 17 14 15 18 19 21 20 19 20 19
50 50 50 50 50 50 51 52 53 55 55 52 51 50 48 46 44 43 43 41 37 35 33 32 30 28 25 21 19 20 20 21 22 21 21 19 21 21 21 19 20 20 20
51 51 51 51 51 52 53 52 51 50 49 47 46 45 44 41 40 39 37 34 31 30 29 28 25 24 26 22 19 18 18 20 19 20 19 18 19 21 21 20 17 15 17
52 52 53 53 51 50 49 48 47 47 45 43 42 41 40 36 35 34 33 30 28 26 25 25 24 24 25 23 20 18 15 16 15 13 13 14 16 16 18 17 17 17 15
52 51 51 51 50 49 47 45 44 41 38 36 35 35 35 34 33 32 31 30 26 23 21 21 23 24 25 23 20 18 17 15 16 13 12 12 13 13 14 13 12 14 15
50 49 49 48 46 45 43 40 38 36 33 31 30 29 30 31 31 30 28 26 24 19 17 18 22 24 23 21 20 19 17 16 15 14 13 12 10 11 13 12 12 13 14
47 45 44 42 41 41 39 36 35 34 32 30 29 28 26 27 27 27 25 23 21 19 19 20 22 23 21 19 19 17 16 15 13 12 11 9 9 11 10 12 11 12 13
42 41 40 38 37 36 36 35 33 32 31 29 27 25 25 24 23 21 21 20 19 20 21 22 23 22 19 17 17 16 15 14 12 12 11 11 11 11 11 10 10 11 11
38 36 35 33 32 31 30 32 31 32 31 29 27 25 23 22 21 21 20 20 20 21 21 20 19 18 17 17 16 14 13 11 10 11 11 10 8 7 8 9 8 9 9
35 33 32 31 30 29 28 27 29 29 28 28 27 25 25 23 24 24 24 23 22 21 20 19 18 17 15 14 14 12 12 11 10 10 10 9 7 6 6 6 6 7 6
32 31 29 29 28 27 26 25 23 27 28 28 27 27 26 26 26 25 25 24 23 20 18 17 16 15 14 11 12 11 12 13 12 10 10 9 7 5 6 5 5 6 5
27 27 26 26 25 24 24 24 24 22 21 23 26 25 25 25 24 23 20 18 18 18 17 16 15 14 13 13 12 11 10 10 9 9 8 7 6 5 5 4 4 4 4
27 26 26 26 26 26 25 24 24 23 22 22 23 24 24 24 23 22 21 19 18 16 16 15 15 14 13 12 11 10 10 9 8 7 7 6 5 4 3 3 3 4 3
25 25 25 25 24 24 25 24 23 23 22 21 21 19 19 19 18 18 18 17 16 15 15 13 13 12 11 10 10 9 8 7 6 5 4 4 4 4 4 3 4 4 3
21 21 22 21 21 21 21 20 20 19 18 17 17 18 17 16 15 15 15 14 14 13 12 11 11 10 9 8 7 6 5 4 3 3 2 2 3 3 2 3 4 4 4
20 19 19 18 18 18 17 17 17 16 15 14 15 14 14 14 13 12 11 11 11 10 10 9 7 6 5 5 4 3 2 1 1 1 1 1 1 2 2 3 3 3 4
17 16 16 15 15 14 14 13 13 13 12 12 11 11 11 10 9 9 8 8 7 6 5 4 3 2 2 2 2 1 -0 -1 -0 0 0 0 1 1 2 2 2 2 3
14 13 12 11 11 10 10 10 9 9 8 8 8 8 7 7 6 5 4 4 4 3 2 1 -0 -1 -2 -2 -1 -1 -2 -2 -1 -0 0 -0 -1 -1 1 1 2 2 3
10 9 8 7 7 6 6 5 5 5 5 5 5 5 5 4 3 3 2 1 -0 -0 -1 -1 -1 -2 -2 -3 -4 -4 -3 -2 -2 -1 -2 -1 -1 -1 -0 0 1 2 2
5 4 4 4 3 2 2 1 1 1 1 1 2 2 2 1 1 0 -1 -1 -2 -3 -3 -3 -3 -4 -5 -5 -5 -5 -5 -5 -5 -4 -2 -2 -1 -1 0 1 1 2 2

GFSGL_sfc_30mbdewp_078.txt.gz
Dewpoint
51 52 51 51 52 53 53 53 52 52 51 50 51 51 50 50 50 51 51 52 52 54 57 56 55 54 52 52 50 50 49 49 47 44 44 43 42 41 38 39 39 37 35
50 52 52 52 51 53 54 53 54 53 52 51 50 49 50 50 50 51 52 54 55 55 55 54 54 53 51 50 49 49 47 46 45 44 42 41 41 42 39 39 36 29 25
50 52 52 52 51 51 51 52 52 51 51 51 51 51 50 50 50 51 54 55 54 52 54 54 52 50 50 49 48 48 46 44 44 44 40 39 38 37 35 34 28 21 18
51 51 51 52 52 52 51 50 50 50 49 49 51 51 51 51 50 53 54 55 55 55 54 52 52 50 50 47 46 46 44 43 40 39 37 35 33 33 29 23 17 16 17
51 51 51 51 51 52 51 51 51 51 50 50 51 51 52 52 52 53 54 54 54 54 52 51 51 50 48 47 45 43 40 39 37 36 32 29 28 26 20 14 15 16 17
52 52 51 51 51 51 51 51 51 52 51 51 51 52 52 52 53 53 54 54 54 52 48 46 46 45 44 43 42 41 39 35 33 32 29 25 24 18 15 17 17 15 15
52 52 52 52 52 51 51 51 51 51 51 51 52 52 51 52 53 51 52 54 52 49 44 41 39 38 38 34 31 28 26 25 27 24 23 20 16 16 19 19 18 19 19
51 51 51 51 51 51 51 51 51 51 51 52 52 51 51 53 52 50 49 50 46 43 40 38 35 32 29 26 26 25 23 21 20 20 19 19 19 19 20 19 18 18 19
50 50 50 51 51 51 51 51 51 52 53 53 54 54 54 51 47 44 44 40 37 35 34 33 32 30 30 30 27 22 21 22 22 21 20 19 18 19 20 17 17 15 17
49 49 50 50 51 51 51 52 53 54 53 49 46 46 45 43 40 40 39 34 31 30 30 30 31 29 29 28 23 20 19 17 14 13 15 16 16 17 18 15 13 15 15
49 51 51 51 52 53 53 51 48 45 42 39 37 36 36 36 36 36 34 32 30 28 27 27 29 29 28 26 22 21 19 17 16 12 10 10 12 12 12 13 12 11 13
53 53 53 53 51 50 47 44 42 39 37 34 32 31 31 32 33 32 31 30 29 26 26 26 28 28 25 22 22 20 19 17 17 15 12 11 10 10 11 12 11 12 12
51 49 47 46 45 44 42 39 37 36 34 32 30 28 28 29 30 30 29 28 26 25 26 27 28 24 21 21 20 18 17 17 17 17 14 10 8 9 10 11 13 12 12
43 41 40 39 38 37 37 36 35 34 32 30 28 26 25 25 25 25 26 26 26 26 27 27 24 21 20 20 18 19 20 18 15 14 13 12 12 13 12 12 13 13 11
39 37 36 34 32 31 30 32 32 33 32 29 28 26 24 22 24 25 25 25 25 26 25 24 21 20 20 21 20 16 15 14 13 12 13 13 13 12 13 13 12 11 10
35 33 32 32 31 29 28 27 29 30 30 29 27 25 25 25 26 26 26 25 24 25 24 23 23 23 21 20 18 15 14 14 12 13 15 15 14 13 12 11 10 9 9
32 31 30 30 28 27 27 26 24 27 28 28 27 27 27 27 27 26 25 24 24 25 23 23 22 20 18 14 15 14 14 17 14 13 12 12 12 11 11 10 9 9 8
30 29 28 28 27 26 26 25 24 23 22 23 26 27 27 26 26 25 25 23 21 23 22 21 19 18 16 15 14 13 13 13 12 12 11 11 11 10 9 8 8 8 6
28 27 27 26 26 26 25 24 24 23 22 22 23 24 25 25 25 24 24 23 19 18 16 16 16 15 15 13 14 13 13 11 10 9 9 9 9 8 7 6 5 5 5
24 25 25 25 26 26 25 25 24 24 24 23 22 21 22 24 21 20 19 19 17 16 15 14 14 13 13 11 11 11 10 9 8 7 7 7 8 8 6 5 5 5 4
23 23 24 23 24 23 23 23 23 22 20 18 18 20 21 19 17 17 15 15 14 13 13 12 12 11 10 9 7 7 6 6 5 4 4 4 5 5 4 4 5 5 4
22 20 20 20 20 20 20 20 20 19 18 16 16 15 15 15 14 13 12 12 12 11 10 9 8 7 6 5 5 4 3 2 2 2 3 3 2 2 3 4 4 4 5
19 18 18 17 17 17 16 16 16 15 15 14 13 12 12 11 11 10 9 9 8 7 6 5 5 3 3 3 3 2 2 1 1 1 1 0 0 1 3 3 2 2 3
16 15 14 13 13 13 13 12 10 10 10 10 10 9 8 7 7 6 6 5 5 5 4 3 2 0 -0 -0 1 1 -1 -1 -0 -1 -0 1 0 -0 1 1 2 2 3
11 10 10 9 8 8 8 7 7 6 6 6 6 6 5 5 4 4 4 3 1 1 1 0 1 -1 -1 -2 -3 -3 -2 -3 -3 -3 -2 -1 -0 0 0 1 1 2 3
6 6 6 5 5 5 4 4 4 4 4 4 4 4 3 2 2 2 1 -0 -1 -2 -1 -1 -1 -2 -3 -3 -3 -3 -4 -5 -5 -5 -3 -1 -0 0 1 2 2 3 3

GFSGL_sfc_30mbdewp_081.txt.gz
Dewpoint
52 53 54 54 55 55 55 56 56 55 54 52 52 52 52 52 52 52 52 53 53 53 54 54 55 56 56 56 56 54 52 51 49 49 50 47 45 44 41 41 43 42 41
50 52 53 54 54 55 55 55 56 55 54 53 53 53 52 52 53 53 53 52 52 52 52 53 56 56 56 56 54 52 51 51 50 49 46 45 45 45 42 41 40 39 37
49 51 53 54 53 54 55 55 55 55 54 54 53 52 51 52 53 53 53 52 52 52 53 54 55 55 54 54 52 51 51 51 50 49 46 43 43 43 42 39 37 36 30
49 50 52 54 54 53 54 54 54 54 54 53 53 52 52 52 52 51 51 52 52 52 54 55 54 53 54 52 50 50 50 49 48 48 44 42 39 38 37 36 34 28 23
51 50 51 54 54 53 53 53 54 54 54 54 53 53 53 52 52 52 51 51 51 53 54 55 55 55 53 52 50 49 47 46 44 43 38 38 35 33 31 29 25 19 20
53 52 51 52 53 53 53 53 53 53 53 53 52 52 52 52 51 50 51 52 52 54 54 54 54 52 51 50 48 48 47 44 42 39 38 36 34 32 27 21 18 18 19
52 52 52 52 53 53 53 53 53 53 53 52 52 52 52 52 51 50 49 52 54 54 53 53 49 47 46 42 37 35 37 37 38 37 34 32 30 26 20 20 22 21 21
51 51 52 53 53 53 53 52 53 53 53 53 53 53 53 53 51 51 50 52 53 53 53 49 45 41 38 37 34 31 30 30 30 32 32 30 27 25 24 22 22 20 21
50 51 51 51 52 53 53 53 53 53 53 53 54 53 53 53 49 49 50 50 46 42 40 39 38 34 33 32 31 30 29 28 29 29 27 24 22 20 20 19 18 18 22
48 50 50 51 52 52 53 53 54 53 53 53 53 51 48 51 46 46 46 41 37 33 33 33 33 32 32 32 30 28 27 25 21 15 12 12 13 16 16 16 14 15 17
45 48 49 50 51 52 52 53 53 52 48 44 40 37 37 39 38 39 38 36 32 30 29 29 30 31 30 30 29 29 27 21 18 18 18 17 15 16 18 17 15 14 16
52 48 49 50 50 51 53 53 48 45 42 37 34 32 32 33 33 33 32 32 31 28 27 28 29 29 28 27 27 27 23 21 20 17 14 12 11 12 12 12 13 14 13
52 49 48 47 46 46 46 43 41 39 37 33 32 29 29 30 30 31 30 29 28 27 28 28 27 26 25 24 24 24 24 24 22 22 20 16 13 12 12 13 14 15 15
42 41 40 39 38 38 37 38 37 36 34 32 29 27 26 26 26 27 27 27 28 28 27 26 26 26 25 23 23 25 25 22 19 18 19 19 15 15 16 15 15 16 17
36 35 34 32 31 30 30 32 32 33 33 30 28 26 25 24 25 26 26 26 26 26 26 25 24 24 23 24 25 24 22 20 19 17 18 18 18 18 18 18 17 16 16
32 31 31 30 29 29 28 27 29 29 29 29 28 26 26 27 28 28 28 28 28 28 26 25 25 25 25 25 24 23 19 17 18 17 17 16 16 16 15 14 13 13 14
31 30 29 29 28 27 26 25 23 27 28 28 28 28 28 28 27 27 27 27 27 29 26 25 25 25 23 22 22 20 20 18 14 15 16 15 15 14 13 12 11 12 12
31 30 29 28 27 26 25 25 24 23 22 23 27 27 27 27 26 25 25 25 24 24 23 22 21 20 18 18 16 16 16 16 16 13 11 12 12 11 10 9 10 11 11
26 27 27 26 26 26 25 24 24 23 22 22 24 24 25 25 26 26 27 24 21 20 18 18 18 18 16 17 16 15 13 13 11 12 12 12 12 9 8 8 8 10 10
25 26 26 26 27 26 26 25 24 23 23 22 21 22 24 24 21 22 22 22 20 18 19 15 15 14 14 14 13 13 11 9 8 7 7 6 7 7 6 7 7 7 7
24 24 24 24 24 24 24 22 21 20 19 19 20 21 22 19 18 18 17 17 15 14 14 14 13 12 10 8 7 7 6 6 5 4 4 5 5 4 4 5 5 6 7
22 22 22 21 21 21 21 21 20 19 18 17 17 18 18 17 15 13 12 13 13 11 10 10 9 7 6 6 5 5 4 3 3 4 3 2 2 1 2 3 4 5 4
20 19 18 18 17 17 18 18 18 17 16 16 15 14 13 12 11 10 10 9 8 9 6 6 5 4 4 4 4 3 3 2 3 3 2 1 0 1 2 2 2 3 4
18 17 15 14 15 15 15 14 12 11 11 11 10 9 8 8 8 7 7 6 6 6 6 4 3 2 1 1 2 2 0 1 1 0 -0 1 0 0 1 1 1 3 3
11 10 10 10 9 9 9 8 8 8 8 8 8 7 7 6 6 6 5 4 3 3 2 2 2 1 0 -1 -1 -1 1 0 -2 -3 -2 -1 0 1 1 1 3 3 4
7 7 7 7 7 7 7 6 6 6 6 6 6 5 5 4 3 4 2 1 -0 0 1 1 1 -0 -1 -1 -1 -0 -3 -4 -4 -4 -3 -2 -0 1 2 3 3 2 2

GFSGL_sfc_30mbdewp_084.txt.gz
Dewpoint
55 54 54 55 56 55 55 54 52 50 50 49 50 50 50 50 50 51 51 50 52 53 54 54 54 56 55 55 56 55 55 54 51 51 50 51 50 47 41 42 42 42 40
54 55 54 55 55 55 55 55 54 52 50 50 49 49 49 50 51 51 50 49 49 51 53 54 55 55 55 55 56 55 55 54 52 50 51 50 48 46 42 41 44 42 42
53 54 55 55 55 55 55 56 56 54 53 51 50 50 50 50 50 50 50 50 51 50 51 53 53 53 54 56 56 55 54 53 52 51 50 48 48 47 43 42 42 41 32
51 53 54 55 55 55 55 55 56 57 56 55 54 53 52 52 52 51 51 52 52 52 52 53 53 53 54 55 55 54 53 51 50 50 49 45 44 42 44 41 38 37 34
51 50 52 54 55 55 55 55 55 55 56 55 54 53 53 53 52 52 51 51 52 52 53 53 53 53 55 55 54 53 52 50 49 48 46 42 41 40 41 39 39 36 32
53 51 51 53 54 54 54 55 55 55 55 55 54 54 53 52 51 50 51 52 52 51 51 52 53 53 53 52 52 52 52 50 48 47 46 43 42 40 39 36 32 29 25
53 53 52 51 52 54 54 54 54 55 55 54 54 53 53 53 51 50 49 51 52 52 52 52 53 53 52 51 47 46 42 41 43 46 45 40 36 34 33 32 31 29 28
52 53 53 53 52 53 54 53 53 53 54 54 54 54 54 53 52 50 49 50 51 52 52 53 53 50 49 47 42 38 34 33 34 35 35 33 34 35 33 32 32 31 29
50 51 53 53 53 53 53 53 54 54 54 53 53 53 53 53 51 50 48 50 51 49 46 45 47 43 39 39 35 32 30 29 31 32 31 31 31 31 31 32 29 27 24
47 50 52 52 53 53 53 54 54 54 54 54 54 52 50 53 48 47 47 48 44 38 34 33 34 34 34 34 33 31 27 26 26 26 26 26 28 26 23 25 23 21 21
53 53 52 52 52 53 53 54 54 54 53 48 44 40 40 41 42 43 44 42 37 33 31 30 30 31 31 31 31 28 26 26 26 25 25 25 27 27 24 19 17 18 18
49 48 47 48 50 52 53 50 49 46 42 38 36 34 32 33 34 36 36 35 33 31 28 29 29 29 29 29 28 27 27 28 27 26 24 22 19 18 19 19 18 18 17
41 39 39 40 40 41 45 45 45 44 41 36 34 31 29 30 31 32 32 31 29 28 28 28 28 27 27 26 27 27 27 26 26 25 25 25 21 17 16 16 17 17 18
36 34 33 32 31 32 33 35 36 36 35 33 31 28 27 27 28 29 29 28 28 27 26 26 25 23 24 25 26 26 25 24 24 24 24 24 25 25 23 22 21 20 20
33 32 31 30 29 28 27 28 30 30 33 31 29 27 25 24 26 28 28 26 25 25 25 25 23 23 23 24 25 24 24 25 23 23 22 23 22 21 19 19 18 17 16
31 30 30 29 28 27 26 25 29 29 28 28 28 27 28 29 29 29 28 27 27 28 25 24 24 25 25 24 23 23 22 22 21 20 18 17 17 16 16 15 15 15 15
30 30 29 28 27 27 26 24 23 26 29 28 28 28 28 28 28 28 29 29 30 28 25 24 23 22 22 23 22 21 18 17 18 17 16 16 15 14 13 13 12 13 12
27 27 26 26 26 25 24 24 24 22 22 23 26 26 27 27 27 28 28 25 23 24 23 22 21 21 21 20 18 17 16 16 13 12 13 13 13 12 11 10 10 10 10
27 26 26 25 25 25 24 24 23 22 22 22 23 24 25 25 25 25 24 22 21 20 20 19 19 19 18 17 17 15 15 14 13 11 11 10 9 9 8 8 8 7 7
25 26 27 26 26 25 24 23 22 22 22 22 22 21 21 19 17 17 18 18 18 18 18 17 16 16 15 13 13 12 9 9 8 8 7 7 8 7 6 6 6 6 6
23 23 24 23 22 22 21 19 19 18 17 17 18 19 19 16 15 15 15 15 15 14 15 14 13 12 10 10 10 9 7 6 6 6 6 5 4 3 4 4 5 6 6
21 20 20 19 20 20 20 20 19 18 17 16 16 17 17 16 14 13 13 12 11 11 11 12 10 10 9 8 7 6 5 5 6 5 4 4 3 3 4 5 4 3 3
19 19 18 18 17 17 17 17 16 16 15 14 13 12 12 12 12 11 11 12 11 10 8 8 6 7 4 5 7 6 5 6 5 2 2 1 2 3 3 3 3 3 3
17 16 14 14 14 14 14 14 13 12 12 12 11 11 11 11 10 9 8 7 8 8 6 6 7 2 3 2 1 1 4 3 1 1 -1 -1 -0 1 2 2 2 2 3
12 12 12 12 11 11 11 11 10 10 11 11 10 10 10 9 9 7 8 5 3 4 4 6 3 2 0 -0 2 1 -2 -3 -4 -3 -2 -1 -0 -0 1 3 4 5 3
10 10 10 10 10 10 9 9 9 9 9 8 8 8 7 6 7 5 4 -0 0 3 2 2 3 0 0 2 -1 -3 -4 -4 -3 -1 -2 -0 0 1 3 3 1 2 3

GFSGL_sfc_30mbdewp_087.txt.gz
Dewpoint
53 55 55 55 53 53 51 50 50 49 49 48 49 51 51 51 52 52 51 52 53 52 52 53 52 52 52 54 55 54 54 54 51 50 51 51 51 50 49 48 47 46 44
54 54 54 54 55 54 53 52 51 50 49 48 49 50 51 51 51 51 50 50 51 52 52 53 53 54 53 53 53 53 53 53 52 50 51 51 51 51 50 46 46 45 43
54 54 54 53 54 56 54 54 53 51 50 49 49 49 48 49 49 50 50 50 50 50 51 52 52 53 53 53 54 53 54 54 54 52 51 51 51 49 46 43 43 42 42
54 54 54 53 53 54 56 55 55 54 52 50 49 49 48 47 48 49 49 50 50 50 49 50 51 53 53 53 54 54 54 54 53 52 52 51 48 47 47 45 41 41 39
51 54 54 54 54 54 53 55 55 55 54 52 50 49 48 47 46 47 49 49 50 49 49 50 51 52 52 53 53 54 54 54 52 51 50 49 46 42 45 45 44 42 38
50 50 54 55 55 55 54 54 54 55 56 55 53 52 50 49 48 48 48 49 49 49 50 51 52 51 51 51 52 53 54 53 52 51 50 48 45 46 47 44 42 36 36
52 51 50 53 55 55 55 55 55 54 54 56 56 55 54 53 51 49 49 51 51 51 51 51 52 52 51 51 49 49 45 43 42 50 49 49 47 44 39 35 34 33 32
54 53 52 51 53 54 54 55 55 55 55 54 55 55 55 55 53 51 49 50 52 52 52 52 52 51 50 50 48 42 35 33 34 36 37 34 35 36 35 34 33 32 32
52 52 53 54 53 52 54 54 54 54 54 55 55 55 54 54 52 51 49 50 50 51 49 47 51 50 48 47 43 35 31 29 33 33 33 33 33 33 34 32 30 30 28
49 48 48 47 54 55 53 53 54 54 53 54 54 55 55 54 53 51 49 52 50 44 38 38 40 43 40 40 39 33 29 27 28 28 27 28 29 30 31 31 31 28 28
44 43 42 42 44 47 52 54 54 54 54 53 49 41 40 40 40 42 46 47 46 38 34 32 32 34 34 33 32 29 27 27 27 26 26 27 28 28 27 27 28 27 25
39 38 37 36 36 38 41 44 45 50 48 44 40 35 33 33 35 36 36 36 36 33 30 30 31 31 30 29 28 28 28 28 27 26 26 26 26 25 25 24 22 20 20
35 34 33 31 31 32 33 34 36 38 39 37 36 33 30 30 31 31 31 30 30 29 29 30 30 29 28 28 28 28 27 26 26 25 24 23 24 25 26 26 26 26 26
33 31 30 29 28 28 29 30 29 30 33 32 29 27 27 27 28 28 27 27 26 24 24 25 26 26 26 25 25 25 25 25 24 23 22 24 25 25 23 23 21 20 19
31 31 29 28 27 27 27 28 28 28 30 28 27 27 26 25 27 27 25 24 24 24 24 24 24 24 23 23 23 24 23 23 22 22 21 21 21 20 18 18 16 16 15
29 29 29 28 27 26 25 26 29 29 29 29 29 27 28 28 28 28 28 28 28 27 25 24 24 23 22 22 20 19 20 20 20 19 19 18 16 15 14 14 13 13 12
27 26 26 25 25 25 25 23 22 25 28 28 29 29 29 29 29 29 28 27 27 25 22 22 21 21 20 20 19 18 17 16 15 14 14 14 14 13 12 11 11 10 9
26 25 25 25 24 24 23 23 23 22 21 22 26 28 28 27 27 26 25 23 21 21 20 19 19 18 18 17 17 16 14 14 15 14 12 10 10 10 9 8 8 7 7
26 26 25 25 24 24 23 23 22 22 21 20 20 20 22 22 22 22 21 19 17 17 17 16 17 16 16 15 14 13 12 10 9 8 9 8 6 6 5 6 6 5 6
24 24 22 22 21 21 20 19 18 18 18 18 17 17 17 16 14 14 15 16 15 15 15 14 13 12 12 11 10 10 9 8 8 7 5 3 3 4 4 4 4 5 6
20 21 21 21 20 19 18 18 17 16 16 15 15 16 16 13 12 12 11 11 11 12 12 11 10 10 9 8 7 6 6 6 6 4 4 3 1 2 3 4 4 4 4
19 18 18 18 17 17 16 16 15 14 14 13 13 14 14 13 12 11 10 9 9 10 9 9 7 7 7 7 6 5 5 3 1 0 0 0 1 2 2 2 2 2 2
17 17 17 16 16 16 15 15 14 13 12 12 11 10 9 9 8 8 8 9 7 6 8 5 3 3 3 1 2 5 3 1 0 -2 -2 -2 -2 -1 0 1 0 0 1
16 15 14 13 12 12 12 12 12 11 11 10 9 9 9 8 6 5 4 4 5 5 6 4 3 1 -0 -1 1 2 -1 -4 -3 -4 -5 -4 -2 -0 -1 -2 -0 1 3
12 12 11 11 11 10 9 9 9 8 8 8 8 7 7 6 4 1 -1 -0 3 4 4 2 1 -1 -0 0 -2 -4 -5 -5 -6 -5 -5 -5 -4 -4 -2 -0 2 0 -1
9 9 9 8 8 6 6 6 5 4 3 5 5 2 3 4 0 -2 -1 -1 -0 -0 -1 -1 1 -0 1 -1 -2 -3 -2 -1 -2 -2 -2 -2 -3 -2 -1 -2 -1 -0 1

GFSGL_sfc_30mbdewp_090.txt.gz
Dewpoint
55 55 54 54 52 51 50 48 47 48 49 49 50 52 53 53 53 53 53 54 53 52 53 53 53 52 52 53 54 53 53 52 49 50 51 51 51 51 52 53 53 52 51
54 55 55 54 53 52 51 50 49 47 48 48 49 50 51 52 52 52 51 51 53 52 52 52 52 52 52 52 52 52 52 53 51 49 50 52 51 51 51 50 49 49 48
53 55 55 55 54 53 52 51 50 49 48 48 48 48 49 50 50 50 51 50 50 51 52 51 51 52 52 51 52 51 52 52 52 51 50 51 52 50 50 49 49 48 48
53 53 54 54 55 54 53 53 52 51 50 49 48 48 48 48 49 49 50 49 50 50 50 51 51 51 52 51 52 52 52 51 51 51 51 51 51 50 50 49 46 45 46
54 53 53 53 53 54 55 54 54 53 51 50 49 49 49 48 48 48 49 49 49 49 50 50 50 51 51 51 51 51 52 52 52 51 51 51 50 45 48 48 48 48 42
54 54 54 53 53 53 53 55 55 54 54 52 51 50 49 49 48 46 47 47 47 48 48 49 49 49 49 49 49 49 50 52 51 51 50 50 49 49 49 47 47 42 41
53 53 54 55 54 54 54 54 54 55 55 55 53 52 50 50 48 46 45 46 46 47 47 48 48 49 49 49 48 47 47 45 47 51 51 51 51 50 49 44 41 39 37
51 52 52 53 55 55 54 54 54 54 54 54 55 54 53 52 50 48 46 46 46 46 47 48 49 49 50 51 50 48 44 40 39 40 43 42 39 39 41 39 35 33 32
45 45 46 47 50 53 55 55 55 54 54 54 54 55 55 54 53 51 49 49 49 49 50 51 51 51 51 49 48 44 36 32 34 34 34 34 34 35 35 35 33 33 29
41 41 41 42 45 45 47 51 56 55 55 56 55 55 54 55 55 52 51 53 52 51 51 46 44 49 50 48 49 41 36 30 29 29 29 29 29 29 30 32 31 29 27
38 37 36 36 38 39 42 43 44 48 55 55 54 43 38 35 38 38 47 51 52 51 48 36 34 36 38 38 41 39 35 29 28 27 27 27 27 27 27 28 28 28 27
35 33 32 31 32 34 36 37 38 39 40 38 36 33 32 32 32 32 34 37 44 41 32 31 31 31 30 30 29 29 29 28 27 26 25 24 24 24 25 26 27 26 26
32 30 29 28 29 29 30 31 34 36 35 32 30 28 28 29 29 30 30 30 31 30 30 29 29 28 27 28 28 28 28 27 25 23 22 23 24 25 26 26 26 26 26
31 29 28 27 27 28 28 28 28 31 31 31 30 28 27 26 26 26 25 26 26 26 26 25 25 25 25 25 25 25 25 24 23 22 22 23 23 21 20 21 19 19 19
29 29 27 27 26 26 27 28 28 28 29 27 27 27 25 24 26 26 25 24 25 26 25 24 23 23 22 22 22 22 22 22 20 21 20 19 19 18 17 17 15 14 13
27 27 27 26 25 24 24 25 28 29 29 29 28 27 28 29 29 28 29 28 28 27 24 22 21 20 19 19 19 19 19 19 18 18 17 17 15 14 13 12 12 11 10
26 25 25 25 24 24 23 22 22 23 25 28 29 29 29 28 27 27 26 26 26 23 20 20 19 19 18 18 17 16 15 16 17 15 14 13 12 11 11 9 8 7 6
25 25 25 24 24 23 22 21 20 18 17 18 22 23 24 24 24 23 23 20 18 19 18 17 16 16 17 16 15 15 14 13 12 11 9 9 10 9 7 6 6 6 5
23 23 23 23 22 22 21 20 19 18 17 17 17 17 19 19 19 19 18 16 15 14 15 14 14 14 13 13 12 11 10 9 9 7 5 4 5 5 5 5 5 5 5
21 21 20 20 19 18 18 17 16 15 14 13 13 14 15 13 11 11 12 13 13 12 12 11 11 11 10 10 10 9 8 8 6 4 2 2 3 4 4 4 3 3 4
19 19 19 18 17 17 16 15 15 13 12 12 12 13 12 10 9 9 9 9 9 9 9 8 7 8 8 7 6 5 4 3 3 2 1 1 1 1 2 2 1 1 3
18 17 17 16 16 15 15 14 13 12 12 10 10 10 9 9 8 7 6 6 7 7 6 5 5 4 4 4 4 1 -0 -1 -2 -2 -2 -1 -1 -0 -0 -1 -1 -1 1
16 15 15 14 14 14 13 12 11 10 9 9 8 7 6 5 4 4 4 4 4 4 3 1 0 -0 1 2 2 0 -1 -2 -3 -5 -5 -5 -3 -2 -3 -3 -1 -0 0
14 13 12 11 11 10 10 9 9 9 8 7 7 6 4 1 0 0 1 2 2 2 1 -0 -1 0 1 -2 -2 -2 -3 -6 -5 -5 -5 -4 -3 -3 -4 -2 -1 -0 -1
10 10 9 8 8 7 7 6 6 6 5 5 4 4 2 -1 -2 -2 -1 0 1 1 0 -1 -1 -1 -2 -3 -4 -5 -4 -4 -4 -4 -4 -4 -5 -4 -4 -3 -3 -2 -2
8 7 7 6 5 5 4 3 2 3 2 2 1 -0 -1 -3 -3 -4 -4 -3 -3 -2 -0 -0 -1 -0 -1 -2 -2 -2 -2 -4 -5 -6 -6 -4 -5 -5 -5 -4 -3 -2 -1

GFSGL_sfc_30mbdewp_093.txt.gz
Dewpoint
53 52 53 53 51 51 50 49 50 50 50 50 50 51 50 50 52 52 51 52 51 50 52 51 51 52 52 53 53 53 52 52 50 50 49 50 51 52 53 53 53 52 51
54 53 53 54 52 51 51 49 48 49 50 50 50 50 50 51 51 51 52 52 51 50 51 51 51 52 52 53 53 53 52 52 51 49 50 50 50 51 51 51 52 53 53
55 54 53 54 53 52 51 50 48 48 48 49 49 50 50 51 52 52 51 51 52 52 52 51 51 52 51 52 52 52 52 52 52 51 50 50 51 51 51 51 51 51 50
54 55 53 54 54 53 52 51 50 49 48 48 48 49 49 50 51 52 52 51 51 51 52 52 51 51 51 51 51 51 51 51 51 51 51 50 50 50 50 50 49 48 49
54 53 54 55 55 54 53 52 52 51 50 49 48 48 48 48 49 49 50 49 50 50 50 50 51 51 51 51 51 51 51 51 50 50 49 50 49 49 48 49 50 50 49
54 54 54 54 54 54 55 53 53 52 52 51 50 49 48 48 47 46 48 48 48 48 48 49 50 49 49 49 49 49 50 50 50 49 49 48 48 49 50 49 49 48 45
53 54 54 54 54 54 54 54 55 54 54 52 51 51 50 49 48 47 46 47 47 48 48 48 48 49 48 49 48 47 48 47 47 48 48 48 48 49 50 50 49 49 48
44 45 45 47 50 53 55 54 54 54 55 55 54 53 52 51 49 47 46 47 47 48 48 48 48 47 47 48 48 48 46 47 47 46 47 49 50 47 47 47 50 41 33
40 40 41 41 44 45 48 50 55 54 54 55 55 55 55 53 52 49 47 47 47 48 48 47 47 47 47 46 47 47 47 43 36 36 35 34 34 35 38 40 37 36 32
37 36 36 36 38 39 41 43 45 48 53 55 54 54 52 48 36 38 44 50 49 48 48 48 46 46 47 46 47 48 47 39 32 29 28 29 29 29 29 30 34 34 28
34 32 31 31 33 33 34 36 39 42 43 41 36 33 32 31 32 33 35 39 48 50 49 45 33 34 37 41 44 47 47 31 28 27 27 26 26 26 26 27 27 27 24
31 29 29 29 30 30 31 32 34 35 35 34 33 30 29 29 30 31 32 34 37 34 31 31 31 31 30 30 30 30 30 28 26 25 23 23 23 24 25 26 26 26 26
30 28 28 28 28 29 29 29 30 31 32 31 31 30 28 29 28 29 29 30 30 28 28 28 28 28 28 27 28 28 27 26 24 22 21 21 22 23 23 23 24 24 23
29 27 27 27 27 28 28 28 27 28 28 28 27 26 26 26 26 26 27 27 27 26 26 25 25 24 24 24 23 23 23 23 22 20 19 20 20 19 18 20 19 20 18
28 27 27 26 26 26 27 27 27 28 28 26 25 25 24 24 26 27 26 26 25 26 24 23 22 21 20 20 20 20 20 20 19 19 18 17 17 16 15 17 16 16 13
26 26 26 25 25 25 23 23 26 27 28 29 29 28 28 29 27 27 26 25 25 23 20 19 18 18 17 16 16 16 17 16 17 16 16 15 14 13 12 11 11 10 8
25 25 25 25 24 24 22 21 18 19 22 24 25 25 25 25 24 23 22 22 20 18 17 17 16 16 16 15 15 14 13 14 14 13 12 12 11 10 9 6 6 6 5
24 24 23 23 22 22 20 19 17 16 15 15 18 22 23 22 21 21 19 16 15 15 15 14 14 14 14 13 13 12 12 11 10 9 9 9 9 8 7 5 5 6 4
21 21 20 20 20 19 17 16 15 14 13 13 13 14 15 17 16 16 15 13 12 12 12 12 12 12 12 11 10 9 8 6 5 4 4 4 5 5 5 4 4 4 3
19 19 18 18 17 17 16 15 14 13 12 11 10 11 12 10 9 9 10 10 9 9 9 9 9 9 9 9 8 8 6 6 5 3 2 2 3 3 2 1 1 1 3
17 17 16 16 15 15 14 14 13 12 10 9 8 10 10 8 7 6 7 7 6 6 6 6 6 5 6 5 4 2 1 0 0 -0 1 0 -1 0 0 -1 -1 1 1
16 16 15 14 14 13 13 13 11 10 9 8 7 6 6 6 5 5 4 3 4 4 3 2 2 3 2 2 0 -1 -3 -3 -4 -4 -3 -2 -2 -3 -3 -2 -2 -1 -1
14 13 12 13 12 11 11 10 9 8 7 6 5 4 3 3 2 2 1 2 2 0 1 -0 0 0 -1 -2 -2 -2 -4 -4 -5 -7 -6 -4 -3 -4 -4 -2 -2 -2 -2
11 11 10 9 9 8 8 7 7 7 6 5 2 1 0 -0 -1 -0 0 1 0 -1 -2 -1 -0 -0 -2 -4 -4 -3 -5 -6 -6 -6 -6 -5 -5 -4 -4 -3 -3 -3 -3
8 8 7 6 6 5 4 4 4 4 3 2 2 -0 -1 -1 -1 -3 -2 -2 -2 -1 -1 -2 -2 -3 -4 -5 -4 -3 -2 -4 -5 -6 -6 -6 -5 -5 -5 -4 -4 -4 -3
6 5 4 4 3 3 2 1 1 1 0 -1 -2 -3 -4 -4 -4 -4 -4 -3 -3 -2 -2 -2 -3 -2 -2 -2 -2 -3 -5 -6 -6 -6 -6 -5 -5 -5 -6 -5 -4 -4 -3

GFSGL_sfc_30mbdewp_096.txt.gz
Dewpoint
53 54 53 52 52 51 50 51 51 51 51 52 52 52 52 53 54 54 53 53 51 51 51 51 51 51 51 51 52 52 51 51 48 48 49 50 52 52 53 53 52 52 52
53 53 53 53 52 51 50 50 50 51 51 51 51 51 51 51 52 53 53 53 53 52 51 51 50 51 51 52 52 52 52 52 50 48 50 50 50 51 51 52 52 53 52
53 53 53 53 52 51 51 50 49 50 50 50 50 51 51 51 50 51 52 52 51 52 52 51 50 50 50 51 52 51 52 52 52 51 50 50 51 51 51 51 51 52 52
54 53 53 53 53 52 51 50 49 48 49 49 50 50 50 50 51 51 50 50 51 51 51 51 50 50 50 50 51 51 51 51 52 51 51 50 51 51 50 50 50 49 50
55 54 53 53 54 53 52 51 50 49 48 48 49 49 49 50 50 50 51 51 50 50 50 51 51 51 51 51 50 50 51 51 50 50 50 50 50 50 49 50 49 50 50
54 53 54 54 54 54 53 52 52 51 50 49 48 48 48 48 48 49 50 50 51 51 50 50 51 50 50 49 49 49 49 49 49 49 48 48 48 49 50 49 49 48 47
47 47 48 52 54 54 55 54 53 52 52 51 50 49 48 48 47 47 46 48 49 49 49 49 48 49 49 49 48 47 47 47 47 48 48 48 48 49 49 48 49 49 48
40 40 41 43 45 46 50 53 54 55 54 53 52 51 51 51 49 47 46 46 47 47 48 48 48 48 48 48 48 48 47 47 47 47 48 49 49 49 48 48 48 46 35
36 35 36 38 39 40 41 42 44 45 52 55 55 54 53 52 37 42 46 47 48 48 49 48 48 48 48 47 47 47 47 47 37 39 35 33 32 32 36 42 43 42 37
32 32 32 33 34 34 36 37 39 42 42 43 38 34 34 35 34 36 39 45 48 49 49 49 42 41 43 44 46 46 46 46 32 29 28 28 28 28 28 29 34 39 31
30 30 30 31 31 32 33 34 35 36 36 33 31 30 30 31 32 33 34 39 41 38 34 32 31 32 34 36 39 40 39 31 28 27 26 25 25 26 26 26 26 26 23
29 29 29 29 30 30 30 31 31 33 32 31 30 29 29 28 30 31 32 34 35 33 30 29 29 29 30 30 31 31 30 29 27 25 24 22 21 22 22 23 23 22 22
28 27 27 28 28 28 28 28 29 29 29 28 27 26 26 27 27 28 28 28 28 26 26 26 25 25 25 25 24 25 25 24 22 20 19 18 19 21 23 23 22 20 19
28 26 26 26 26 27 28 27 26 26 26 25 24 24 25 26 26 26 26 26 25 25 24 23 22 21 21 20 20 20 20 20 19 18 17 18 18 18 17 19 18 18 16
27 26 26 26 24 23 24 25 26 27 27 26 26 26 25 25 26 26 25 24 23 21 20 19 18 17 17 17 17 17 18 18 17 17 16 15 15 15 14 16 15 14 11
26 25 26 25 25 23 21 20 23 25 26 26 26 25 26 26 25 24 23 21 20 19 17 16 15 15 15 15 14 14 14 14 15 15 14 14 12 11 10 11 11 9 7
24 24 24 23 22 21 19 18 16 17 19 22 23 24 24 23 22 22 20 19 18 16 15 14 14 14 14 13 13 12 11 12 12 11 11 11 10 9 8 7 8 7 6
20 21 20 20 20 18 16 15 14 13 13 13 16 19 19 19 19 18 16 14 13 13 12 12 12 12 12 11 11 10 9 8 8 7 8 8 8 7 6 5 5 5 3
19 19 18 18 17 16 15 14 14 13 12 11 12 12 14 16 15 14 12 11 10 10 10 10 11 10 10 9 8 7 6 5 4 4 5 5 5 4 3 3 2 2 2
17 17 17 16 15 14 14 13 11 10 9 8 8 8 10 8 8 8 8 8 7 7 8 7 7 7 7 7 6 5 4 4 4 3 2 2 2 2 1 0 1 1 2
16 16 16 15 14 14 13 12 10 9 7 6 5 8 7 6 5 5 5 5 4 4 4 4 4 4 4 2 1 0 -1 -1 -0 0 0 0 -1 -1 -0 0 0 1 0
14 14 14 13 12 12 11 10 8 7 6 5 5 4 4 4 3 3 2 2 3 3 3 2 2 1 1 -0 -1 -3 -4 -5 -4 -4 -3 -2 -2 -3 -2 -1 -2 -3 -1
12 12 11 11 10 9 9 8 7 5 4 3 2 2 1 1 1 1 -0 0 -0 -0 1 1 0 -1 -2 -3 -3 -3 -4 -5 -5 -7 -5 -4 -4 -3 -3 -3 -3 -3 -3
9 9 8 7 7 6 5 5 5 3 2 0 -0 -0 -1 -1 -2 -1 -1 -1 -1 -2 -2 -1 -1 -2 -3 -5 -4 -2 -4 -5 -5 -6 -7 -5 -4 -4 -4 -4 -3 -3 -3
6 6 5 4 4 3 2 2 1 1 -0 -1 -2 -2 -2 -2 -3 -4 -3 -3 -2 -2 -2 -3 -3 -3 -4 -4 -4 -4 -4 -6 -7 -7 -7 -6 -6 -5 -5 -4 -4 -4 -4
4 3 3 2 2 1 1 0 -1 -1 -2 -3 -4 -5 -5 -5 -5 -5 -4 -4 -4 -3 -3 -5 -4 -4 -3 -2 -2 -4 -6 -6 -7 -7 -7 -5 -5 -6 -6 -5 -4 -4 -3

GFSGL_sfc_30mbdewp_099.txt.gz
Dewpoint
54 54 54 53 53 53 53 53 53 53 54 54 54 54 53 53 54 53 52 52 50 49 51 53 52 51 51 51 51 50 49 50 47 45 47 50 53 52 52 53 52 51 51
54 55 54 54 53 52 52 53 53 53 53 54 53 53 53 52 53 53 53 52 51 50 50 51 51 51 50 51 51 51 51 51 48 46 48 50 51 53 53 52 52 52 52
54 54 54 53 53 52 52 52 52 52 53 53 53 52 52 53 53 54 53 53 52 52 52 51 51 51 51 51 52 51 52 52 52 49 48 49 51 52 52 52 52 52 52
54 53 53 53 53 53 52 52 51 52 52 52 52 52 53 52 52 53 53 53 53 53 53 53 52 51 51 51 51 51 51 51 51 51 50 50 50 51 52 51 51 52 51
54 54 53 54 54 53 53 52 51 51 51 51 51 51 52 52 52 52 51 51 52 52 52 52 53 53 51 51 51 50 50 50 50 50 50 50 50 51 51 51 51 51 51
55 54 54 54 54 54 53 53 52 51 51 50 50 50 51 51 50 50 51 52 51 51 50 51 51 50 50 49 49 49 49 50 50 49 48 48 48 49 49 49 50 49 48
42 43 45 48 49 51 54 53 53 53 52 51 50 50 50 50 48 48 48 50 51 51 51 51 51 51 50 51 49 47 47 47 47 48 48 48 48 48 49 48 49 49 49
37 37 39 41 42 43 44 45 46 49 53 52 52 51 51 44 39 44 46 48 50 50 51 51 51 50 50 50 50 50 49 49 48 46 48 49 49 41 43 46 48 49 46
33 33 34 36 36 38 39 40 41 44 43 39 38 40 43 35 35 36 41 45 47 48 49 49 44 46 46 43 48 48 47 48 35 37 34 31 31 31 32 38 41 43 42
31 31 32 33 33 35 36 37 38 39 36 35 33 32 32 32 33 35 37 43 46 46 35 33 32 34 36 38 43 44 45 45 34 30 28 27 27 27 26 27 30 35 37
30 31 31 31 31 32 33 34 35 34 33 31 30 29 29 30 31 32 35 38 37 32 30 28 29 31 31 32 33 36 37 32 30 27 25 24 23 23 22 22 22 22 22
29 29 29 29 29 30 31 31 31 32 30 29 28 27 28 29 29 29 29 29 29 27 26 27 27 27 26 27 27 27 26 25 23 22 20 20 21 21 21 20 20 20 20
28 27 27 27 28 28 28 29 28 28 28 28 27 27 27 28 28 27 27 26 26 25 25 24 23 23 23 23 22 22 22 21 19 18 18 18 20 22 22 21 21 20 19
27 26 25 24 25 25 26 26 27 27 26 26 26 26 26 27 27 27 27 26 25 24 22 22 22 21 21 22 22 22 22 21 21 20 19 20 20 19 19 20 19 18 14
26 26 25 24 22 22 24 25 25 27 26 25 25 25 24 24 25 24 24 24 23 21 21 21 20 20 20 19 19 19 20 20 19 19 18 17 16 14 14 14 12 10 9
25 25 25 24 23 21 20 21 23 24 24 24 24 24 25 25 24 22 21 20 19 19 20 19 18 18 17 17 17 16 16 16 16 16 14 11 10 9 10 9 9 8 7
23 24 23 22 21 20 20 19 18 18 20 22 22 23 22 21 21 20 19 18 17 18 17 16 16 16 15 14 14 13 11 11 11 10 10 10 9 8 8 8 8 7 4
21 20 21 20 20 19 18 17 17 17 16 16 17 20 20 19 19 17 16 17 16 15 15 15 15 14 12 10 8 8 7 8 7 6 7 8 8 7 5 3 4 5 2
20 19 19 19 18 18 17 16 16 15 14 14 15 14 14 15 14 14 14 14 14 13 12 12 11 10 9 8 8 7 6 6 6 6 6 5 6 4 3 3 2 3 2
18 17 18 18 17 16 16 14 13 12 11 11 10 11 12 12 11 10 10 11 10 9 9 8 7 8 8 7 7 6 5 5 4 4 5 5 5 4 3 3 3 3 1
17 16 16 16 15 14 14 12 11 10 9 8 7 8 7 8 7 7 6 7 7 7 7 6 6 6 5 5 4 3 2 2 2 3 3 3 3 2 2 2 2 1 0
16 15 15 14 14 13 12 11 10 9 8 7 7 4 5 6 4 3 3 4 5 5 5 5 4 3 3 2 2 2 0 -0 -0 1 1 1 1 1 2 1 1 1 1
14 13 13 12 11 11 10 9 7 6 5 4 4 3 3 3 3 2 2 3 2 3 3 3 2 1 1 1 1 0 -1 -2 -2 -1 -1 0 0 1 2 1 0 0 0
11 11 9 9 9 8 7 6 4 3 3 3 3 3 2 2 2 2 2 2 2 2 2 1 -0 -1 -1 -0 0 -0 -2 -1 -1 -2 -1 -1 -0 -0 0 -0 0 0 0
9 8 7 7 6 6 5 4 4 3 2 2 2 2 1 1 1 1 1 1 1 1 0 0 0 -0 -1 -2 -2 -2 -3 -4 -3 -4 -2 -2 -1 -1 -1 -1 -0 -0 -0
5 5 5 5 5 5 4 4 3 2 1 1 0 -0 -0 -1 -1 -1 -1 -1 -1 -1 -2 -2 -1 -1 -1 -1 -1 -3 -4 -5 -4 -5 -2 -1 -1 -1 -1 -1 -1 -0 -0

GFSGL_sfc_30mbdewp_102.txt.gz
Dewpoint
55 56 56 56 55 54 54 54 54 55 55 55 55 56 55 55 55 55 54 53 53 53 53 53 52 52 52 52 53 52 50 50 46 43 45 48 48 53 51 51 50 53 52
55 56 56 56 55 54 54 54 54 53 54 55 55 55 54 54 55 55 54 53 52 52 52 51 50 50 50 51 52 51 50 50 49 47 45 47 48 49 52 51 52 51 52
55 55 55 55 54 53 53 54 54 54 53 53 54 54 53 53 54 54 53 53 52 51 51 50 50 52 52 52 51 51 51 50 51 50 46 48 50 50 50 51 52 53 53
55 55 54 54 54 52 53 53 53 53 53 53 53 54 54 54 54 54 54 53 52 52 51 51 51 51 51 51 51 51 50 50 51 51 50 50 48 48 48 48 49 51 50
55 54 54 53 53 53 52 52 53 53 53 53 53 53 54 54 54 54 53 53 53 53 53 53 52 50 50 50 50 51 51 51 51 51 50 49 48 48 47 48 49 50 50
48 49 54 54 54 54 53 53 53 53 52 52 52 53 53 53 53 52 53 53 53 53 53 53 53 52 53 50 50 50 52 52 51 50 49 48 49 49 49 49 49 50 49
40 41 42 46 48 49 54 54 53 53 53 52 52 52 51 50 41 46 50 52 53 53 53 53 53 52 52 52 50 48 48 48 48 50 50 50 50 50 49 49 49 49 49
35 37 38 39 40 42 43 44 46 48 47 49 47 52 44 36 36 38 43 47 50 51 52 51 51 52 49 48 51 51 50 50 48 48 48 47 40 36 38 42 43 43 44
33 34 36 36 37 38 39 40 41 41 38 36 36 37 36 34 34 35 39 46 47 48 38 34 36 39 36 38 45 48 48 39 34 33 32 31 29 28 29 37 40 40 41
32 32 33 35 35 36 37 38 37 35 34 32 31 31 31 31 32 34 40 43 44 34 31 30 31 32 32 34 39 41 43 37 31 28 26 25 25 25 24 25 27 32 34
31 31 31 32 33 34 34 35 34 33 31 30 29 30 29 30 30 31 33 35 31 29 27 27 29 29 29 29 30 31 33 30 27 26 24 24 22 22 23 23 23 24 23
30 29 29 30 31 32 32 32 33 32 30 30 29 29 29 29 28 28 28 29 28 26 25 26 27 26 26 26 25 25 25 25 23 22 21 22 22 21 22 22 22 22 23
29 28 28 28 28 28 30 30 30 31 31 30 30 29 29 30 29 27 26 26 26 26 26 25 25 25 25 25 24 24 24 23 22 21 21 21 22 24 24 23 23 22 19
27 26 26 25 26 27 26 27 28 28 28 28 28 28 28 28 29 29 29 28 27 26 26 25 25 24 24 25 26 25 26 26 25 23 23 23 23 22 21 21 20 20 15
27 26 25 24 24 23 24 26 25 26 27 27 27 27 26 25 24 25 27 26 26 25 27 27 25 24 23 23 22 22 22 22 22 22 21 20 19 17 15 15 13 11 8
26 25 26 25 24 23 21 21 23 24 24 25 25 25 24 24 22 22 22 22 23 25 25 23 22 22 22 21 21 20 19 19 18 18 16 14 12 12 11 11 10 7 5
24 24 24 24 23 23 23 22 20 20 20 22 22 23 23 22 21 21 20 20 22 23 22 21 20 20 19 17 16 14 13 12 12 12 12 13 11 10 11 10 10 8 4
23 24 24 24 23 23 22 22 22 20 19 18 17 19 19 19 19 19 20 21 20 19 18 18 17 15 12 10 9 10 10 11 10 9 11 11 11 10 8 6 7 7 3
21 22 22 21 21 21 21 21 20 19 19 18 19 18 17 17 17 17 18 18 17 15 13 12 12 11 10 10 11 10 10 9 10 11 10 9 10 8 7 7 6 5 4
20 19 20 20 20 20 19 19 18 18 17 16 15 15 17 17 16 15 15 14 13 11 10 9 9 9 10 9 10 9 9 8 7 7 9 9 9 8 7 6 7 6 3
19 19 19 19 19 18 18 17 17 16 15 14 12 11 11 14 12 11 10 10 10 9 10 9 9 9 8 8 7 7 7 7 6 6 7 6 7 7 6 5 5 4 2
18 18 18 17 17 17 16 15 15 14 13 13 11 8 8 10 8 7 7 8 9 8 8 8 7 6 6 6 6 6 5 5 5 5 5 4 5 5 5 4 5 5 4
17 17 16 15 15 14 14 13 13 12 10 9 7 7 7 7 7 6 6 6 6 6 6 6 5 4 4 5 5 4 3 3 3 3 4 4 4 5 5 5 3 4 4
14 14 13 13 13 12 12 10 7 6 7 8 7 7 6 6 6 5 5 5 5 5 5 4 2 1 1 3 4 2 1 1 2 2 2 3 3 3 4 3 3 3 3
12 12 11 11 10 10 9 8 8 7 7 7 6 5 4 4 4 4 4 3 3 3 2 2 2 1 1 -0 -0 -1 -2 -2 -1 -1 2 2 2 2 2 2 2 3 2
8 8 9 9 9 8 8 7 7 6 5 5 4 4 4 3 2 3 2 1 1 0 -0 1 0 -0 -0 0 -0 -0 -2 -3 -3 -3 -1 2 2 2 2 2 1 2 2

GFSGL_sfc_30mbdewp_105.txt.gz
Dewpoint
57 57 57 58 57 56 54 54 55 55 54 55 56 57 57 57 57 57 56 56 55 55 55 55 55 55 54 54 55 54 52 51 48 47 46 46 51 52 50 52 54 55 55
56 56 57 58 57 55 54 54 55 55 54 54 55 56 56 56 56 55 54 54 54 53 53 54 53 54 54 54 54 53 52 51 49 47 47 47 46 49 52 52 53 51 52
56 57 57 57 56 55 53 54 54 54 54 54 54 55 54 55 55 55 55 54 54 53 54 53 52 52 52 53 53 52 52 51 52 50 50 51 49 49 49 51 52 53 54
56 56 56 56 56 55 52 54 54 54 53 53 53 54 54 53 54 53 54 54 53 53 53 53 53 52 51 52 52 52 52 51 51 50 49 49 49 50 50 50 51 52 52
55 56 56 56 56 54 52 53 54 54 54 53 53 54 54 54 53 53 53 53 53 52 53 52 52 51 51 52 52 52 51 51 51 50 49 49 49 49 49 50 48 48 49
46 46 54 55 54 53 53 53 53 53 53 53 53 54 54 53 43 51 53 53 53 53 52 52 52 51 51 49 49 48 50 51 51 50 50 49 49 50 51 50 49 49 49
39 40 43 45 47 48 53 53 52 53 53 53 53 53 48 39 37 41 46 52 54 54 53 53 54 53 52 53 51 48 48 48 48 52 52 51 51 48 44 47 48 48 47
36 37 38 40 41 42 44 45 45 44 44 44 43 42 39 34 35 37 41 49 51 50 42 41 43 44 37 41 47 50 46 39 40 44 43 37 33 33 36 40 41 42 43
33 34 37 37 38 38 38 38 39 36 35 34 35 35 34 33 33 37 41 46 46 36 33 33 35 34 33 36 43 45 37 31 31 30 30 29 29 29 30 36 35 36 38
32 33 35 36 36 36 36 35 34 33 32 31 30 31 31 30 32 34 42 44 34 30 30 30 31 31 31 33 38 40 39 30 28 27 26 25 25 26 25 26 28 32 32
33 33 33 34 35 35 36 34 33 32 32 31 30 30 29 30 30 32 32 32 30 28 27 27 29 29 29 29 29 30 29 28 26 25 25 24 23 23 23 24 25 25 25
32 31 31 31 32 33 33 34 34 33 32 31 31 30 30 28 28 29 29 29 28 27 26 27 28 27 27 26 26 26 26 26 25 24 23 23 23 23 24 24 24 24 24
29 28 29 30 29 28 30 31 31 31 31 31 30 30 30 31 29 27 26 27 27 27 28 28 27 27 27 27 28 28 27 27 26 25 24 25 25 26 28 28 27 23 20
27 27 26 25 25 26 27 26 26 29 28 29 29 28 28 28 29 30 30 29 27 27 27 27 26 26 26 27 27 27 27 27 27 25 25 25 25 24 22 23 22 22 17
27 27 27 25 23 22 23 24 25 26 27 26 26 26 26 24 24 26 28 28 28 29 29 28 27 26 25 25 24 25 25 25 24 24 23 22 21 19 16 17 15 12 9
26 26 27 26 26 23 22 21 23 25 24 24 25 24 24 23 23 23 24 25 27 27 26 25 24 24 23 23 22 20 20 19 19 19 17 15 14 14 14 14 12 8 5
24 25 25 25 25 24 23 22 20 21 20 21 21 21 21 22 22 22 23 23 24 24 23 22 21 20 19 17 16 15 15 14 14 15 15 15 14 12 12 12 12 10 6
26 25 25 25 24 24 24 24 23 22 20 19 19 20 20 20 21 23 23 22 20 19 19 18 17 15 13 12 12 13 14 14 13 12 13 14 13 12 10 7 9 10 5
22 24 25 24 23 24 23 22 22 21 20 21 22 20 21 20 19 19 20 19 17 15 13 13 13 12 12 13 14 13 12 11 12 13 12 12 13 10 9 10 10 7 7
21 23 24 23 23 22 22 21 21 20 19 17 16 17 21 20 18 17 17 16 14 13 11 10 10 11 12 11 12 11 11 10 10 10 11 11 12 10 10 9 8 8 6
22 21 22 21 21 21 21 20 20 19 17 15 14 14 16 16 14 13 12 12 12 12 12 11 11 10 9 10 10 9 9 10 8 9 8 9 9 9 8 8 7 6 5
20 20 20 19 19 19 19 19 19 18 18 16 13 10 11 12 10 10 10 11 11 10 10 10 8 7 8 8 8 9 7 7 7 8 7 7 7 7 8 7 6 7 6
18 18 18 18 18 18 18 17 17 16 14 12 10 10 10 10 10 9 9 9 8 8 8 8 7 6 7 8 7 6 5 6 5 4 6 7 6 6 7 6 5 5 5
15 16 15 15 14 16 15 13 10 8 10 11 10 9 9 9 8 7 7 7 7 7 7 6 4 2 2 5 5 4 1 1 4 5 4 5 6 5 6 5 5 5 4
12 12 12 11 12 12 11 10 10 10 10 10 9 8 7 7 6 7 6 5 5 5 4 5 3 3 2 1 1 0 -1 -1 -1 -1 4 5 4 3 4 3 4 3 4
8 9 9 10 10 10 10 9 9 8 8 7 7 7 6 5 5 6 4 3 2 3 2 3 2 1 1 2 1 -1 -2 -2 -2 -3 -1 3 3 3 4 5 4 3 3

GFSGL_sfc_30mbdewp_108.txt.gz
Dewpoint
59 59 59 59 59 58 57 56 57 56 56 56 56 56 59 58 58 57 56 56 55 55 56 56 56 56 55 55 55 54 52 51 48 47 48 48 48 52 54 55 55 55 55
58 58 58 59 58 58 57 56 56 56 55 55 56 57 57 58 58 57 56 56 55 55 55 55 55 56 55 55 54 54 53 53 51 49 48 48 47 48 51 52 52 53 54
57 57 58 58 59 57 56 57 56 55 55 55 56 56 56 57 56 56 56 56 55 55 54 54 54 54 54 54 54 54 53 53 52 50 49 48 49 51 50 52 52 53 54
57 57 57 58 58 57 56 56 55 55 55 55 55 55 56 55 55 56 55 54 54 54 54 54 54 53 53 53 53 53 53 52 52 51 50 50 51 51 51 50 50 52 52
50 55 57 58 58 57 56 55 55 55 55 54 55 55 54 54 52 55 55 55 54 54 54 54 54 53 53 53 53 53 53 52 51 51 50 50 49 49 49 49 49 49 50
40 41 45 52 55 56 55 55 55 54 54 54 54 55 54 42 40 47 53 54 53 53 53 53 53 53 52 51 51 52 53 52 52 51 50 49 49 50 50 49 49 49 49
36 38 39 42 44 48 53 53 53 53 54 53 53 46 40 38 37 41 46 53 54 51 49 50 52 46 47 50 49 49 47 43 45 48 49 51 49 45 45 46 47 47 47
35 35 36 38 38 39 41 41 41 41 41 40 40 39 37 34 35 39 44 51 44 39 38 41 43 40 37 42 47 42 36 34 36 37 38 33 32 32 35 40 41 41 40
32 33 35 36 36 35 34 35 35 34 33 32 32 32 33 32 34 38 45 43 36 33 32 33 34 33 33 37 44 39 31 29 31 30 30 29 29 29 30 37 35 36 37
31 32 33 35 34 33 32 32 33 33 32 31 30 30 31 31 33 35 39 35 31 29 29 30 31 31 31 34 39 36 31 28 28 27 26 26 26 26 26 27 29 33 32
32 32 32 32 33 34 33 33 33 32 32 32 31 30 29 30 31 33 33 31 30 28 28 28 30 31 31 30 30 30 28 27 26 25 25 25 24 24 24 25 26 26 25
31 30 30 31 31 31 32 33 33 33 32 31 31 30 29 29 30 31 30 30 30 28 27 28 29 29 28 27 27 27 27 26 25 25 24 25 25 26 26 25 24 23 22
30 28 27 26 27 29 28 28 30 31 30 29 29 28 28 30 29 28 28 28 28 28 28 29 28 28 27 27 29 30 29 28 27 25 25 25 26 27 29 27 22 19 17
29 29 27 25 23 24 26 26 25 27 27 26 27 25 25 26 28 29 30 29 28 27 27 27 26 26 27 27 27 27 27 27 26 25 25 26 24 23 21 22 21 21 16
27 28 29 25 23 22 23 24 24 26 26 24 24 24 23 24 27 29 29 29 29 29 28 27 26 25 24 24 23 23 24 24 23 24 23 22 20 18 16 16 15 13 8
27 28 29 29 26 22 21 21 22 23 24 24 25 25 26 27 27 27 27 27 26 26 25 24 23 23 22 21 20 18 18 18 19 19 18 16 15 15 16 16 15 10 6
25 27 27 27 27 28 26 22 19 21 21 23 24 24 25 27 25 23 22 23 24 23 22 21 20 19 18 18 17 17 15 16 17 17 17 16 17 15 14 14 15 12 7
27 26 26 26 26 26 26 25 25 21 19 20 21 21 22 22 22 23 21 21 19 19 19 18 16 16 15 15 15 15 15 17 15 15 15 15 15 14 12 9 9 8 10
23 25 26 26 26 25 25 25 24 22 21 21 22 24 23 20 19 19 19 18 15 14 14 14 15 15 15 17 16 15 14 13 13 14 14 14 14 12 11 11 11 8 8
23 23 24 24 24 24 23 23 22 20 18 17 16 17 21 19 17 17 17 17 16 15 14 14 14 14 15 14 13 14 11 11 12 13 11 10 12 11 10 10 9 8 7
24 23 24 23 23 23 22 22 21 18 16 15 14 15 16 16 15 14 14 14 14 15 14 13 12 12 12 13 12 11 11 11 11 11 8 9 10 8 10 8 10 10 6
22 23 21 21 21 21 21 21 20 19 18 16 13 12 13 14 13 13 13 13 13 14 13 12 11 9 10 10 10 11 8 8 5 7 10 10 10 10 10 10 7 8 7
18 20 18 19 21 19 17 16 19 18 15 14 13 13 13 13 13 12 12 12 11 8 8 7 7 7 10 12 8 5 4 4 7 5 5 7 10 6 10 7 7 5 5
17 15 16 17 14 14 18 16 12 10 14 14 12 12 12 12 10 9 9 11 8 7 10 9 4 2 3 5 5 2 1 0 2 2 3 7 6 4 5 4 7 4 8
13 14 14 14 14 15 14 13 12 13 12 13 12 12 11 10 11 10 9 6 6 8 7 5 4 3 3 3 1 -1 -1 -2 -2 -2 -0 3 6 4 9 6 7 3 4
10 11 12 12 12 12 13 13 11 11 10 10 10 9 9 7 10 8 6 3 4 4 5 5 2 2 5 1 0 -2 -1 -3 -3 -3 -2 3 5 5 2 1 2 3 4

GFSGL_sfc_30mbdewp_111.txt.gz
Dewpoint
58 60 60 60 59 60 59 58 57 57 57 56 58 59 59 58 58 57 57 57 56 56 57 56 56 55 56 56 55 53 51 50 47 48 50 52 51 52 54 54 54 54 54
58 58 60 60 60 60 58 57 57 56 56 56 56 57 59 58 58 57 56 56 56 55 56 56 56 56 56 55 55 55 55 54 52 50 50 51 51 50 51 53 54 55 55
54 57 58 59 59 58 58 56 56 56 56 56 56 56 58 58 58 57 56 56 55 55 55 55 55 55 55 55 55 54 54 54 54 53 52 52 51 49 49 50 50 52 54
44 47 53 58 59 58 57 56 56 56 56 56 57 56 57 57 57 57 56 56 56 55 55 55 55 55 55 54 54 54 54 53 53 52 51 50 49 51 51 49 49 52 51
39 41 42 46 58 58 57 56 56 56 55 55 56 56 56 56 54 56 55 55 55 55 55 55 55 55 54 54 54 54 53 53 52 51 51 51 50 50 49 50 50 50 50
37 38 39 40 43 52 56 56 55 55 55 55 55 55 48 43 41 48 55 55 55 54 54 54 54 53 53 52 52 53 54 53 52 51 51 50 50 50 50 49 49 48 48
35 36 37 37 38 38 41 49 52 54 53 52 49 46 41 39 37 43 49 54 54 51 51 53 52 45 49 51 50 43 40 41 44 50 51 50 49 44 45 48 49 49 48
33 34 35 36 36 36 35 35 36 37 39 39 38 37 36 35 36 39 48 45 41 39 39 41 42 41 38 45 44 39 34 33 35 36 38 34 33 33 37 40 41 41 35
31 32 33 34 34 34 33 33 33 32 32 32 32 33 33 33 36 42 42 38 34 32 32 33 34 35 35 39 39 34 30 29 31 31 31 30 30 30 32 38 37 38 35
30 31 32 32 32 33 33 32 32 32 31 31 30 31 31 31 34 35 36 33 30 30 30 31 31 32 34 39 38 33 30 28 27 27 26 26 27 27 27 28 30 35 32
30 29 28 30 31 31 32 32 32 32 32 31 29 29 29 31 31 33 32 31 29 29 28 28 30 31 32 32 32 31 28 28 27 26 26 26 25 24 25 25 26 27 25
28 27 26 27 28 29 29 31 31 31 31 30 28 28 29 29 31 31 31 31 30 28 28 29 30 31 30 29 29 29 28 28 27 26 26 26 25 23 20 19 19 18 20
28 26 25 25 26 27 26 26 27 28 29 27 26 26 27 29 29 30 30 29 29 28 29 29 29 29 29 28 29 29 28 27 25 24 24 24 26 27 22 17 17 15 14
29 26 24 23 23 24 24 25 24 25 24 25 24 24 26 27 28 29 29 29 28 28 27 26 26 25 25 26 26 27 27 26 25 24 23 23 20 17 18 21 21 14 12
27 28 26 22 21 21 23 23 23 26 26 24 24 25 25 26 28 30 29 28 29 28 27 26 24 23 21 21 20 21 22 22 21 21 19 18 17 16 15 15 11 9 8
25 26 27 27 22 21 20 21 24 25 26 27 27 27 28 28 28 28 27 27 27 26 24 22 21 21 19 18 17 17 18 18 19 18 17 16 16 17 17 17 13 8 3
25 25 26 26 26 26 21 19 18 21 22 24 25 26 28 26 25 24 24 23 21 20 18 18 17 17 17 18 18 18 16 17 17 16 16 16 14 12 12 12 11 11 9
23 26 24 25 25 25 24 23 20 19 18 20 23 23 23 22 22 20 19 18 17 17 17 17 17 17 16 15 14 15 15 16 15 15 14 13 12 13 11 10 9 8 10
22 24 25 25 25 25 23 22 20 18 17 17 17 21 20 20 19 18 18 17 15 15 15 15 16 16 15 15 14 13 13 12 11 10 11 11 11 11 9 9 8 6 7
24 23 23 23 22 22 22 20 17 16 15 15 15 17 17 15 14 14 15 15 15 15 14 13 13 13 14 12 12 12 11 11 10 9 8 9 8 9 8 8 9 6 7
23 21 20 19 20 20 20 20 15 14 14 14 15 15 15 14 13 13 12 12 12 12 11 10 9 10 10 11 10 8 5 5 6 7 9 10 8 10 8 7 8 9 6
20 20 18 20 18 17 18 19 17 16 13 14 14 14 13 12 12 11 9 8 8 9 9 9 9 9 9 7 6 5 4 3 4 3 5 7 6 8 8 7 4 5 6
16 17 15 15 18 15 11 13 16 14 13 13 11 10 10 10 10 10 9 9 7 4 3 2 3 5 6 3 2 1 -0 -0 1 0 1 4 4 4 4 6 6 6 6
14 15 16 16 15 14 15 14 13 14 13 11 10 11 9 7 6 6 8 6 5 5 5 2 1 2 2 -0 -1 -1 -1 -1 -3 -3 -2 2 5 3 5 5 4 2 4
10 11 13 13 13 14 14 12 12 10 10 11 11 10 11 9 8 5 4 3 5 4 1 1 1 4 0 -2 -3 -2 -2 -4 -4 -4 -3 1 4 4 2 2 2 3 3
10 9 9 7 9 10 10 11 10 10 10 10 10 8 7 9 6 3 1 1 6 5 3 1 2 2 0 -1 -0 -2 -4 -4 -5 -4 -3 0 -1 0 1 1 1 0 1

GFSGL_sfc_30mbdewp_114.txt.gz
Dewpoint
45 53 59 60 60 60 59 59 59 58 58 59 59 59 59 57 57 57 56 56 56 56 56 56 56 56 55 55 55 54 52 51 50 50 52 53 53 54 55 54 54 53 52
43 48 57 59 60 60 59 59 59 58 58 58 59 59 58 58 57 57 56 56 56 56 56 56 56 56 55 55 54 54 53 52 51 49 50 52 53 53 53 55 55 55 55
40 43 47 49 58 59 59 58 58 58 57 57 58 58 57 58 57 57 57 56 56 56 56 56 56 56 55 56 56 55 55 55 54 52 52 52 53 53 53 53 52 54 55
38 40 41 43 47 58 57 57 57 57 56 56 56 57 58 58 58 57 57 56 56 56 56 56 56 56 55 55 55 55 55 54 54 53 53 52 52 53 53 51 51 51 50
36 37 38 40 41 45 57 57 57 57 56 56 56 56 57 57 56 57 57 56 55 55 55 55 56 56 55 55 55 54 54 53 53 52 51 51 51 50 50 51 51 50 50
34 35 37 38 38 39 41 52 56 56 56 56 56 56 52 47 46 51 56 56 55 55 54 55 55 54 54 54 54 54 54 53 52 52 51 50 51 51 50 50 50 49 48
34 33 35 35 37 37 36 37 39 41 49 48 47 46 43 40 40 47 50 55 55 54 54 54 54 51 52 53 45 44 42 41 44 51 51 51 50 50 49 49 49 48 47
30 32 33 34 34 35 35 34 33 34 34 34 35 36 36 36 37 43 47 47 44 41 41 42 46 44 42 48 46 41 36 34 36 38 40 38 36 36 41 43 44 38 34
28 29 31 32 32 33 32 33 33 32 32 31 31 31 32 33 36 42 42 39 35 33 33 34 35 37 36 40 42 36 31 30 32 32 31 31 31 31 34 39 40 40 36
27 28 29 30 31 31 32 32 32 32 32 31 30 30 31 31 34 34 34 33 32 30 30 31 32 33 36 38 36 34 31 27 28 27 27 27 27 28 28 30 34 37 31
27 27 27 28 28 29 31 31 32 32 32 31 30 30 30 31 31 33 33 31 30 29 29 29 30 32 32 33 32 31 28 28 28 27 27 26 25 25 25 25 27 30 28
26 25 25 26 26 27 27 28 29 29 28 28 29 28 29 29 31 31 31 31 31 28 28 29 30 30 30 29 29 29 29 29 28 27 26 24 21 20 20 19 20 20 21
25 23 23 23 24 25 25 25 25 26 26 26 26 26 27 29 29 30 30 29 29 27 28 28 28 29 28 28 29 28 28 27 26 25 25 25 21 18 17 15 16 17 17
27 23 21 21 22 23 23 24 24 24 24 24 25 25 27 27 28 29 29 29 29 27 27 26 25 25 25 25 26 26 26 26 25 23 18 17 19 20 21 18 14 13 11
25 26 25 21 20 20 23 24 24 27 27 25 26 27 26 26 28 29 28 27 27 27 25 24 22 21 20 20 20 20 20 20 19 19 18 17 17 17 16 15 12 10 8
23 24 25 26 21 20 19 20 24 25 26 28 28 27 28 28 28 28 27 27 26 24 22 20 19 19 18 19 19 19 19 19 19 18 18 18 17 16 14 14 11 9 7
23 24 24 24 24 23 20 19 18 20 24 25 25 26 27 25 25 25 24 23 22 20 18 17 17 17 17 17 18 17 17 17 17 16 15 15 14 13 13 11 11 12 8
22 23 23 23 23 22 21 20 19 17 17 18 22 23 22 21 20 19 18 17 17 17 17 17 17 16 16 15 15 15 15 15 14 14 13 13 13 13 12 10 10 10 10
22 22 22 21 22 22 19 18 17 16 15 16 17 17 17 18 17 17 17 16 15 15 15 14 15 15 14 13 13 13 12 11 10 10 10 10 10 10 9 8 8 8 8
21 19 19 20 20 20 17 14 15 14 14 15 15 15 15 13 12 12 12 12 12 12 12 12 12 12 11 11 10 9 9 8 9 10 9 8 8 8 8 8 6 6 5
19 17 18 17 18 18 17 13 13 13 13 13 13 14 14 11 10 10 10 9 10 9 9 9 9 8 9 8 6 4 3 4 5 6 6 8 7 8 7 8 7 6 5
16 15 16 17 13 15 16 16 13 13 13 12 12 11 11 10 9 7 6 5 6 6 6 6 7 5 4 3 2 1 1 1 1 2 3 4 5 7 6 4 5 4 4
14 14 15 14 14 11 13 14 13 12 11 9 9 9 8 7 7 7 5 3 2 1 2 3 3 2 -0 -1 -1 -1 -1 -3 -2 -2 1 2 2 4 3 3 4 6 5
11 12 12 12 13 12 12 12 12 12 10 9 7 6 5 5 5 5 4 3 3 2 -0 0 1 0 -3 -4 -3 -1 -1 -4 -5 -4 -1 2 4 5 4 4 3 3 4
8 8 8 9 9 10 10 9 8 8 9 9 9 9 8 5 4 2 3 4 1 1 1 1 1 -1 -3 -3 -3 -3 -5 -5 -5 -4 -1 -0 0 -0 -0 0 0 1 2
8 7 7 6 7 7 8 8 8 8 7 7 7 6 6 4 2 -0 2 4 4 2 1 1 0 -1 -2 -1 -2 -5 -6 -5 -5 -4 -4 -2 -1 0 -1 -1 -1 0 1

GFSGL_sfc_30mbdewp_117.txt.gz
Dewpoint
40 42 45 49 59 61 60 60 60 59 59 59 59 59 58 57 57 56 56 56 55 55 56 56 55 55 55 55 55 54 53 52 49 50 51 53 53 54 53 54 55 55 55
39 41 43 45 49 60 60 59 59 59 59 59 59 59 58 57 57 56 55 55 55 55 55 56 55 56 55 55 55 54 53 53 51 49 51 52 52 54 54 54 55 54 54
37 38 40 41 43 47 57 59 59 59 58 59 59 58 58 58 57 56 56 56 55 56 56 56 56 55 55 55 55 54 54 54 53 52 51 52 53 54 54 54 54 55 55
35 36 37 39 40 42 47 57 59 58 58 58 58 58 58 57 57 56 56 56 56 56 56 56 56 56 55 55 55 55 54 54 53 52 52 52 52 53 54 52 52 53 52
34 34 35 36 38 39 40 43 53 58 58 57 58 58 57 57 57 57 57 56 56 56 56 56 56 57 56 56 55 55 55 54 54 53 52 51 52 51 52 52 52 52 51
31 32 34 35 35 36 36 37 37 40 50 57 56 57 56 49 45 55 57 56 56 55 55 55 56 55 55 55 55 55 55 54 53 52 52 51 51 51 51 51 51 50 47
30 30 31 33 34 34 35 35 35 34 35 37 40 43 40 38 39 44 53 56 55 55 55 54 54 54 54 53 44 44 43 43 48 52 52 51 51 51 51 50 50 50 48
27 28 30 30 31 33 33 33 34 34 33 32 33 34 35 35 38 42 45 52 48 45 44 47 51 49 46 49 46 43 38 36 37 40 43 40 39 40 44 47 48 41 35
26 26 27 29 29 30 30 32 32 33 32 32 32 32 32 33 35 37 41 39 36 34 34 35 38 42 39 42 44 39 33 30 32 32 32 31 32 33 36 41 42 42 37
26 26 26 27 28 28 29 29 31 31 32 32 32 31 31 31 34 34 33 32 31 31 31 31 33 35 37 40 40 37 34 28 28 28 28 28 28 29 29 32 36 40 33
24 24 24 25 26 27 28 28 28 29 30 31 30 29 29 30 31 33 33 32 31 29 29 29 30 32 33 34 34 33 29 28 28 27 26 25 25 25 25 26 29 33 32
23 22 22 23 24 25 26 26 27 27 26 27 27 27 28 29 30 30 31 31 31 28 28 29 30 31 30 30 30 30 30 29 28 26 23 22 22 22 23 23 23 23 24
27 22 21 22 23 24 24 25 25 25 25 26 26 26 27 28 29 29 29 28 27 26 27 27 27 28 28 28 28 28 28 28 27 25 22 21 21 22 23 23 23 22 21
24 25 22 21 21 22 23 24 25 25 24 24 25 25 26 27 27 28 27 27 27 25 25 24 25 25 24 24 24 25 25 25 24 22 21 22 23 21 18 18 14 13 12
23 23 24 21 20 20 21 24 24 26 27 24 25 26 25 25 27 28 27 25 24 24 24 23 21 21 21 21 21 21 22 22 21 22 20 19 19 17 14 15 13 10 9
21 22 23 23 22 20 19 19 22 24 24 26 27 26 26 26 25 25 25 24 24 23 20 18 18 18 18 18 18 18 19 19 20 19 18 17 16 14 14 15 14 10 6
21 22 22 22 22 21 19 18 17 17 19 21 23 23 22 21 21 22 21 20 20 18 17 17 16 16 17 17 17 17 16 17 19 18 17 16 15 15 14 14 13 11 9
19 20 20 20 19 18 17 16 15 15 15 16 18 19 20 19 19 19 18 16 15 15 15 15 15 15 15 15 14 14 13 13 14 14 13 13 14 13 12 12 13 13 11
19 18 18 18 19 16 15 14 14 14 13 14 14 14 15 15 15 15 14 13 12 12 13 12 13 13 12 11 11 10 10 10 10 10 10 10 11 10 9 10 9 8 9
17 17 16 17 17 15 12 13 13 12 12 12 12 12 12 10 9 9 9 10 9 9 10 10 10 9 9 8 7 8 8 8 8 9 8 7 8 8 7 6 6 5 6
14 14 16 12 14 16 14 12 12 11 11 11 11 12 10 9 8 7 7 7 7 7 7 7 6 5 6 5 4 3 3 3 4 5 7 7 6 7 7 7 6 6 5
13 14 14 14 11 13 14 14 13 12 11 10 10 9 8 7 5 4 3 3 4 5 5 4 3 2 1 1 1 -0 -1 -0 0 1 2 4 6 5 5 5 3 3 5
10 11 12 12 12 11 11 12 11 9 7 7 7 6 5 5 4 3 1 0 0 1 2 1 -1 -2 -3 -3 -2 -3 -3 -3 -3 -3 1 2 4 3 2 4 4 4 4
7 8 9 10 10 10 9 9 10 10 8 6 5 5 4 3 3 3 2 1 0 -1 -1 -1 -2 -3 -3 -4 -4 -3 -3 -5 -4 -3 -3 1 3 3 2 2 3 2 3
6 6 6 7 7 7 7 7 6 6 7 7 7 5 4 3 3 2 2 1 -0 0 1 -1 -2 -3 -3 -3 -5 -5 -5 -4 -4 -4 -3 -1 -1 -1 -0 -0 0 1 1
2 5 6 5 6 6 6 6 6 6 6 6 5 5 4 3 1 1 2 3 1 0 1 -0 -1 -2 -2 -2 -3 -5 -6 -5 -4 -5 -4 -3 -0 -1 -2 -2 -1 0 -1

GFSGL_sfc_30mbdewp_120.txt.gz
Dewpoint
38 39 41 42 44 47 56 58 60 60 60 59 60 59 60 58 58 58 57 56 56 55 56 56 56 56 55 55 55 55 55 53 51 53 54 56 55 54 52 55 55 54 54
36 38 39 40 42 43 46 51 60 59 59 59 59 59 59 58 58 57 56 56 55 54 55 56 55 56 55 55 55 54 54 54 52 50 52 53 54 54 54 54 54 54 55
34 35 37 37 39 40 42 45 53 59 59 59 59 59 58 58 57 57 56 55 55 55 55 55 55 55 55 55 55 54 54 54 53 52 51 52 53 54 54 54 54 55 55
33 33 34 36 36 38 39 40 42 46 57 58 59 58 58 58 57 57 56 55 55 55 55 55 56 55 55 55 55 55 54 54 53 53 52 52 52 53 53 53 53 54 50
31 32 32 34 35 36 37 38 39 38 40 43 57 58 58 58 57 57 56 56 55 55 56 56 56 56 56 56 55 55 55 54 53 52 52 52 52 52 52 53 52 53 51
29 30 31 32 33 34 34 35 36 36 37 36 38 43 49 44 41 54 56 55 56 56 55 56 56 55 55 54 54 55 55 54 53 53 52 51 52 52 53 53 52 51 46
28 28 29 30 31 32 32 33 34 34 35 35 35 35 35 35 36 43 50 57 56 55 55 55 55 55 55 54 49 47 46 46 50 54 52 52 52 52 52 51 51 50 47
26 26 27 28 28 30 31 31 32 33 32 33 33 33 33 33 35 39 43 51 49 43 43 45 53 53 53 50 46 43 40 38 40 42 45 43 42 43 48 50 50 42 36
24 24 25 27 27 27 28 29 30 30 30 31 30 31 32 32 33 34 36 35 34 33 33 34 36 43 41 46 45 40 34 32 33 33 33 32 33 34 37 44 44 43 38
22 23 24 25 26 26 27 28 29 30 29 29 28 29 29 30 32 33 34 32 31 30 31 31 33 35 37 40 42 39 37 30 30 29 28 28 28 29 30 33 37 42 35
23 22 23 24 25 25 26 27 27 28 28 28 28 29 29 29 29 30 32 32 31 30 30 30 31 32 32 33 36 35 32 29 28 27 27 26 25 25 25 26 27 33 33
26 22 22 22 24 24 25 26 26 26 26 26 26 27 28 29 29 29 28 27 28 26 26 27 29 30 30 30 30 30 30 29 27 25 24 23 23 23 23 24 24 24 25
23 24 21 21 22 23 23 24 24 24 24 24 24 24 26 27 28 28 28 27 26 25 25 26 26 25 25 26 27 27 28 27 24 22 21 21 22 23 24 24 24 24 23
21 22 23 20 20 21 22 23 22 23 22 22 23 23 23 24 25 26 26 25 25 24 24 24 24 24 23 23 23 23 24 24 23 21 20 22 22 21 20 22 21 21 19
20 21 21 22 20 19 20 22 22 23 24 23 22 23 22 22 24 24 24 24 24 23 22 21 20 20 20 20 20 21 21 22 21 22 21 21 20 19 18 18 14 13 12
19 20 20 20 20 19 18 17 19 21 21 22 23 23 22 23 21 21 22 22 20 20 18 17 17 17 17 17 17 18 18 19 20 20 20 20 18 17 17 17 15 13 14
18 19 19 19 18 17 16 15 14 15 17 18 18 19 20 20 20 19 19 18 17 16 14 15 14 15 15 16 16 16 15 17 19 18 18 18 18 18 17 16 16 15 14
17 16 16 17 15 13 12 12 12 12 12 12 14 16 17 17 17 16 15 13 12 12 13 12 12 12 12 12 12 12 13 14 15 15 15 16 16 16 15 15 15 14 12
16 16 15 15 15 12 12 12 11 11 11 11 11 11 12 13 13 13 11 10 9 10 10 10 10 10 9 9 9 9 9 10 10 10 10 11 12 11 11 11 10 10 10
13 14 13 11 14 13 11 11 10 10 9 9 9 9 9 7 6 6 7 7 7 7 8 7 7 6 6 6 6 7 7 7 8 9 8 7 8 8 8 7 8 7 7
11 12 12 11 11 13 12 12 11 9 9 8 7 7 6 5 4 4 5 4 5 5 5 5 3 3 4 4 3 3 3 3 4 6 7 7 7 7 7 7 7 6 6
9 10 11 11 10 10 12 12 10 8 7 7 6 6 4 3 2 1 0 1 2 3 3 1 -1 -1 -0 -0 -0 0 -0 1 1 2 5 5 6 6 5 4 4 5 5
7 7 8 9 9 8 8 9 9 7 6 5 4 4 3 2 2 1 -1 -2 -1 -1 -1 -3 -3 -3 -3 -4 -3 -3 -3 -3 -3 -2 2 4 4 5 5 4 4 4 2
5 5 6 6 7 7 6 6 6 7 7 5 4 3 3 2 1 1 -0 -1 -1 -2 -3 -3 -3 -3 -3 -4 -5 -3 -2 -4 -3 -2 -2 2 4 3 2 3 3 3 1
2 4 5 5 4 5 6 5 5 4 5 4 4 4 4 2 2 1 -0 -1 -0 -0 -1 -2 -3 -3 -4 -5 -6 -6 -5 -4 -4 -4 -2 -2 -0 0 0 1 1 1 1
4 2 4 4 4 4 4 4 4 4 4 4 3 2 3 3 2 0 0 1 0 0 -1 -2 -2 -2 -3 -4 -4 -6 -6 -6 -4 -5 -5 -1 -1 -2 -1 -1 -1 -0 -2

GFSGL_sfc_30mbdewp_123.txt.gz
Dewpoint
36 38 39 39 41 42 44 46 49 57 61 60 60 60 60 60 60 59 58 59 58 58 58 57 57 57 56 56 56 55 56 56 53 53 55 56 56 57 57 57 57 56 56
35 36 37 38 38 39 41 42 43 47 60 60 60 60 60 60 59 58 58 58 58 57 57 57 56 56 56 55 55 55 56 56 54 52 54 54 54 56 56 55 54 55 55
33 34 35 35 36 37 38 39 41 42 46 57 59 59 59 59 59 58 58 58 57 57 57 56 55 56 55 55 55 56 55 55 54 52 52 54 54 55 55 55 54 54 54
32 32 33 34 34 35 36 37 38 40 41 41 44 56 59 58 58 58 58 57 57 57 56 56 55 56 55 55 55 55 55 55 54 53 52 52 53 53 54 53 53 55 54
30 30 31 32 33 34 34 35 35 36 37 39 39 39 40 42 37 39 54 57 56 56 55 56 56 56 55 56 55 55 55 54 53 52 52 52 52 52 52 53 53 53 49
28 28 29 30 31 32 33 33 33 33 34 34 35 36 36 36 35 37 42 55 56 55 55 55 56 55 55 54 54 55 56 54 53 53 52 51 52 52 53 53 52 51 47
26 26 27 29 29 30 30 31 32 32 31 31 31 33 32 32 34 35 40 48 55 56 56 56 56 56 55 55 53 51 51 51 52 54 53 53 52 53 53 53 53 52 50
24 25 26 27 27 28 29 30 31 31 30 30 30 30 30 30 32 34 35 36 35 35 36 38 46 54 54 55 50 47 44 42 45 48 52 52 51 51 53 53 52 42 37
23 24 25 26 26 27 28 28 30 30 30 30 29 29 29 29 31 32 34 34 33 32 32 33 34 37 37 42 48 44 38 34 34 34 34 34 34 36 42 47 45 43 38
23 23 24 25 25 26 27 28 29 29 29 29 29 29 29 28 30 30 30 32 32 31 31 31 31 32 34 38 43 41 40 34 31 31 31 29 30 30 32 36 44 45 37
24 23 23 24 25 25 26 27 27 27 27 27 27 28 27 28 28 29 28 26 26 26 26 26 29 30 31 32 35 36 33 30 29 28 27 27 26 26 26 27 28 35 37
23 23 22 23 24 24 24 25 25 24 24 24 24 25 26 27 27 27 27 27 26 24 24 25 26 27 27 28 29 30 30 30 28 26 24 23 23 23 24 24 25 25 27
21 21 21 21 22 23 22 22 22 22 22 22 22 22 23 24 25 26 26 26 26 25 25 25 25 25 25 24 25 25 26 25 25 22 21 21 22 24 25 24 25 26 25
19 19 19 19 19 19 21 21 21 21 21 20 20 21 21 22 23 23 24 26 24 24 24 24 24 24 24 24 24 24 24 23 22 21 20 21 22 22 21 23 22 23 21
17 18 19 18 17 16 18 20 20 21 21 20 20 20 20 20 22 21 22 22 22 21 22 22 21 21 21 21 21 22 23 23 22 23 22 21 21 21 21 22 22 22 20
15 16 18 17 16 15 15 16 17 18 18 18 18 19 20 19 20 19 19 19 18 18 19 18 18 19 18 18 19 19 20 21 21 21 21 21 20 20 19 19 20 19 18
16 16 16 16 14 14 15 15 15 16 15 15 15 17 17 17 17 17 16 15 16 16 16 16 16 16 16 17 17 17 17 18 20 20 20 20 20 19 18 17 17 18 17
17 16 16 17 16 15 15 15 14 13 12 12 12 12 14 15 15 15 14 13 13 13 13 13 13 13 12 12 13 15 16 17 17 18 18 19 19 18 18 16 15 13 12
15 15 15 15 16 15 15 14 13 12 11 10 9 9 10 11 11 11 11 11 11 11 11 11 11 11 10 11 13 13 13 13 13 14 14 15 15 13 12 12 12 12 10
13 13 13 14 14 15 14 13 12 11 10 9 8 8 7 7 7 8 9 9 9 9 9 8 8 9 9 10 11 12 12 12 12 12 13 13 13 12 11 10 11 9 9
11 12 12 13 13 13 13 12 12 10 9 8 8 7 6 5 5 5 5 6 6 6 6 6 6 6 6 7 8 9 9 10 10 11 11 11 12 10 10 9 8 6 6
9 9 10 11 11 11 11 12 11 10 9 8 8 7 5 6 5 4 3 4 5 5 3 3 1 -0 1 3 4 7 7 7 8 9 10 10 10 9 8 8 7 6 4
8 7 7 7 9 9 10 9 10 9 9 9 8 7 6 6 5 4 4 4 3 2 2 2 2 0 -1 -0 0 1 2 3 4 5 8 10 9 9 9 8 7 6 4
6 6 6 6 7 7 8 8 8 8 8 8 7 7 6 6 6 5 5 4 4 3 3 2 0 -1 -2 -2 -1 -1 -0 2 3 4 5 8 7 7 7 6 6 6 5
7 6 6 6 6 5 6 6 6 7 6 6 6 6 6 6 5 5 5 4 4 4 2 2 1 -0 -2 -3 -3 -3 -3 -1 -0 -0 5 5 6 6 5 5 5 5 5
5 6 6 6 5 5 5 4 4 5 5 5 6 6 5 5 4 5 5 4 4 3 3 2 1 -0 -1 -2 -3 -4 -4 -3 -1 -3 2 4 4 4 4 4 4 4 3

GFSGL_sfc_30mbdewp_126.txt.gz
Dewpoint
37 38 39 39 41 41 42 42 43 45 49 54 61 61 62 62 62 62 61 61 60 61 61 60 59 60 59 59 58 57 57 56 54 55 55 56 57 57 57 59 58 58 56
35 36 36 37 37 38 38 39 40 42 43 46 50 60 60 60 61 61 60 59 59 59 59 59 59 59 59 58 57 56 56 55 55 53 55 55 56 57 56 56 57 57 57
34 34 34 35 36 36 36 37 38 39 40 41 42 43 47 57 59 60 59 59 59 59 59 59 58 58 57 57 56 55 55 56 56 55 53 55 56 57 56 56 56 55 56
33 34 33 33 34 35 35 35 35 35 35 37 38 38 38 37 37 39 44 56 59 59 59 59 58 58 57 56 56 55 55 56 56 55 54 53 54 55 55 53 53 55 54
30 32 33 33 33 33 34 35 35 34 34 34 34 34 34 34 34 35 39 45 54 58 58 58 58 58 57 56 56 56 55 55 55 54 52 52 52 52 52 53 53 53 54
29 29 31 32 33 33 33 33 33 33 33 33 33 32 32 32 33 35 36 45 49 55 56 57 57 57 56 54 54 55 56 55 54 54 53 52 52 52 53 53 53 52 48
27 28 28 30 31 32 32 32 32 32 32 31 31 32 31 30 31 33 36 38 37 36 36 37 48 56 55 56 53 53 54 55 55 55 54 54 53 53 53 53 53 52 51
25 26 27 28 28 30 30 31 31 31 31 30 30 30 30 29 30 30 33 35 34 33 32 32 34 37 36 40 55 53 52 49 49 50 54 55 55 55 54 54 53 50 39
25 25 26 27 27 28 28 29 29 30 29 30 29 29 29 29 29 29 29 30 30 30 30 31 30 31 32 35 44 50 45 39 35 36 36 36 37 40 45 51 48 45 39
25 26 25 26 26 27 28 28 28 29 29 28 29 29 28 28 28 29 29 28 26 27 28 28 29 30 31 32 39 43 42 36 33 32 33 31 31 31 32 38 47 46 40
24 25 25 26 26 26 26 27 27 28 28 27 28 28 27 27 27 27 27 28 28 28 25 25 27 28 29 29 31 32 33 31 30 29 28 27 27 27 27 28 29 38 39
22 22 23 24 24 25 24 25 26 26 26 26 26 26 27 27 25 25 25 26 26 27 26 27 27 27 27 27 26 27 28 29 29 27 25 24 24 25 25 26 27 27 28
18 19 19 19 21 24 23 23 21 23 22 22 22 23 24 26 26 23 24 25 25 27 27 26 25 25 26 26 26 25 25 24 23 22 21 21 23 25 26 26 26 26 26
14 16 16 16 16 17 19 19 20 20 20 19 20 21 21 22 23 24 24 25 25 26 27 27 25 25 26 25 25 26 26 24 23 22 22 23 24 23 23 25 24 24 22
12 13 15 15 14 14 17 19 17 19 19 18 19 20 19 19 20 20 20 21 22 23 25 25 24 23 23 23 23 24 24 25 23 24 24 23 23 23 24 26 25 24 22
11 12 14 14 14 14 14 15 18 17 16 15 15 18 19 18 17 18 17 17 18 20 22 21 20 21 21 21 20 21 22 22 23 23 23 23 22 22 23 24 24 23 22
13 13 13 13 13 14 14 14 15 16 16 15 13 12 14 14 15 16 16 16 15 17 17 17 18 18 18 18 19 20 20 21 23 22 22 22 22 22 22 22 22 22 21
15 14 15 15 15 15 15 15 14 14 13 13 13 11 10 11 12 13 14 15 15 15 14 14 14 13 13 14 15 17 18 20 21 21 21 21 21 21 20 20 20 20 19
12 12 13 14 14 14 13 13 12 12 11 11 10 9 9 9 10 10 11 12 12 11 11 10 11 11 12 12 14 16 15 15 16 17 17 18 19 18 18 18 18 18 16
10 11 11 12 12 12 12 11 10 10 10 9 9 8 8 9 9 8 9 9 9 9 9 8 9 9 10 11 13 13 13 13 14 13 15 16 16 15 14 13 13 12 11
10 10 10 10 11 10 10 10 10 9 9 8 9 10 7 7 7 6 6 6 6 7 7 7 6 6 7 8 9 11 11 12 12 12 13 12 13 12 12 11 10 9 8
9 9 8 8 8 9 9 9 9 9 8 7 7 7 8 7 6 5 5 6 6 6 5 6 6 4 3 4 6 8 9 9 10 11 12 11 11 11 10 10 10 9 7
8 8 7 6 7 6 8 7 7 7 7 7 7 7 6 7 7 6 6 6 5 5 5 4 4 3 3 4 4 4 5 6 8 9 10 10 10 10 10 9 8 7 7
7 7 6 5 6 5 6 6 6 5 5 6 6 7 7 6 7 6 6 5 5 5 5 4 3 1 0 1 2 2 1 4 6 7 8 8 8 7 8 7 7 7 6
7 6 6 6 6 6 6 5 5 5 5 5 6 5 5 5 5 6 6 5 4 4 3 3 3 2 1 -0 -1 -2 -1 1 3 3 7 6 6 6 6 6 6 5 5
7 6 6 6 5 5 5 5 4 4 4 4 5 6 5 5 4 5 5 5 3 2 3 3 2 1 1 0 -1 -2 -3 -2 1 2 6 5 5 4 4 4 4 4 4